Wetterdaten: Dienstag, 25.09.2018
Datum Zeit Temp. A. Pool Temp. Temp. 5cm Feuchte A. Luftdruck Regen Wind Richtung Richtung Sonnenschein ET UV Solar Taupunkt Windchill Windben Empfang
25.09.2018 00:00 8,5 C 17,2 C 7,8 C 73 % 1031,9 hPa 0,0 l/m 13,7 km/h (3 Bft) W-SW 253 0 min 0,000 mm 0,0 UV-I 0 W/m 3,9 C 3,9 C 22,5 km/h (4 Bft) 96,43 %
25.09.2018 00:02 8,5 C 17,2 C 7,8 C 74 % 1031,9 hPa 0,0 l/m 16,5 km/h (3 Bft) W-SW 258 0 min 0,000 mm 0,0 UV-I 0 W/m 4,1 C 2,7 C 22,5 km/h (4 Bft) 92,50 %
25.09.2018 00:04 8,4 C 17,2 C 7,8 C 73 % 1031,9 hPa 0,0 l/m 14,7 km/h (3 Bft) SW 227 0 min 0,000 mm 0,0 UV-I 0 W/m 3,8 C 3,3 C 20,9 km/h (4 Bft) 98,00 %
25.09.2018 00:06 8,4 C 17,2 C 7,8 C 73 % 1031,9 hPa 0,0 l/m 16,0 km/h (3 Bft) W-SW 238 0 min 0,000 mm 0,0 UV-I 0 W/m 3,8 C 2,8 C 24,1 km/h (4 Bft) 96,00 %
25.09.2018 00:08 8,4 C 17,2 C 7,8 C 73 % 1031,9 hPa 0,0 l/m 15,4 km/h (3 Bft) W-SW 251 0 min 0,000 mm 0,0 UV-I 0 W/m 3,8 C 3,0 C 22,5 km/h (4 Bft) 97,14 %
25.09.2018 00:10 8,4 C 17,2 C 7,8 C 73 % 1031,9 hPa 0,0 l/m 13,9 km/h (3 Bft) W 274 0 min 0,000 mm 0,0 UV-I 0 W/m 3,8 C 3,7 C 19,3 km/h (3 Bft) 98,31 %
25.09.2018 00:12 8,5 C 17,2 C 7,8 C 73 % 1031,9 hPa 0,0 l/m 14,1 km/h (3 Bft) W-SW 250 0 min 0,000 mm 0,0 UV-I 0 W/m 3,9 C 3,7 C 27,4 km/h (4 Bft) 92,11 %
25.09.2018 00:14 8,5 C 17,2 C 7,8 C 73 % 1031,9 hPa 0,0 l/m 12,5 km/h (3 Bft) W-SW 251 0 min 0,000 mm 0,0 UV-I 0 W/m 3,9 C 4,5 C 19,3 km/h (3 Bft) 93,18 %
25.09.2018 00:16 8,5 C 17,2 C 7,8 C 73 % 1031,9 hPa 0,0 l/m 11,4 km/h (2 Bft) W-SW 242 0 min 0,000 mm 0,0 UV-I 0 W/m 3,9 C 5,1 C 17,7 km/h (3 Bft) 98,21 %
25.09.2018 00:18 8,4 C 17,2 C 7,8 C 73 % 1031,9 hPa 0,0 l/m 11,5 km/h (2 Bft) SW 227 0 min 0,000 mm 0,0 UV-I 0 W/m 3,8 C 4,9 C 19,3 km/h (3 Bft) 100,00 %
25.09.2018 00:20 8,4 C 17,2 C 7,8 C 73 % 1031,9 hPa 0,0 l/m 14,8 km/h (3 Bft) W-SW 241 0 min 0,000 mm 0,0 UV-I 0 W/m 3,8 C 3,3 C 19,3 km/h (3 Bft) 100,00 %
25.09.2018 00:22 8,4 C 17,2 C 7,8 C 73 % 1031,8 hPa 0,0 l/m 14,2 km/h (3 Bft) W-SW 254 0 min 0,000 mm 0,0 UV-I 0 W/m 3,8 C 3,6 C 24,1 km/h (4 Bft) 100,00 %
25.09.2018 00:24 8,4 C 17,2 C 7,8 C 73 % 1031,8 hPa 0,0 l/m 13,7 km/h (3 Bft) W-SW 252 0 min 0,000 mm 0,0 UV-I 0 W/m 3,8 C 3,8 C 22,5 km/h (4 Bft) 100,00 %
25.09.2018 00:26 8,4 C 17,2 C 7,8 C 73 % 1031,9 hPa 0,0 l/m 15,6 km/h (3 Bft) W-SW 243 0 min 0,000 mm 0,0 UV-I 0 W/m 3,8 C 2,9 C 24,1 km/h (4 Bft) 100,00 %
25.09.2018 00:28 8,4 C 17,2 C 7,8 C 73 % 1031,8 hPa 0,0 l/m 16,9 km/h (3 Bft) W 265 0 min 0,000 mm 0,0 UV-I 0 W/m 3,8 C 2,4 C 22,5 km/h (4 Bft) 100,00 %
25.09.2018 00:30 8,4 C 17,2 C 7,8 C 74 % 1031,9 hPa 0,0 l/m 12,6 km/h (3 Bft) SW 236 0 min 0,000 mm 0,0 UV-I 0 W/m 4,0 C 4,4 C 19,3 km/h (3 Bft) 97,73 %
25.09.2018 00:32 8,4 C 17,2 C 7,8 C 74 % 1031,9 hPa 0,0 l/m 10,9 km/h (2 Bft) W-SW 254 0 min 0,000 mm 0,0 UV-I 0 W/m 4,0 C 5,3 C 17,7 km/h (3 Bft) 100,00 %
25.09.2018 00:34 8,3 C 17,2 C 7,8 C 73 % 1031,9 hPa 0,0 l/m 11,8 km/h (2 Bft) SW 220 0 min 0,000 mm 0,0 UV-I 0 W/m 3,8 C 4,7 C 16,1 km/h (3 Bft) 100,00 %
25.09.2018 00:36 8,3 C 17,2 C 7,8 C 74 % 1031,9 hPa 0,0 l/m 10,8 km/h (2 Bft) W-SW 244 0 min 0,000 mm 0,0 UV-I 0 W/m 3,9 C 5,2 C 14,5 km/h (3 Bft) 95,74 %
25.09.2018 00:38 8,3 C 17,2 C 7,8 C 74 % 1031,9 hPa 0,0 l/m 11,5 km/h (2 Bft) W-SW 248 0 min 0,000 mm 0,0 UV-I 0 W/m 3,9 C 4,8 C 17,7 km/h (3 Bft) 100,00 %
25.09.2018 00:40 8,3 C 17,2 C 7,8 C 73 % 1031,9 hPa 0,0 l/m 14,2 km/h (3 Bft) W-SW 258 0 min 0,000 mm 0,0 UV-I 0 W/m 3,8 C 3,4 C 19,3 km/h (3 Bft) 100,00 %
25.09.2018 00:42 8,3 C 17,2 C 7,8 C 73 % 1031,9 hPa 0,0 l/m 11,2 km/h (2 Bft) SW 223 0 min 0,000 mm 0,0 UV-I 0 W/m 3,8 C 5,0 C 16,1 km/h (3 Bft) 97,87 %
25.09.2018 00:44 8,3 C 17,2 C 7,2 C 73 % 1031,9 hPa 0,0 l/m 12,3 km/h (3 Bft) W 259 0 min 0,000 mm 0,0 UV-I 0 W/m 3,8 C 4,4 C 17,7 km/h (3 Bft) 100,00 %
25.09.2018 00:46 8,3 C 17,2 C 7,2 C 74 % 1031,9 hPa 0,0 l/m 11,1 km/h (2 Bft) SW 225 0 min 0,000 mm 0,0 UV-I 0 W/m 3,9 C 5,1 C 16,1 km/h (3 Bft) 96,43 %
25.09.2018 00:48 8,2 C 17,2 C 7,2 C 74 % 1031,8 hPa 0,0 l/m 10,8 km/h (2 Bft) W-SW 240 0 min 0,000 mm 0,0 UV-I 0 W/m 3,8 C 5,1 C 17,7 km/h (3 Bft) 100,00 %
25.09.2018 00:50 8,1 C 17,2 C 6,7 C 75 % 1031,9 hPa 0,0 l/m 9,7 km/h (2 Bft) SW 234 0 min 0,000 mm 0,0 UV-I 0 W/m 3,9 C 5,7 C 14,5 km/h (3 Bft) 98,11 %
25.09.2018 00:52 8,1 C 17,2 C 6,7 C 74 % 1031,9 hPa 0,0 l/m 11,3 km/h (2 Bft) SW 236 0 min 0,000 mm 0,0 UV-I 0 W/m 3,8 C 4,7 C 16,1 km/h (3 Bft) 96,00 %
25.09.2018 00:54 8,0 C 17,2 C 6,7 C 75 % 1031,9 hPa 0,0 l/m 10,4 km/h (2 Bft) W-SW 250 0 min 0,000 mm 0,0 UV-I 0 W/m 3,8 C 5,1 C 14,5 km/h (3 Bft) 97,87 %
25.09.2018 00:56 7,9 C 17,2 C 6,7 C 75 % 1032,0 hPa 0,0 l/m 10,1 km/h (2 Bft) SW 222 0 min 0,000 mm 0,0 UV-I 0 W/m 3,7 C 5,2 C 14,5 km/h (3 Bft) 97,56 %
25.09.2018 00:58 7,8 C 17,2 C 6,7 C 75 % 1031,9 hPa 0,0 l/m 10,7 km/h (2 Bft) W-SW 250 0 min 0,000 mm 0,0 UV-I 0 W/m 3,7 C 4,7 C 17,7 km/h (3 Bft) 98,11 %
25.09.2018 01:00 7,8 C 17,2 C 6,1 C 76 % 1032,0 hPa 0,0 l/m 13,2 km/h (3 Bft) W-SW 245 0 min 0,000 mm 0,0 UV-I 0 W/m 3,8 C 3,3 C 19,3 km/h (3 Bft) 93,18 %
25.09.2018 01:02 7,7 C 17,2 C 6,1 C 76 % 1031,9 hPa 0,0 l/m 15,1 km/h (3 Bft) SW 232 0 min 0,025 mm 0,0 UV-I 0 W/m 3,7 C 2,3 C 19,3 km/h (3 Bft) 95,24 %
25.09.2018 01:04 7,7 C 17,2 C 6,1 C 76 % 1032,0 hPa 0,0 l/m 12,1 km/h (2 Bft) W 265 0 min 0,000 mm 0,0 UV-I 0 W/m 3,7 C 3,8 C 16,1 km/h (3 Bft) 98,11 %
25.09.2018 01:06 7,6 C 17,2 C 6,1 C 77 % 1032,0 hPa 0,0 l/m 11,5 km/h (2 Bft) SW 221 0 min 0,000 mm 0,0 UV-I 0 W/m 3,8 C 4,0 C 17,7 km/h (3 Bft) 98,00 %
25.09.2018 01:08 7,6 C 17,2 C 6,1 C 76 % 1032,0 hPa 0,0 l/m 9,7 km/h (2 Bft) SW 236 0 min 0,000 mm 0,0 UV-I 0 W/m 3,6 C 5,1 C 14,5 km/h (3 Bft) 97,37 %
25.09.2018 01:10 7,6 C 17,2 C 6,1 C 77 % 1032,0 hPa 0,0 l/m 11,8 km/h (2 Bft) W-SW 243 0 min 0,000 mm 0,0 UV-I 0 W/m 3,8 C 3,9 C 16,1 km/h (3 Bft) 96,00 %
25.09.2018 01:12 7,5 C 17,2 C 6,1 C 77 % 1032,0 hPa 0,0 l/m 7,9 km/h (2 Bft) S-SW 213 0 min 0,000 mm 0,0 UV-I 0 W/m 3,7 C 6,3 C 12,9 km/h (3 Bft) 97,73 %
25.09.2018 01:14 7,4 C 17,2 C 6,1 C 77 % 1032,0 hPa 0,0 l/m 9,5 km/h (2 Bft) W 265 0 min 0,000 mm 0,0 UV-I 0 W/m 3,6 C 5,1 C 12,9 km/h (3 Bft) 98,21 %
25.09.2018 01:16 7,4 C 17,2 C 6,1 C 77 % 1032,1 hPa 0,0 l/m 10,0 km/h (2 Bft) W-SW 244 0 min 0,000 mm 0,0 UV-I 0 W/m 3,6 C 4,7 C 14,5 km/h (3 Bft) 94,74 %
25.09.2018 01:18 7,4 C 17,2 C 6,1 C 77 % 1032,1 hPa 0,0 l/m 9,5 km/h (2 Bft) SW 236 0 min 0,000 mm 0,0 UV-I 0 W/m 3,6 C 5,1 C 14,5 km/h (3 Bft) 94,64 %
25.09.2018 01:20 7,4 C 17,2 C 6,1 C 77 % 1032,1 hPa 0,0 l/m 10,9 km/h (2 Bft) W-SW 243 0 min 0,000 mm 0,0 UV-I 0 W/m 3,6 C 4,2 C 16,1 km/h (3 Bft) 94,29 %
25.09.2018 01:22 7,3 C 17,2 C 6,1 C 78 % 1032,1 hPa 0,0 l/m 9,1 km/h (2 Bft) W-SW 244 0 min 0,000 mm 0,0 UV-I 0 W/m 3,7 C 5,2 C 12,9 km/h (3 Bft) 92,00 %
25.09.2018 01:24 7,3 C 17,2 C 5,6 C 78 % 1032,2 hPa 0,0 l/m 9,1 km/h (2 Bft) W-SW 240 0 min 0,000 mm 0,0 UV-I 0 W/m 3,7 C 5,2 C 12,9 km/h (3 Bft) 92,68 %
25.09.2018 01:26 7,2 C 17,2 C 5,6 C 78 % 1032,2 hPa 0,0 l/m 10,0 km/h (2 Bft) W-SW 244 0 min 0,000 mm 0,0 UV-I 0 W/m 3,6 C 4,5 C 12,9 km/h (3 Bft) 96,23 %
25.09.2018 01:28 7,2 C 17,2 C 5,6 C 78 % 1032,3 hPa 0,0 l/m 8,1 km/h (2 Bft) SW 230 0 min 0,000 mm 0,0 UV-I 0 W/m 3,6 C 5,8 C 12,9 km/h (3 Bft) 92,45 %
25.09.2018 01:30 7,2 C 17,2 C 6,1 C 78 % 1032,3 hPa 0,0 l/m 7,6 km/h (2 Bft) SW 220 0 min 0,000 mm 0,0 UV-I 0 W/m 3,6 C 6,2 C 12,9 km/h (3 Bft) 95,12 %
25.09.2018 01:32 7,3 C 17,2 C 6,1 C 78 % 1032,3 hPa 0,0 l/m 6,7 km/h (2 Bft) SW 221 0 min 0,000 mm 0,0 UV-I 0 W/m 3,7 C 7,1 C 9,7 km/h (2 Bft) 95,24 %
25.09.2018 01:34 7,3 C 17,2 C 6,7 C 78 % 1032,3 hPa 0,0 l/m 8,5 km/h (2 Bft) SW 232 0 min 0,000 mm 0,0 UV-I 0 W/m 3,7 C 5,6 C 11,3 km/h (2 Bft) 96,00 %
25.09.2018 01:36 7,4 C 17,2 C 6,7 C 77 % 1032,3 hPa 0,0 l/m 6,8 km/h (2 Bft) SW 232 0 min 0,000 mm 0,0 UV-I 0 W/m 3,6 C 7,1 C 9,7 km/h (2 Bft) 95,74 %
25.09.2018 01:38 7,6 C 17,2 C 6,7 C 77 % 1032,4 hPa 0,0 l/m 7,0 km/h (2 Bft) S-SW 209 0 min 0,000 mm 0,0 UV-I 0 W/m 3,8 C 7,1 C 9,7 km/h (2 Bft) 98,18 %
25.09.2018 01:40 7,6 C 17,2 C 6,7 C 77 % 1032,4 hPa 0,0 l/m 7,5 km/h (2 Bft) S-SW 209 0 min 0,000 mm 0,0 UV-I 0 W/m 3,8 C 6,7 C 11,3 km/h (2 Bft) 97,62 %
25.09.2018 01:42 7,6 C 17,2 C 6,7 C 76 % 1032,4 hPa 0,0 l/m 9,4 km/h (2 Bft) SW 217 0 min 0,000 mm 0,0 UV-I 0 W/m 3,6 C 5,3 C 12,9 km/h (3 Bft) 95,74 %
25.09.2018 01:44 7,6 C 17,2 C 6,7 C 76 % 1032,4 hPa 0,0 l/m 7,9 km/h (2 Bft) S-SW 204 0 min 0,000 mm 0,0 UV-I 0 W/m 3,6 C 6,4 C 12,9 km/h (3 Bft) 95,12 %
25.09.2018 01:46 7,6 C 17,2 C 6,7 C 76 % 1032,5 hPa 0,0 l/m 7,7 km/h (2 Bft) SW 224 0 min 0,000 mm 0,0 UV-I 0 W/m 3,6 C 6,6 C 12,9 km/h (3 Bft) 98,11 %
25.09.2018 01:48 7,6 C 17,2 C 6,7 C 76 % 1032,5 hPa 0,0 l/m 10,5 km/h (2 Bft) SW 214 0 min 0,000 mm 0,0 UV-I 0 W/m 3,6 C 4,6 C 14,5 km/h (3 Bft) 96,00 %
25.09.2018 01:50 7,6 C 17,2 C 6,7 C 76 % 1032,5 hPa 0,0 l/m 9,3 km/h (2 Bft) SW 227 0 min 0,000 mm 0,0 UV-I 0 W/m 3,6 C 5,4 C 14,5 km/h (3 Bft) 97,56 %
25.09.2018 01:52 7,7 C 17,2 C 6,7 C 75 % 1032,6 hPa 0,0 l/m 8,7 km/h (2 Bft) SW 222 0 min 0,000 mm 0,0 UV-I 0 W/m 3,6 C 5,9 C 12,9 km/h (3 Bft) 97,87 %
25.09.2018 01:54 7,7 C 17,2 C 7,2 C 76 % 1032,6 hPa 0,0 l/m 9,7 km/h (2 Bft) S-SW 207 0 min 0,000 mm 0,0 UV-I 0 W/m 3,7 C 5,2 C 12,9 km/h (3 Bft) 95,74 %
25.09.2018 01:56 7,7 C 17,2 C 7,2 C 75 % 1032,6 hPa 0,0 l/m 7,9 km/h (2 Bft) SW 226 0 min 0,000 mm 0,0 UV-I 0 W/m 3,6 C 6,5 C 12,9 km/h (3 Bft) 94,00 %
25.09.2018 01:58 7,7 C 17,2 C 7,2 C 76 % 1032,6 hPa 0,0 l/m 6,1 km/h (2 Bft) SW 229 0 min 0,000 mm 0,0 UV-I 0 W/m 3,7 C 7,7 C 9,7 km/h (2 Bft) 97,87 %
25.09.2018 02:00 7,7 C 17,2 C 7,2 C 76 % 1032,6 hPa 0,0 l/m 8,8 km/h (2 Bft) S-SW 208 0 min 0,026 mm 0,0 UV-I 0 W/m 3,7 C 5,9 C 16,1 km/h (3 Bft) 95,74 %
25.09.2018 02:02 7,7 C 17,2 C 7,2 C 76 % 1032,6 hPa 0,0 l/m 7,5 km/h (2 Bft) W-SW 246 0 min 0,000 mm 0,0 UV-I 0 W/m 3,7 C 6,8 C 12,9 km/h (3 Bft) 96,00 %
25.09.2018 02:04 7,8 C 17,2 C 7,2 C 75 % 1032,6 hPa 0,0 l/m 8,1 km/h (2 Bft) S-SW 196 0 min 0,000 mm 0,0 UV-I 0 W/m 3,7 C 6,5 C 11,3 km/h (2 Bft) 100,00 %
25.09.2018 02:06 7,8 C 17,2 C 7,2 C 75 % 1032,6 hPa 0,0 l/m 9,2 km/h (2 Bft) SW 217 0 min 0,000 mm 0,0 UV-I 0 W/m 3,7 C 5,7 C 14,5 km/h (3 Bft) 94,00 %
25.09.2018 02:08 7,8 C 17,2 C 7,8 C 75 % 1032,6 hPa 0,0 l/m 9,2 km/h (2 Bft) SW 223 0 min 0,000 mm 0,0 UV-I 0 W/m 3,7 C 5,7 C 16,1 km/h (3 Bft) 96,00 %
25.09.2018 02:10 7,8 C 17,2 C 7,8 C 75 % 1032,6 hPa 0,0 l/m 9,1 km/h (2 Bft) SW 215 0 min 0,000 mm 0,0 UV-I 0 W/m 3,7 C 5,8 C 12,9 km/h (3 Bft) 98,00 %
25.09.2018 02:12 7,8 C 17,2 C 7,8 C 75 % 1032,6 hPa 0,0 l/m 8,5 km/h (2 Bft) W 261 0 min 0,000 mm 0,0 UV-I 0 W/m 3,7 C 6,2 C 12,9 km/h (3 Bft) 95,12 %
25.09.2018 02:14 7,8 C 17,2 C 7,8 C 76 % 1032,6 hPa 0,0 l/m 7,9 km/h (2 Bft) SW 215 0 min 0,000 mm 0,0 UV-I 0 W/m 3,8 C 6,6 C 12,9 km/h (3 Bft) 97,44 %
25.09.2018 02:16 7,8 C 17,2 C 7,8 C 75 % 1032,6 hPa 0,0 l/m 8,2 km/h (2 Bft) SW 234 0 min 0,000 mm 0,0 UV-I 0 W/m 3,7 C 6,4 C 12,9 km/h (3 Bft) 100,00 %
25.09.2018 02:18 7,8 C 17,2 C 7,8 C 75 % 1032,6 hPa 0,0 l/m 7,5 km/h (2 Bft) W-SW 250 0 min 0,000 mm 0,0 UV-I 0 W/m 3,7 C 6,9 C 12,9 km/h (3 Bft) 100,00 %
25.09.2018 02:20 7,8 C 17,2 C 7,8 C 75 % 1032,6 hPa 0,0 l/m 9,3 km/h (2 Bft) W 267 0 min 0,000 mm 0,0 UV-I 0 W/m 3,7 C 5,6 C 14,5 km/h (3 Bft) 100,00 %
25.09.2018 02:22 7,8 C 17,2 C 7,2 C 76 % 1032,6 hPa 0,0 l/m 9,7 km/h (2 Bft) SW 224 0 min 0,000 mm 0,0 UV-I 0 W/m 3,8 C 5,4 C 16,1 km/h (3 Bft) 100,00 %
25.09.2018 02:24 7,8 C 17,2 C 7,8 C 75 % 1032,6 hPa 0,0 l/m 8,9 km/h (2 Bft) W-SW 245 0 min 0,000 mm 0,0 UV-I 0 W/m 3,7 C 5,9 C 12,9 km/h (3 Bft) 100,00 %
25.09.2018 02:26 7,8 C 17,2 C 7,2 C 76 % 1032,6 hPa 0,0 l/m 8,2 km/h (2 Bft) SW 224 0 min 0,000 mm 0,0 UV-I 0 W/m 3,8 C 6,4 C 14,5 km/h (3 Bft) 100,00 %
25.09.2018 02:28 7,8 C 17,2 C 7,2 C 76 % 1032,7 hPa 0,0 l/m 9,1 km/h (2 Bft) SW 232 0 min 0,000 mm 0,0 UV-I 0 W/m 3,8 C 5,8 C 14,5 km/h (3 Bft) 100,00 %
25.09.2018 02:30 7,8 C 17,2 C 7,2 C 76 % 1032,7 hPa 0,0 l/m 10,5 km/h (2 Bft) W 261 0 min 0,000 mm 0,0 UV-I 0 W/m 3,8 C 4,9 C 12,9 km/h (3 Bft) 100,00 %
25.09.2018 02:32 7,8 C 17,2 C 7,2 C 76 % 1032,7 hPa 0,0 l/m 8,1 km/h (2 Bft) SW 233 0 min 0,000 mm 0,0 UV-I 0 W/m 3,8 C 6,5 C 11,3 km/h (2 Bft) 97,87 %
25.09.2018 02:34 7,8 C 17,2 C 7,2 C 77 % 1032,7 hPa 0,0 l/m 8,1 km/h (2 Bft) W-SW 252 0 min 0,000 mm 0,0 UV-I 0 W/m 4,0 C 6,5 C 12,9 km/h (3 Bft) 100,00 %
25.09.2018 02:36 7,8 C 17,2 C 7,8 C 77 % 1032,8 hPa 0,0 l/m 7,1 km/h (2 Bft) SW 232 0 min 0,000 mm 0,0 UV-I 0 W/m 4,0 C 7,2 C 11,3 km/h (2 Bft) 97,87 %
25.09.2018 02:38 7,8 C 17,2 C 7,8 C 76 % 1032,8 hPa 0,0 l/m 6,9 km/h (2 Bft) W 261 0 min 0,000 mm 0,0 UV-I 0 W/m 3,8 C 7,4 C 14,5 km/h (3 Bft) 97,56 %
25.09.2018 02:40 7,9 C 17,2 C 7,8 C 76 % 1032,8 hPa 0,0 l/m 6,9 km/h (2 Bft) W 265 0 min 0,000 mm 0,0 UV-I 0 W/m 3,9 C 7,5 C 11,3 km/h (2 Bft) 98,21 %
25.09.2018 02:42 7,9 C 17,2 C 7,8 C 76 % 1032,8 hPa 0,0 l/m 9,5 km/h (2 Bft) W-NW 284 0 min 0,000 mm 0,0 UV-I 0 W/m 3,9 C 5,6 C 17,7 km/h (3 Bft) 97,14 %
25.09.2018 02:44 8,1 C 17,2 C 7,8 C 76 % 1032,8 hPa 0,0 l/m 6,4 km/h (2 Bft) W 271 0 min 0,000 mm 0,0 UV-I 0 W/m 4,1 C 8,1 C 12,9 km/h (3 Bft) 96,00 %
25.09.2018 02:46 8,1 C 17,2 C 7,8 C 75 % 1032,8 hPa 0,0 l/m 6,2 km/h (2 Bft) W 267 0 min 0,000 mm 0,0 UV-I 0 W/m 3,9 C 8,1 C 12,9 km/h (3 Bft) 98,00 %
25.09.2018 02:48 8,1 C 17,2 C 7,8 C 76 % 1032,7 hPa 0,0 l/m 4,7 km/h (1 Bft) W-SW 258 0 min 0,000 mm 0,0 UV-I 0 W/m 4,1 C 8,1 C 8,0 km/h (2 Bft) 93,62 %
25.09.2018 02:50 8,1 C 17,2 C 7,8 C 75 % 1032,7 hPa 0,0 l/m 4,6 km/h (1 Bft) W 264 0 min 0,000 mm 0,0 UV-I 0 W/m 3,9 C 8,1 C 6,4 km/h (2 Bft) 98,00 %
25.09.2018 02:52 8,1 C 17,2 C 7,8 C 75 % 1032,8 hPa 0,0 l/m 6,2 km/h (2 Bft) W 271 0 min 0,000 mm 0,0 UV-I 0 W/m 3,9 C 8,1 C 9,7 km/h (2 Bft) 100,00 %
25.09.2018 02:54 8,2 C 17,2 C 7,8 C 75 % 1032,8 hPa 0,0 l/m 5,5 km/h (1 Bft) W 267 0 min 0,000 mm 0,0 UV-I 0 W/m 4,0 C 8,2 C 8,0 km/h (2 Bft) 96,00 %
25.09.2018 02:56 8,2 C 17,2 C 7,8 C 75 % 1032,8 hPa 0,0 l/m 12,7 km/h (3 Bft) W-SW 249 0 min 0,000 mm 0,0 UV-I 0 W/m 4,0 C 4,1 C 17,7 km/h (3 Bft) 98,18 %
25.09.2018 02:58 8,3 C 17,2 C 7,8 C 75 % 1032,8 hPa 0,0 l/m 7,1 km/h (2 Bft) W-SW 250 0 min 0,000 mm 0,0 UV-I 0 W/m 4,1 C 7,8 C 12,9 km/h (3 Bft) 97,22 %
25.09.2018 03:00 8,3 C 17,2 C 7,8 C 74 % 1032,8 hPa 0,0 l/m 9,3 km/h (2 Bft) W-SW 258 0 min 0,000 mm 0,0 UV-I 0 W/m 3,9 C 6,2 C 14,5 km/h (3 Bft) 98,00 %
25.09.2018 03:02 8,3 C 17,2 C 7,8 C 75 % 1032,8 hPa 0,0 l/m 7,0 km/h (2 Bft) W-SW 255 0 min 0,025 mm 0,0 UV-I 0 W/m 4,1 C 7,8 C 11,3 km/h (2 Bft) 94,00 %
25.09.2018 03:04 8,3 C 17,2 C 7,8 C 75 % 1032,8 hPa 0,0 l/m 8,0 km/h (2 Bft) W 273 0 min 0,000 mm 0,0 UV-I 0 W/m 4,1 C 7,1 C 14,5 km/h (3 Bft) 97,73 %
25.09.2018 03:06 8,3 C 17,2 C 7,8 C 75 % 1032,8 hPa 0,0 l/m 7,2 km/h (2 Bft) W 267 0 min 0,000 mm 0,0 UV-I 0 W/m 4,1 C 7,7 C 14,5 km/h (3 Bft) 98,00 %
25.09.2018 03:08 8,3 C 17,2 C 7,8 C 75 % 1032,9 hPa 0,0 l/m 12,8 km/h (3 Bft) W 277 0 min 0,000 mm 0,0 UV-I 0 W/m 4,1 C 4,1 C 17,7 km/h (3 Bft) 98,00 %
25.09.2018 03:10 8,4 C 17,2 C 7,8 C 75 % 1032,9 hPa 0,0 l/m 7,4 km/h (2 Bft) W 259 0 min 0,000 mm 0,0 UV-I 0 W/m 4,2 C 7,6 C 14,5 km/h (3 Bft) 94,74 %
25.09.2018 03:12 8,4 C 17,2 C 7,8 C 75 % 1032,9 hPa 0,0 l/m 7,6 km/h (2 Bft) W-NW 292 0 min 0,000 mm 0,0 UV-I 0 W/m 4,2 C 7,5 C 11,3 km/h (2 Bft) 96,00 %
25.09.2018 03:14 8,4 C 17,2 C 7,8 C 75 % 1032,9 hPa 0,0 l/m 8,4 km/h (2 Bft) W 270 0 min 0,000 mm 0,0 UV-I 0 W/m 4,2 C 6,9 C 12,9 km/h (3 Bft) 98,11 %
25.09.2018 03:16 8,3 C 17,2 C 7,8 C 75 % 1033,0 hPa 0,0 l/m 8,7 km/h (2 Bft) W 259 0 min 0,000 mm 0,0 UV-I 0 W/m 4,1 C 6,6 C 12,9 km/h (3 Bft) 100,00 %
25.09.2018 03:18 8,3 C 17,2 C 7,8 C 75 % 1033,1 hPa 0,0 l/m 11,8 km/h (2 Bft) W 275 0 min 0,000 mm 0,0 UV-I 0 W/m 4,1 C 4,7 C 19,3 km/h (3 Bft) 95,16 %
25.09.2018 03:20 8,3 C 17,2 C 7,8 C 75 % 1033,0 hPa 0,0 l/m 10,1 km/h (2 Bft) W 280 0 min 0,000 mm 0,0 UV-I 0 W/m 4,1 C 5,7 C 16,1 km/h (3 Bft) 96,00 %
25.09.2018 03:22 8,3 C 17,2 C 7,8 C 75 % 1033,1 hPa 0,0 l/m 11,3 km/h (2 Bft) W 270 0 min 0,000 mm 0,0 UV-I 0 W/m 4,1 C 4,9 C 17,7 km/h (3 Bft) 97,56 %
25.09.2018 03:24 8,3 C 17,2 C 7,2 C 75 % 1033,1 hPa 0,0 l/m 8,0 km/h (2 Bft) W-NW 284 0 min 0,000 mm 0,0 UV-I 0 W/m 4,1 C 7,1 C 12,9 km/h (3 Bft) 97,87 %
25.09.2018 03:26 8,3 C 17,2 C 7,2 C 75 % 1033,1 hPa 0,0 l/m 9,1 km/h (2 Bft) W-NW 292 0 min 0,000 mm 0,0 UV-I 0 W/m 4,1 C 6,3 C 14,5 km/h (3 Bft) 97,56 %
25.09.2018 03:28 8,2 C 17,2 C 7,2 C 75 % 1033,1 hPa 0,0 l/m 7,6 km/h (2 Bft) W 263 0 min 0,000 mm 0,0 UV-I 0 W/m 4,0 C 7,3 C 11,3 km/h (2 Bft) 98,04 %
25.09.2018 03:30 8,2 C 17,2 C 7,2 C 75 % 1033,1 hPa 0,0 l/m 4,5 km/h (1 Bft) W 281 0 min 0,000 mm 0,0 UV-I 0 W/m 4,0 C 8,2 C 9,7 km/h (2 Bft) 96,15 %
25.09.2018 03:32 8,2 C 17,2 C 7,2 C 76 % 1033,1 hPa 0,0 l/m 6,4 km/h (2 Bft) W-SW 255 0 min 0,000 mm 0,0 UV-I 0 W/m 4,2 C 8,2 C 11,3 km/h (2 Bft) 97,18 %
25.09.2018 03:34 8,2 C 17,2 C 7,2 C 76 % 1033,2 hPa 0,0 l/m 5,3 km/h (1 Bft) W-SW 254 0 min 0,000 mm 0,0 UV-I 0 W/m 4,2 C 8,2 C 12,9 km/h (3 Bft) 100,00 %
25.09.2018 03:36 8,1 C 17,2 C 7,2 C 76 % 1033,2 hPa 0,0 l/m 8,3 km/h (2 Bft) W 273 0 min 0,000 mm 0,0 UV-I 0 W/m 4,1 C 6,6 C 12,9 km/h (3 Bft) 100,00 %
25.09.2018 03:38 8,1 C 17,2 C 7,2 C 76 % 1033,2 hPa 0,0 l/m 7,2 km/h (2 Bft) W 279 0 min 0,000 mm 0,0 UV-I 0 W/m 4,1 C 7,5 C 11,3 km/h (2 Bft) 95,74 %
25.09.2018 03:40 8,1 C 17,2 C 7,2 C 77 % 1033,2 hPa 0,0 l/m 6,6 km/h (2 Bft) W-NW 282 0 min 0,000 mm 0,0 UV-I 0 W/m 4,3 C 8,0 C 12,9 km/h (3 Bft) 98,00 %
25.09.2018 03:42 8,0 C 17,2 C 7,2 C 77 % 1033,2 hPa 0,0 l/m 10,5 km/h (2 Bft) NW 319 0 min 0,000 mm 0,0 UV-I 0 W/m 4,2 C 5,1 C 16,1 km/h (3 Bft) 100,00 %
25.09.2018 03:44 8,1 C 17,2 C 7,2 C 76 % 1033,2 hPa 0,0 l/m 5,8 km/h (2 Bft) W 266 0 min 0,000 mm 0,0 UV-I 0 W/m 4,1 C 8,1 C 12,9 km/h (3 Bft) 100,00 %
25.09.2018 03:46 8,1 C 17,2 C 7,2 C 77 % 1033,2 hPa 0,0 l/m 6,4 km/h (2 Bft) W 263 0 min 0,000 mm 0,0 UV-I 0 W/m 4,3 C 8,1 C 9,7 km/h (2 Bft) 100,00 %
25.09.2018 03:48 8,1 C 17,2 C 7,2 C 77 % 1033,3 hPa 0,0 l/m 7,0 km/h (2 Bft) W-NW 289 0 min 0,000 mm 0,0 UV-I 0 W/m 4,3 C 7,6 C 14,5 km/h (3 Bft) 100,00 %
25.09.2018 03:51 8,0 C 17,2 C 7,2 C 77 % 1033,3 hPa 0,0 l/m 6,3 km/h (2 Bft) W 281 0 min 0,000 mm 0,0 UV-I 0 W/m 4,2 C 8,0 C 9,7 km/h (2 Bft) 100,00 %
25.09.2018 03:52 7,9 C 17,2 C 7,2 C 77 % 1033,3 hPa 0,0 l/m 5,8 km/h (2 Bft) W 269 0 min 0,000 mm 0,0 UV-I 0 W/m 4,1 C 7,9 C 9,7 km/h (2 Bft) 100,00 %
25.09.2018 03:56 7,8 C 17,2 C 6,7 C 78 % 1033,3 hPa 0,0 l/m 7,4 km/h (2 Bft) W-NW 302 0 min 0,000 mm 0,0 UV-I 0 W/m 4,2 C 7,0 C 11,3 km/h (2 Bft) 100,00 %
25.09.2018 03:58 7,8 C 17,2 C 6,7 C 78 % 1033,3 hPa 0,0 l/m 8,1 km/h (2 Bft) W-NW 298 0 min 0,000 mm 0,0 UV-I 0 W/m 4,2 C 6,5 C 12,9 km/h (3 Bft) 97,92 %
25.09.2018 04:00 7,8 C 17,2 C 6,7 C 78 % 1033,4 hPa 0,0 l/m 4,7 km/h (1 Bft) W-SW 256 0 min 0,026 mm 0,0 UV-I 0 W/m 4,2 C 7,8 C 8,0 km/h (2 Bft) 95,74 %
25.09.2018 04:02 7,8 C 17,2 C 6,7 C 78 % 1033,5 hPa 0,0 l/m 7,3 km/h (2 Bft) W 269 0 min 0,000 mm 0,0 UV-I 0 W/m 4,2 C 7,1 C 11,3 km/h (2 Bft) 97,37 %
25.09.2018 04:05 7,7 C 17,2 C 6,1 C 78 % 1033,5 hPa 0,0 l/m 4,6 km/h (1 Bft) W-NW 286 0 min 0,000 mm 0,0 UV-I 0 W/m 4,1 C 7,7 C 11,3 km/h (2 Bft) 97,40 %
25.09.2018 04:06 7,7 C 17,2 C 6,1 C 79 % 1033,5 hPa 0,0 l/m 5,3 km/h (1 Bft) W-NW 287 0 min 0,000 mm 0,0 UV-I 0 W/m 4,3 C 7,7 C 9,7 km/h (2 Bft) 100,00 %
25.09.2018 04:08 7,6 C 17,2 C 6,1 C 79 % 1033,6 hPa 0,0 l/m 5,7 km/h (1 Bft) W 277 0 min 0,000 mm 0,0 UV-I 0 W/m 4,2 C 7,6 C 9,7 km/h (2 Bft) 95,74 %
25.09.2018 04:10 7,6 C 17,2 C 6,1 C 79 % 1033,6 hPa 0,0 l/m 5,5 km/h (1 Bft) NW 304 0 min 0,000 mm 0,0 UV-I 0 W/m 4,2 C 7,6 C 9,7 km/h (2 Bft) 97,56 %
25.09.2018 04:12 7,5 C 17,2 C 5,6 C 79 % 1033,6 hPa 0,0 l/m 5,4 km/h (1 Bft) W 273 0 min 0,000 mm 0,0 UV-I 0 W/m 4,1 C 7,5 C 9,7 km/h (2 Bft) 98,11 %
25.09.2018 04:14 7,4 C 17,2 C 5,6 C 80 % 1033,6 hPa 0,0 l/m 5,4 km/h (1 Bft) W 277 0 min 0,000 mm 0,0 UV-I 0 W/m 4,2 C 7,4 C 11,3 km/h (2 Bft) 97,37 %
25.09.2018 04:16 7,3 C 17,2 C 5,6 C 80 % 1033,5 hPa 0,0 l/m 5,4 km/h (1 Bft) W 279 0 min 0,000 mm 0,0 UV-I 0 W/m 4,1 C 7,3 C 9,7 km/h (2 Bft) 96,43 %
25.09.2018 04:18 7,3 C 17,2 C 5,6 C 80 % 1033,6 hPa 0,0 l/m 6,6 km/h (2 Bft) W 267 0 min 0,000 mm 0,0 UV-I 0 W/m 4,1 C 7,2 C 9,7 km/h (2 Bft) 100,00 %
25.09.2018 04:21 7,2 C 17,2 C 5,6 C 80 % 1033,6 hPa 0,0 l/m 8,2 km/h (2 Bft) W-NW 285 0 min 0,000 mm 0,0 UV-I 0 W/m 4,0 C 5,8 C 14,5 km/h (3 Bft) 98,48 %
25.09.2018 04:22 7,2 C 17,2 C 5,6 C 80 % 1033,6 hPa 0,0 l/m 7,9 km/h (2 Bft) W 268 0 min 0,000 mm 0,0 UV-I 0 W/m 4,0 C 6,0 C 11,3 km/h (2 Bft) 100,00 %
25.09.2018 04:26 7,2 C 17,2 C 5,6 C 80 % 1033,5 hPa 0,0 l/m 7,4 km/h (2 Bft) W-SW 257 0 min 0,000 mm 0,0 UV-I 0 W/m 4,0 C 6,4 C 14,5 km/h (3 Bft) 98,90 %
25.09.2018 04:28 7,2 C 17,2 C 5,6 C 81 % 1033,5 hPa 0,0 l/m 8,8 km/h (2 Bft) W-NW 296 0 min 0,000 mm 0,0 UV-I 0 W/m 4,2 C 5,3 C 12,9 km/h (3 Bft) 100,00 %
25.09.2018 04:30 7,2 C 16,7 C 5,6 C 81 % 1033,6 hPa 0,0 l/m 7,2 km/h (2 Bft) W 267 0 min 0,000 mm 0,0 UV-I 0 W/m 4,2 C 6,5 C 11,3 km/h (2 Bft) 100,00 %
25.09.2018 04:32 7,1 C 16,7 C 5,6 C 81 % 1033,6 hPa 0,0 l/m 10,6 km/h (2 Bft) W 275 0 min 0,000 mm 0,0 UV-I 0 W/m 4,1 C 4,0 C 14,5 km/h (3 Bft) 100,00 %
25.09.2018 04:35 7,1 C 16,7 C 5,6 C 81 % 1033,6 hPa 0,0 l/m 7,0 km/h (2 Bft) W-SW 254 0 min 0,000 mm 0,0 UV-I 0 W/m 4,1 C 6,6 C 12,9 km/h (3 Bft) 100,00 %
25.09.2018 04:36 7,1 C 16,7 C 5,6 C 81 % 1033,6 hPa 0,0 l/m 8,6 km/h (2 Bft) W 263 0 min 0,000 mm 0,0 UV-I 0 W/m 4,1 C 5,4 C 14,5 km/h (3 Bft) 100,00 %
25.09.2018 04:38 7,0 C 16,7 C 5,6 C 82 % 1033,6 hPa 0,0 l/m 9,0 km/h (2 Bft) W 267 0 min 0,000 mm 0,0 UV-I 0 W/m 4,1 C 5,0 C 16,1 km/h (3 Bft) 100,00 %
25.09.2018 04:40 7,0 C 16,7 C 5,6 C 81 % 1033,6 hPa 0,0 l/m 12,2 km/h (2 Bft) W 267 0 min 0,000 mm 0,0 UV-I 0 W/m 4,0 C 2,9 C 19,3 km/h (3 Bft) 100,00 %
25.09.2018 04:42 7,1 C 16,7 C 5,6 C 82 % 1033,6 hPa 0,0 l/m 7,8 km/h (2 Bft) W 274 0 min 0,000 mm 0,0 UV-I 0 W/m 4,2 C 6,0 C 14,5 km/h (3 Bft) 100,00 %
25.09.2018 04:44 7,0 C 16,7 C 5,6 C 81 % 1033,6 hPa 0,0 l/m 7,9 km/h (2 Bft) W 264 0 min 0,000 mm 0,0 UV-I 0 W/m 4,0 C 5,8 C 14,5 km/h (3 Bft) 100,00 %
25.09.2018 04:46 7,0 C 16,7 C 5,6 C 82 % 1033,6 hPa 0,0 l/m 11,2 km/h (2 Bft) NW 315 0 min 0,000 mm 0,0 UV-I 0 W/m 4,1 C 3,5 C 17,7 km/h (3 Bft) 100,00 %
25.09.2018 04:48 7,1 C 16,7 C 5,6 C 82 % 1033,6 hPa 0,0 l/m 9,4 km/h (2 Bft) W-NW 291 0 min 0,000 mm 0,0 UV-I 0 W/m 4,2 C 4,8 C 12,9 km/h (3 Bft) 100,00 %
25.09.2018 04:50 7,1 C 16,7 C 5,6 C 81 % 1033,6 hPa 0,0 l/m 7,5 km/h (2 Bft) W-SW 257 0 min 0,000 mm 0,0 UV-I 0 W/m 4,1 C 6,2 C 16,1 km/h (3 Bft) 97,87 %
25.09.2018 04:52 7,0 C 16,7 C 5,6 C 81 % 1033,6 hPa 0,0 l/m 6,3 km/h (2 Bft) W 269 0 min 0,000 mm 0,0 UV-I 0 W/m 4,0 C 7,0 C 11,3 km/h (2 Bft) 96,43 %
25.09.2018 04:54 7,0 C 16,7 C 5,6 C 81 % 1033,6 hPa 0,0 l/m 7,1 km/h (2 Bft) NW 305 0 min 0,000 mm 0,0 UV-I 0 W/m 4,0 C 6,4 C 14,5 km/h (3 Bft) 97,56 %
25.09.2018 04:56 7,0 C 16,7 C 5,6 C 81 % 1033,6 hPa 0,0 l/m 7,3 km/h (2 Bft) W-SW 257 0 min 0,000 mm 0,0 UV-I 0 W/m 4,0 C 6,3 C 12,9 km/h (3 Bft) 97,56 %
25.09.2018 04:58 6,9 C 16,7 C 5,6 C 82 % 1033,7 hPa 0,0 l/m 7,1 km/h (2 Bft) W 275 0 min 0,000 mm 0,0 UV-I 0 W/m 4,0 C 6,3 C 16,1 km/h (3 Bft) 98,00 %
25.09.2018 05:00 6,9 C 16,7 C 5,6 C 82 % 1033,7 hPa 0,0 l/m 7,4 km/h (2 Bft) W-NW 290 0 min 0,025 mm 0,0 UV-I 0 W/m 4,0 C 6,1 C 14,5 km/h (3 Bft) 98,11 %
25.09.2018 05:02 6,9 C 16,7 C 5,6 C 82 % 1033,7 hPa 0,0 l/m 7,2 km/h (2 Bft) W-NW 289 0 min 0,000 mm 0,0 UV-I 0 W/m 4,0 C 6,2 C 11,3 km/h (2 Bft) 97,37 %
25.09.2018 05:04 6,9 C 16,7 C 5,6 C 82 % 1033,7 hPa 0,0 l/m 5,5 km/h (1 Bft) W-SW 253 0 min 0,000 mm 0,0 UV-I 0 W/m 4,0 C 6,9 C 9,7 km/h (2 Bft) 96,43 %
25.09.2018 05:06 6,9 C 16,7 C 5,6 C 82 % 1033,7 hPa 0,0 l/m 5,6 km/h (1 Bft) W 275 0 min 0,000 mm 0,0 UV-I 0 W/m 4,0 C 6,9 C 12,9 km/h (3 Bft) 95,12 %
25.09.2018 05:08 6,8 C 16,7 C 5,6 C 82 % 1033,8 hPa 0,0 l/m 6,3 km/h (2 Bft) W 269 0 min 0,000 mm 0,0 UV-I 0 W/m 3,9 C 6,8 C 11,3 km/h (2 Bft) 92,86 %
25.09.2018 05:10 6,8 C 16,7 C 5,6 C 82 % 1033,8 hPa 0,0 l/m 7,2 km/h (2 Bft) W-SW 240 0 min 0,000 mm 0,0 UV-I 0 W/m 3,9 C 6,1 C 11,3 km/h (2 Bft) 92,31 %
25.09.2018 05:12 6,8 C 16,7 C 5,6 C 82 % 1033,8 hPa 0,0 l/m 6,0 km/h (2 Bft) W 269 0 min 0,000 mm 0,0 UV-I 0 W/m 3,9 C 6,8 C 9,7 km/h (2 Bft) 92,86 %
25.09.2018 05:14 6,8 C 16,7 C 5,6 C 82 % 1033,8 hPa 0,0 l/m 6,1 km/h (2 Bft) W 263 0 min 0,000 mm 0,0 UV-I 0 W/m 3,9 C 6,8 C 11,3 km/h (2 Bft) 91,38 %
25.09.2018 05:16 6,8 C 16,7 C 5,6 C 82 % 1033,8 hPa 0,0 l/m 7,4 km/h (2 Bft) W 269 0 min 0,000 mm 0,0 UV-I 0 W/m 3,9 C 6,0 C 12,9 km/h (3 Bft) 92,31 %
25.09.2018 05:18 6,7 C 16,7 C 5,0 C 83 % 1033,8 hPa 0,0 l/m 7,1 km/h (2 Bft) W 259 0 min 0,000 mm 0,0 UV-I 0 W/m 4,0 C 6,1 C 11,3 km/h (2 Bft) 93,18 %
25.09.2018 05:20 6,7 C 16,7 C 5,6 C 83 % 1033,8 hPa 0,0 l/m 6,3 km/h (2 Bft) W 269 0 min 0,000 mm 0,0 UV-I 0 W/m 4,0 C 6,7 C 11,3 km/h (2 Bft) 92,86 %
25.09.2018 05:22 6,6 C 16,7 C 5,0 C 83 % 1033,8 hPa 0,0 l/m 7,3 km/h (2 Bft) W 264 0 min 0,000 mm 0,0 UV-I 0 W/m 3,9 C 5,8 C 12,9 km/h (3 Bft) 93,62 %
25.09.2018 05:25 6,7 C 16,7 C 5,6 C 83 % 1033,8 hPa 0,0 l/m 7,6 km/h (2 Bft) W 266 0 min 0,000 mm 0,0 UV-I 0 W/m 4,0 C 5,7 C 12,9 km/h (3 Bft) 90,16 %
25.09.2018 05:26 6,7 C 16,7 C 5,6 C 83 % 1033,8 hPa 0,0 l/m 9,3 km/h (2 Bft) W 259 0 min 0,000 mm 0,0 UV-I 0 W/m 4,0 C 4,4 C 12,9 km/h (3 Bft) 96,30 %
25.09.2018 05:28 6,6 C 16,7 C 5,6 C 83 % 1033,9 hPa 0,0 l/m 7,2 km/h (2 Bft) W 260 0 min 0,000 mm 0,0 UV-I 0 W/m 3,9 C 5,9 C 11,3 km/h (2 Bft) 93,62 %
25.09.2018 05:30 6,7 C 16,7 C 5,6 C 83 % 1033,9 hPa 0,0 l/m 9,1 km/h (2 Bft) W 271 0 min 0,000 mm 0,0 UV-I 0 W/m 4,0 C 4,6 C 12,9 km/h (3 Bft) 89,36 %
25.09.2018 05:32 6,7 C 16,7 C 5,6 C 83 % 1033,8 hPa 0,0 l/m 7,6 km/h (2 Bft) W 271 0 min 0,000 mm 0,0 UV-I 0 W/m 4,0 C 5,7 C 12,9 km/h (3 Bft) 94,00 %
25.09.2018 05:34 6,7 C 16,7 C 6,1 C 83 % 1033,9 hPa 0,0 l/m 5,3 km/h (1 Bft) W 275 0 min 0,000 mm 0,0 UV-I 0 W/m 4,0 C 6,7 C 11,3 km/h (2 Bft) 94,00 %
25.09.2018 05:36 6,7 C 16,7 C 6,1 C 83 % 1033,9 hPa 0,0 l/m 5,6 km/h (1 Bft) W-NW 284 0 min 0,000 mm 0,0 UV-I 0 W/m 4,0 C 6,7 C 9,7 km/h (2 Bft) 93,62 %
25.09.2018 05:38 6,7 C 16,7 C 6,1 C 83 % 1034,0 hPa 0,0 l/m 6,2 km/h (2 Bft) W-NW 286 0 min 0,000 mm 0,0 UV-I 0 W/m 4,0 C 6,7 C 12,9 km/h (3 Bft) 95,74 %
25.09.2018 05:40 6,7 C 16,7 C 6,1 C 84 % 1034,1 hPa 0,0 l/m 7,4 km/h (2 Bft) W-SW 250 0 min 0,000 mm 0,0 UV-I 0 W/m 4,2 C 5,9 C 12,9 km/h (3 Bft) 95,74 %
25.09.2018 05:42 6,8 C 16,7 C 6,1 C 84 % 1034,1 hPa 0,0 l/m 8,0 km/h (2 Bft) W 259 0 min 0,000 mm 0,0 UV-I 0 W/m 4,3 C 5,5 C 11,3 km/h (2 Bft) 97,87 %
25.09.2018 05:44 6,8 C 16,7 C 6,1 C 83 % 1034,1 hPa 0,0 l/m 4,7 km/h (1 Bft) W 259 0 min 0,000 mm 0,0 UV-I 0 W/m 4,1 C 6,8 C 6,4 km/h (2 Bft) 97,37 %
25.09.2018 05:46 6,8 C 16,7 C 6,1 C 83 % 1034,2 hPa 0,0 l/m 4,4 km/h (1 Bft) W 269 0 min 0,000 mm 0,0 UV-I 0 W/m 4,1 C 6,8 C 6,4 km/h (2 Bft) 98,00 %
25.09.2018 05:48 6,8 C 16,7 C 6,1 C 84 % 1034,2 hPa 0,0 l/m 4,8 km/h (1 Bft) W 276 0 min 0,000 mm 0,0 UV-I 0 W/m 4,3 C 6,8 C 9,7 km/h (2 Bft) 100,00 %
25.09.2018 05:50 6,8 C 16,7 C 6,1 C 84 % 1034,2 hPa 0,0 l/m 6,5 km/h (2 Bft) W-SW 257 0 min 0,000 mm 0,0 UV-I 0 W/m 4,3 C 6,7 C 11,3 km/h (2 Bft) 97,92 %
25.09.2018 05:52 6,8 C 16,7 C 6,1 C 84 % 1034,2 hPa 0,0 l/m 5,2 km/h (1 Bft) W-NW 292 0 min 0,000 mm 0,0 UV-I 0 W/m 4,3 C 6,8 C 6,4 km/h (2 Bft) 100,00 %
25.09.2018 05:54 6,8 C 16,7 C 6,1 C 84 % 1034,2 hPa 0,0 l/m 5,8 km/h (2 Bft) W 273 0 min 0,000 mm 0,0 UV-I 0 W/m 4,3 C 6,8 C 9,7 km/h (2 Bft) 100,00 %
25.09.2018 05:56 6,8 C 16,7 C 6,1 C 84 % 1034,2 hPa 0,0 l/m 5,2 km/h (1 Bft) W-NW 291 0 min 0,000 mm 0,0 UV-I 0 W/m 4,3 C 6,8 C 11,3 km/h (2 Bft) 100,00 %
25.09.2018 05:58 6,8 C 16,7 C 6,1 C 84 % 1034,2 hPa 0,0 l/m 4,4 km/h (1 Bft) W-SW 242 0 min 0,000 mm 0,0 UV-I 0 W/m 4,3 C 6,8 C 6,4 km/h (2 Bft) 100,00 %
25.09.2018 06:00 6,8 C 16,7 C 6,1 C 84 % 1034,3 hPa 0,0 l/m 6,3 km/h (2 Bft) W-NW 298 0 min 0,025 mm 0,0 UV-I 0 W/m 4,3 C 6,8 C 12,9 km/h (3 Bft) 97,87 %
25.09.2018 06:02 6,7 C 16,7 C 6,1 C 84 % 1034,3 hPa 0,0 l/m 4,6 km/h (1 Bft) W 271 0 min 0,000 mm 0,0 UV-I 0 W/m 4,2 C 6,7 C 8,0 km/h (2 Bft) 98,00 %
25.09.2018 06:04 6,7 C 16,7 C 6,1 C 84 % 1034,3 hPa 0,0 l/m 7,2 km/h (2 Bft) W 263 0 min 0,000 mm 0,0 UV-I 0 W/m 4,2 C 6,0 C 11,3 km/h (2 Bft) 100,00 %
25.09.2018 06:06 6,7 C 16,7 C 6,1 C 84 % 1034,2 hPa 0,0 l/m 5,8 km/h (2 Bft) W-NW 283 0 min 0,000 mm 0,0 UV-I 0 W/m 4,2 C 6,7 C 9,7 km/h (2 Bft) 100,00 %
25.09.2018 06:08 6,7 C 16,7 C 6,1 C 84 % 1034,2 hPa 0,0 l/m 8,1 km/h (2 Bft) W 265 0 min 0,000 mm 0,0 UV-I 0 W/m 4,2 C 5,3 C 16,1 km/h (3 Bft) 100,00 %
25.09.2018 06:11 6,8 C 16,7 C 6,1 C 84 % 1034,3 hPa 0,0 l/m 7,3 km/h (2 Bft) W 281 0 min 0,000 mm 0,0 UV-I 0 W/m 4,3 C 6,1 C 14,5 km/h (3 Bft) 98,70 %
25.09.2018 06:12 6,7 C 16,7 C 6,1 C 84 % 1034,3 hPa 0,0 l/m 6,2 km/h (2 Bft) W-NW 298 0 min 0,000 mm 0,0 UV-I 0 W/m 4,2 C 6,7 C 11,3 km/h (2 Bft) 100,00 %
25.09.2018 06:14 6,7 C 16,7 C 6,1 C 84 % 1034,3 hPa 0,0 l/m 6,2 km/h (2 Bft) W 269 0 min 0,000 mm 0,0 UV-I 0 W/m 4,2 C 6,7 C 14,5 km/h (3 Bft) 100,00 %
25.09.2018 06:16 6,7 C 16,7 C 6,1 C 84 % 1034,3 hPa 0,0 l/m 5,4 km/h (1 Bft) W 263 0 min 0,000 mm 0,0 UV-I 0 W/m 4,2 C 6,7 C 9,7 km/h (2 Bft) 100,00 %
25.09.2018 06:18 6,8 C 16,7 C 6,1 C 84 % 1034,4 hPa 0,0 l/m 6,5 km/h (2 Bft) W-SW 248 0 min 0,000 mm 0,0 UV-I 0 W/m 4,3 C 6,7 C 11,3 km/h (2 Bft) 100,00 %
25.09.2018 06:20 6,7 C 16,7 C 6,1 C 84 % 1034,3 hPa 0,0 l/m 4,8 km/h (1 Bft) W 268 0 min 0,000 mm 0,0 UV-I 0 W/m 4,2 C 6,7 C 9,7 km/h (2 Bft) 100,00 %
25.09.2018 06:22 6,7 C 16,7 C 6,1 C 84 % 1034,4 hPa 0,0 l/m 4,3 km/h (1 Bft) W-SW 253 0 min 0,000 mm 0,0 UV-I 0 W/m 4,2 C 6,7 C 8,0 km/h (2 Bft) 100,00 %
25.09.2018 06:24 6,7 C 16,7 C 6,1 C 84 % 1034,4 hPa 0,0 l/m 6,7 km/h (2 Bft) W-NW 302 0 min 0,000 mm 0,0 UV-I 0 W/m 4,2 C 6,5 C 12,9 km/h (3 Bft) 100,00 %
25.09.2018 06:26 6,7 C 16,7 C 6,1 C 84 % 1034,4 hPa 0,0 l/m 3,8 km/h (1 Bft) W 271 0 min 0,000 mm 0,0 UV-I 0 W/m 4,2 C 6,7 C 6,4 km/h (2 Bft) 98,00 %
25.09.2018 06:28 6,7 C 16,7 C 6,1 C 84 % 1034,5 hPa 0,0 l/m 4,7 km/h (1 Bft) W 261 0 min 0,000 mm 0,0 UV-I 0 W/m 4,2 C 6,7 C 6,4 km/h (2 Bft) 100,00 %
25.09.2018 06:30 6,7 C 16,7 C 6,1 C 84 % 1034,5 hPa 0,0 l/m 4,8 km/h (1 Bft) W 271 0 min 0,000 mm 0,0 UV-I 0 W/m 4,2 C 6,7 C 9,7 km/h (2 Bft) 100,00 %
25.09.2018 06:32 6,7 C 16,7 C 6,1 C 84 % 1034,5 hPa 0,0 l/m 5,7 km/h (1 Bft) W-SW 254 0 min 0,000 mm 0,0 UV-I 0 W/m 4,2 C 6,7 C 8,0 km/h (2 Bft) 97,73 %
25.09.2018 06:34 6,7 C 16,7 C 6,1 C 84 % 1034,5 hPa 0,0 l/m 5,3 km/h (1 Bft) W-NW 289 0 min 0,000 mm 0,0 UV-I 0 W/m 4,2 C 6,7 C 9,7 km/h (2 Bft) 98,11 %
25.09.2018 06:36 6,7 C 16,7 C 6,1 C 84 % 1034,5 hPa 0,0 l/m 5,8 km/h (2 Bft) W-NW 291 0 min 0,000 mm 0,0 UV-I 0 W/m 4,2 C 6,7 C 11,3 km/h (2 Bft) 97,87 %
25.09.2018 06:38 6,7 C 16,7 C 6,1 C 84 % 1034,5 hPa 0,0 l/m 6,1 km/h (2 Bft) W 271 0 min 0,000 mm 0,0 UV-I 0 W/m 4,2 C 6,7 C 11,3 km/h (2 Bft) 98,00 %
25.09.2018 06:40 6,7 C 16,7 C 6,1 C 84 % 1034,5 hPa 0,0 l/m 4,9 km/h (1 Bft) W 263 0 min 0,000 mm 0,0 UV-I 0 W/m 4,2 C 6,7 C 9,7 km/h (2 Bft) 93,18 %
25.09.2018 06:42 6,7 C 16,7 C 6,1 C 84 % 1034,5 hPa 0,0 l/m 4,5 km/h (1 Bft) W 269 0 min 0,000 mm 0,0 UV-I 0 W/m 4,2 C 6,7 C 6,4 km/h (2 Bft) 98,00 %
25.09.2018 06:44 6,7 C 16,7 C 6,1 C 84 % 1034,5 hPa 0,0 l/m 5,1 km/h (1 Bft) W-NW 291 0 min 0,000 mm 0,0 UV-I 1 W/m 4,2 C 6,7 C 11,3 km/h (2 Bft) 97,14 %
25.09.2018 06:46 6,7 C 16,7 C 6,1 C 85 % 1034,6 hPa 0,0 l/m 2,1 km/h (1 Bft) W-NW 292 0 min 0,000 mm 0,0 UV-I 5 W/m 4,4 C 6,7 C 4,8 km/h (1 Bft) 98,08 %
25.09.2018 06:48 6,6 C 16,7 C 6,1 C 84 % 1034,6 hPa 0,0 l/m 5,1 km/h (1 Bft) W-NW 290 0 min 0,000 mm 0,0 UV-I 5 W/m 4,1 C 6,6 C 11,3 km/h (2 Bft) 98,11 %
25.09.2018 06:50 6,6 C 16,7 C 6,1 C 84 % 1034,7 hPa 0,0 l/m 3,2 km/h (1 Bft) N-NO 14 0 min 0,000 mm 0,0 UV-I 5 W/m 4,1 C 6,6 C 6,4 km/h (2 Bft) 97,56 %
25.09.2018 06:52 6,6 C 16,7 C 6,1 C 85 % 1034,7 hPa 0,0 l/m 4,6 km/h (1 Bft) W 269 0 min 0,000 mm 0,0 UV-I 6 W/m 4,3 C 6,6 C 9,7 km/h (2 Bft) 97,56 %
25.09.2018 06:54 6,6 C 16,7 C 6,1 C 85 % 1034,7 hPa 0,0 l/m 4,5 km/h (1 Bft) W-NW 287 0 min 0,000 mm 0,0 UV-I 7 W/m 4,3 C 6,6 C 12,9 km/h (3 Bft) 96,23 %
25.09.2018 06:56 6,6 C 16,7 C 6,1 C 84 % 1034,7 hPa 0,0 l/m 5,8 km/h (2 Bft) W 263 0 min 0,000 mm 0,0 UV-I 8 W/m 4,1 C 6,6 C 14,5 km/h (3 Bft) 98,11 %
25.09.2018 06:58 6,6 C 16,7 C 6,1 C 85 % 1034,7 hPa 0,0 l/m 6,3 km/h (2 Bft) W-NW 286 0 min 0,000 mm 0,0 UV-I 9 W/m 4,3 C 6,6 C 12,9 km/h (3 Bft) 100,00 %
25.09.2018 07:00 6,6 C 16,7 C 6,1 C 85 % 1034,7 hPa 0,0 l/m 4,6 km/h (1 Bft) W 269 0 min 0,000 mm 0,0 UV-I 10 W/m 4,3 C 6,6 C 6,4 km/h (2 Bft) 100,00 %
25.09.2018 07:02 6,5 C 16,7 C 6,1 C 85 % 1034,7 hPa 0,0 l/m 6,8 km/h (2 Bft) W-SW 252 0 min 0,000 mm 0,0 UV-I 13 W/m 4,2 C 6,2 C 11,3 km/h (2 Bft) 100,00 %
25.09.2018 07:05 6,4 C 16,7 C 5,6 C 85 % 1034,7 hPa 0,0 l/m 6,0 km/h (2 Bft) W-SW 243 3 min 0,000 mm 0,0 UV-I 12 W/m 4,1 C 6,4 C 12,9 km/h (3 Bft) 97,56 %
25.09.2018 07:06 6,4 C 16,7 C 5,6 C 85 % 1034,7 hPa 0,0 l/m 7,1 km/h (2 Bft) W 277 1 min 0,000 mm 0,0 UV-I 12 W/m 4,1 C 5,8 C 11,3 km/h (2 Bft) 100,00 %
25.09.2018 07:08 6,4 C 16,7 C 5,6 C 85 % 1034,8 hPa 0,0 l/m 5,8 km/h (2 Bft) W 263 0 min 0,000 mm 0,0 UV-I 12 W/m 4,1 C 6,4 C 11,3 km/h (2 Bft) 97,87 %
25.09.2018 07:10 6,3 C 16,7 C 5,6 C 85 % 1034,9 hPa 0,0 l/m 6,4 km/h (2 Bft) W-NW 282 0 min 0,000 mm 0,0 UV-I 13 W/m 4,0 C 6,3 C 12,9 km/h (3 Bft) 96,00 %
25.09.2018 07:12 6,4 C 16,7 C 5,6 C 86 % 1034,8 hPa 0,0 l/m 5,8 km/h (2 Bft) W 263 0 min 0,000 mm 0,0 UV-I 14 W/m 4,2 C 6,4 C 12,9 km/h (3 Bft) 94,00 %
25.09.2018 07:14 6,3 C 16,7 C 5,6 C 85 % 1034,9 hPa 0,0 l/m 3,3 km/h (1 Bft) W-SW 249 0 min 0,000 mm 0,0 UV-I 15 W/m 4,0 C 6,3 C 6,4 km/h (2 Bft) 97,37 %
25.09.2018 07:16 6,3 C 16,7 C 5,6 C 86 % 1034,9 hPa 0,0 l/m 4,3 km/h (1 Bft) W-SW 257 0 min 0,000 mm 0,0 UV-I 17 W/m 4,1 C 6,3 C 6,4 km/h (2 Bft) 95,74 %
25.09.2018 07:18 6,3 C 16,7 C 5,6 C 85 % 1035,0 hPa 0,0 l/m 5,4 km/h (1 Bft) W-SW 257 0 min 0,000 mm 0,0 UV-I 19 W/m 4,0 C 6,3 C 9,7 km/h (2 Bft) 97,87 %
25.09.2018 07:20 6,3 C 16,7 C 5,6 C 85 % 1035,0 hPa 0,0 l/m 4,4 km/h (1 Bft) W 262 0 min 0,000 mm 0,0 UV-I 22 W/m 4,0 C 6,3 C 6,4 km/h (2 Bft) 94,00 %
25.09.2018 07:22 6,3 C 16,7 C 5,6 C 86 % 1035,0 hPa 0,0 l/m 4,9 km/h (1 Bft) W 265 0 min 0,000 mm 0,0 UV-I 26 W/m 4,1 C 6,3 C 8,0 km/h (2 Bft) 97,87 %
25.09.2018 07:24 6,3 C 16,7 C 5,6 C 86 % 1035,0 hPa 0,0 l/m 6,6 km/h (2 Bft) W-SW 244 0 min 0,000 mm 0,0 UV-I 29 W/m 4,1 C 6,2 C 11,3 km/h (2 Bft) 98,11 %
25.09.2018 07:26 6,3 C 16,7 C 6,1 C 86 % 1035,1 hPa 0,0 l/m 5,7 km/h (1 Bft) W-SW 238 0 min 0,000 mm 0,0 UV-I 32 W/m 4,1 C 6,3 C 9,7 km/h (2 Bft) 92,31 %
25.09.2018 07:28 6,3 C 16,7 C 6,1 C 86 % 1035,1 hPa 0,0 l/m 4,6 km/h (1 Bft) SW 235 0 min 0,000 mm 0,0 UV-I 34 W/m 4,1 C 6,3 C 8,0 km/h (2 Bft) 98,53 %
25.09.2018 07:30 6,3 C 16,7 C 6,1 C 86 % 1035,1 hPa 0,0 l/m 3,9 km/h (1 Bft) SW 233 0 min 0,000 mm 0,0 UV-I 36 W/m 4,1 C 6,3 C 6,4 km/h (2 Bft) 97,56 %
25.09.2018 07:32 6,2 C 16,7 C 6,1 C 86 % 1035,2 hPa 0,0 l/m 4,4 km/h (1 Bft) SW 227 0 min 0,000 mm 0,0 UV-I 39 W/m 4,0 C 6,2 C 8,0 km/h (2 Bft) 96,00 %
25.09.2018 07:34 6,3 C 16,7 C 6,1 C 86 % 1035,2 hPa 0,0 l/m 5,2 km/h (1 Bft) SW 216 0 min 0,000 mm 0,0 UV-I 42 W/m 4,1 C 6,3 C 8,0 km/h (2 Bft) 97,87 %
25.09.2018 07:36 6,3 C 16,7 C 6,1 C 86 % 1035,2 hPa 0,0 l/m 4,6 km/h (1 Bft) SW 224 0 min 0,000 mm 0,0 UV-I 44 W/m 4,1 C 6,3 C 6,4 km/h (2 Bft) 94,00 %
25.09.2018 07:38 6,3 C 16,7 C 6,1 C 86 % 1035,3 hPa 0,0 l/m 4,2 km/h (1 Bft) SW 231 0 min 0,000 mm 0,0 UV-I 46 W/m 4,1 C 6,3 C 6,4 km/h (2 Bft) 97,37 %
25.09.2018 07:40 6,3 C 16,7 C 6,1 C 86 % 1035,2 hPa 0,0 l/m 4,0 km/h (1 Bft) W-SW 244 0 min 0,000 mm 0,0 UV-I 47 W/m 4,1 C 6,3 C 6,4 km/h (2 Bft) 100,00 %
25.09.2018 07:42 6,3 C 16,7 C 6,1 C 87 % 1035,3 hPa 0,0 l/m 4,5 km/h (1 Bft) S-SW 206 0 min 0,000 mm 0,0 UV-I 53 W/m 4,3 C 6,3 C 8,0 km/h (2 Bft) 97,87 %
25.09.2018 07:44 6,3 C 16,7 C 6,7 C 87 % 1035,3 hPa 0,0 l/m 6,0 km/h (2 Bft) S-SW 211 0 min 0,000 mm 0,0 UV-I 60 W/m 4,3 C 6,3 C 8,0 km/h (2 Bft) 100,00 %
25.09.2018 07:46 6,3 C 16,7 C 6,7 C 87 % 1035,3 hPa 0,0 l/m 6,4 km/h (2 Bft) W-SW 246 0 min 0,000 mm 0,0 UV-I 65 W/m 4,3 C 6,3 C 9,7 km/h (2 Bft) 100,00 %
25.09.2018 07:48 6,3 C 16,7 C 6,7 C 87 % 1035,4 hPa 0,0 l/m 5,4 km/h (1 Bft) SW 214 0 min 0,000 mm 0,0 UV-I 64 W/m 4,3 C 6,3 C 9,7 km/h (2 Bft) 100,00 %
25.09.2018 07:50 6,3 C 16,7 C 6,7 C 87 % 1035,4 hPa 0,0 l/m 5,1 km/h (1 Bft) SW 229 0 min 0,000 mm 0,0 UV-I 62 W/m 4,3 C 6,3 C 8,0 km/h (2 Bft) 96,00 %
25.09.2018 07:52 6,3 C 16,7 C 6,7 C 87 % 1035,4 hPa 0,0 l/m 4,9 km/h (1 Bft) W-SW 253 0 min 0,000 mm 0,0 UV-I 64 W/m 4,3 C 6,3 C 9,7 km/h (2 Bft) 97,37 %
25.09.2018 07:54 6,3 C 16,7 C 6,7 C 87 % 1035,4 hPa 0,0 l/m 4,8 km/h (1 Bft) W-SW 238 0 min 0,000 mm 0,0 UV-I 70 W/m 4,3 C 6,3 C 6,4 km/h (2 Bft) 98,21 %
25.09.2018 07:56 6,4 C 16,7 C 6,7 C 87 % 1035,5 hPa 0,0 l/m 4,4 km/h (1 Bft) W-SW 242 0 min 0,000 mm 0,0 UV-I 76 W/m 4,4 C 6,4 C 8,0 km/h (2 Bft) 94,29 %
25.09.2018 07:58 6,4 C 16,7 C 7,2 C 87 % 1035,5 hPa 0,0 l/m 6,0 km/h (2 Bft) SW 220 0 min 0,000 mm 0,0 UV-I 85 W/m 4,4 C 6,4 C 8,0 km/h (2 Bft) 98,21 %
25.09.2018 08:00 6,4 C 16,7 C 7,2 C 86 % 1035,5 hPa 0,0 l/m 5,7 km/h (1 Bft) SW 231 0 min 0,026 mm 0,0 UV-I 93 W/m 4,2 C 6,4 C 8,0 km/h (2 Bft) 97,83 %
25.09.2018 08:02 6,6 C 16,7 C 7,2 C 86 % 1035,6 hPa 0,0 l/m 6,0 km/h (2 Bft) W-SW 246 0 min 0,000 mm 0,0 UV-I 94 W/m 4,4 C 6,6 C 11,3 km/h (2 Bft) 97,87 %
25.09.2018 08:04 6,6 C 16,7 C 7,8 C 86 % 1035,7 hPa 0,0 l/m 5,7 km/h (1 Bft) SW 221 0 min 0,000 mm 0,0 UV-I 93 W/m 4,4 C 6,6 C 9,7 km/h (2 Bft) 98,00 %
25.09.2018 08:06 6,7 C 16,7 C 7,8 C 85 % 1035,7 hPa 0,0 l/m 6,8 km/h (2 Bft) W-SW 245 0 min 0,000 mm 0,0 UV-I 97 W/m 4,4 C 6,4 C 8,0 km/h (2 Bft) 97,73 %
25.09.2018 08:08 6,7 C 16,7 C 7,8 C 85 % 1035,6 hPa 0,0 l/m 7,8 km/h (2 Bft) W-SW 237 0 min 0,000 mm 0,0 UV-I 98 W/m 4,4 C 5,5 C 12,9 km/h (3 Bft) 97,56 %
25.09.2018 08:10 6,7 C 16,7 C 7,8 C 85 % 1035,7 hPa 0,0 l/m 6,8 km/h (2 Bft) SW 227 0 min 0,000 mm 0,0 UV-I 100 W/m 4,4 C 6,4 C 9,7 km/h (2 Bft) 96,00 %
25.09.2018 08:12 6,8 C 16,7 C 8,3 C 85 % 1035,7 hPa 0,0 l/m 8,6 km/h (2 Bft) W 266 0 min 0,000 mm 0,0 UV-I 102 W/m 4,5 C 5,0 C 12,9 km/h (3 Bft) 100,00 %
25.09.2018 08:14 6,8 C 16,7 C 8,3 C 85 % 1035,7 hPa 0,0 l/m 5,6 km/h (1 Bft) W 273 0 min 0,000 mm 0,0 UV-I 104 W/m 4,5 C 6,8 C 9,7 km/h (2 Bft) 97,56 %
25.09.2018 08:16 6,9 C 16,7 C 8,3 C 86 % 1035,7 hPa 0,0 l/m 6,9 km/h (2 Bft) W 269 0 min 0,000 mm 0,0 UV-I 100 W/m 4,7 C 6,5 C 12,9 km/h (3 Bft) 92,45 %
25.09.2018 08:18 6,9 C 16,7 C 8,3 C 86 % 1035,7 hPa 0,0 l/m 6,8 km/h (2 Bft) W-SW 257 0 min 0,000 mm 0,0 UV-I 97 W/m 4,7 C 6,6 C 11,3 km/h (2 Bft) 97,87 %
25.09.2018 08:20 6,9 C 16,7 C 8,3 C 86 % 1035,7 hPa 0,0 l/m 7,4 km/h (2 Bft) W 264 0 min 0,000 mm 0,0 UV-I 97 W/m 4,7 C 6,1 C 11,3 km/h (2 Bft) 97,44 %
25.09.2018 08:22 6,9 C 16,7 C 8,3 C 85 % 1035,7 hPa 0,0 l/m 9,7 km/h (2 Bft) W-SW 248 0 min 0,000 mm 0,0 UV-I 96 W/m 4,6 C 4,4 C 14,5 km/h (3 Bft) 96,36 %
25.09.2018 08:24 6,9 C 16,7 C 8,3 C 85 % 1035,7 hPa 0,0 l/m 9,2 km/h (2 Bft) W 259 0 min 0,000 mm 0,0 UV-I 89 W/m 4,6 C 4,7 C 12,9 km/h (3 Bft) 94,87 %
25.09.2018 08:26 6,9 C 16,7 C 7,8 C 85 % 1035,7 hPa 0,0 l/m 8,1 km/h (2 Bft) SW 223 0 min 0,000 mm 0,0 UV-I 77 W/m 4,6 C 5,5 C 12,9 km/h (3 Bft) 96,23 %
25.09.2018 08:28 6,9 C 16,7 C 7,8 C 85 % 1035,8 hPa 0,0 l/m 11,5 km/h (2 Bft) W-SW 245 0 min 0,000 mm 0,0 UV-I 72 W/m 4,6 C 3,2 C 17,7 km/h (3 Bft) 96,23 %
25.09.2018 08:30 6,8 C 16,7 C 7,8 C 85 % 1035,7 hPa 0,0 l/m 10,5 km/h (2 Bft) W 259 0 min 0,000 mm 0,0 UV-I 83 W/m 4,5 C 3,7 C 16,1 km/h (3 Bft) 94,74 %
25.09.2018 08:32 6,9 C 16,7 C 7,8 C 85 % 1035,7 hPa 0,0 l/m 9,2 km/h (2 Bft) W 261 0 min 0,000 mm 0,0 UV-I 106 W/m 4,6 C 4,7 C 14,5 km/h (3 Bft) 98,00 %
25.09.2018 08:34 7,0 C 16,7 C 8,3 C 85 % 1035,8 hPa 0,0 l/m 9,1 km/h (2 Bft) W-SW 251 2 min 0,000 mm 0,0 UV-I 174 W/m 4,7 C 4,9 C 14,5 km/h (3 Bft) 98,11 %
25.09.2018 08:36 7,1 C 16,7 C 8,3 C 84 % 1035,8 hPa 0,0 l/m 8,3 km/h (2 Bft) W 259 0 min 0,000 mm 0,0 UV-I 145 W/m 4,6 C 5,6 C 11,3 km/h (2 Bft) 90,24 %
25.09.2018 08:38 7,1 C 16,7 C 8,3 C 84 % 1035,9 hPa 0,0 l/m 7,7 km/h (2 Bft) W 265 0 min 0,000 mm 0,0 UV-I 121 W/m 4,6 C 6,0 C 14,5 km/h (3 Bft) 98,11 %
25.09.2018 08:40 7,1 C 16,7 C 7,8 C 84 % 1035,9 hPa 0,0 l/m 11,2 km/h (2 Bft) W 275 0 min 0,000 mm 0,0 UV-I 111 W/m 4,6 C 3,6 C 17,7 km/h (3 Bft) 95,12 %
25.09.2018 08:42 7,1 C 16,7 C 7,8 C 84 % 1035,9 hPa 0,0 l/m 8,5 km/h (2 Bft) W-SW 253 0 min 0,000 mm 0,2 UV-I 104 W/m 4,6 C 5,4 C 12,9 km/h (3 Bft) 97,73 %
25.09.2018 08:44 7,1 C 16,7 C 7,2 C 84 % 1035,9 hPa 0,0 l/m 10,8 km/h (2 Bft) W-SW 252 0 min 0,000 mm 0,2 UV-I 126 W/m 4,6 C 3,9 C 14,5 km/h (3 Bft) 98,00 %
25.09.2018 08:46 7,2 C 16,7 C 7,2 C 84 % 1036,0 hPa 0,0 l/m 10,3 km/h (2 Bft) W 266 2 min 0,000 mm 0,5 UV-I 194 W/m 4,7 C 4,3 C 14,5 km/h (3 Bft) 98,00 %
25.09.2018 08:48 7,3 C 16,7 C 7,2 C 84 % 1036,0 hPa 0,0 l/m 9,6 km/h (2 Bft) W 261 2 min 0,000 mm 0,5 UV-I 278 W/m 4,8 C 4,9 C 19,3 km/h (3 Bft) 97,56 %
25.09.2018 08:50 7,3 C 16,7 C 7,2 C 83 % 1036,0 hPa 0,0 l/m 6,3 km/h (2 Bft) W-SW 250 2 min 0,000 mm 0,5 UV-I 279 W/m 4,6 C 7,3 C 14,5 km/h (3 Bft) 96,00 %
25.09.2018 08:52 7,4 C 16,7 C 7,2 C 82 % 1036,0 hPa 0,0 l/m 7,8 km/h (2 Bft) W-SW 257 2 min 0,000 mm 0,6 UV-I 283 W/m 4,5 C 6,3 C 12,9 km/h (3 Bft) 100,00 %
25.09.2018 08:54 7,7 C 16,7 C 7,2 C 83 % 1036,1 hPa 0,0 l/m 4,4 km/h (1 Bft) W 268 2 min 0,000 mm 0,6 UV-I 289 W/m 5,0 C 7,7 C 6,4 km/h (2 Bft) 96,61 %
25.09.2018 08:56 7,8 C 16,7 C 7,2 C 81 % 1036,0 hPa 0,0 l/m 7,8 km/h (2 Bft) W-SW 246 2 min 0,000 mm 0,6 UV-I 295 W/m 4,7 C 6,7 C 16,1 km/h (3 Bft) 97,73 %
25.09.2018 08:58 7,8 C 16,7 C 7,2 C 81 % 1036,1 hPa 0,0 l/m 8,3 km/h (2 Bft) W-SW 257 2 min 0,000 mm 0,6 UV-I 298 W/m 4,7 C 6,3 C 12,9 km/h (3 Bft) 97,87 %
25.09.2018 09:00 7,9 C 16,7 C 7,2 C 81 % 1036,1 hPa 0,0 l/m 6,0 km/h (2 Bft) W 280 2 min 0,076 mm 0,6 UV-I 303 W/m 4,8 C 7,9 C 11,3 km/h (2 Bft) 98,00 %
25.09.2018 09:02 8,1 C 16,7 C 7,2 C 80 % 1036,1 hPa 0,0 l/m 6,6 km/h (2 Bft) W-SW 242 2 min 0,000 mm 0,7 UV-I 308 W/m 4,9 C 8,0 C 17,7 km/h (3 Bft) 94,44 %
25.09.2018 09:04 8,1 C 16,7 C 7,8 C 79 % 1036,2 hPa 0,0 l/m 14,4 km/h (3 Bft) W 263 2 min 0,000 mm 0,7 UV-I 315 W/m 4,7 C 3,1 C 20,9 km/h (4 Bft) 92,68 %
25.09.2018 09:06 8,1 C 16,7 C 7,8 C 79 % 1036,3 hPa 0,0 l/m 9,0 km/h (2 Bft) W-SW 254 2 min 0,000 mm 0,7 UV-I 318 W/m 4,7 C 6,1 C 16,1 km/h (3 Bft) 96,61 %
25.09.2018 09:08 8,1 C 16,7 C 7,8 C 79 % 1036,3 hPa 0,0 l/m 9,9 km/h (2 Bft) W 263 2 min 0,000 mm 0,7 UV-I 323 W/m 4,7 C 5,6 C 12,9 km/h (3 Bft) 90,57 %
25.09.2018 09:10 8,1 C 16,7 C 7,8 C 78 % 1036,3 hPa 0,0 l/m 8,2 km/h (2 Bft) W 263 2 min 0,000 mm 0,7 UV-I 327 W/m 4,5 C 6,7 C 12,9 km/h (3 Bft) 96,88 %
25.09.2018 09:12 8,2 C 16,7 C 7,8 C 79 % 1036,4 hPa 0,0 l/m 6,9 km/h (2 Bft) W 265 2 min 0,000 mm 0,8 UV-I 333 W/m 4,8 C 7,8 C 12,9 km/h (3 Bft) 94,34 %
25.09.2018 09:14 8,3 C 16,7 C 7,8 C 78 % 1036,4 hPa 0,0 l/m 5,0 km/h (1 Bft) W-SW 241 2 min 0,000 mm 0,8 UV-I 337 W/m 4,7 C 8,3 C 8,0 km/h (2 Bft) 93,62 %
25.09.2018 09:16 8,4 C 16,7 C 7,8 C 77 % 1036,4 hPa 0,0 l/m 7,4 km/h (2 Bft) W 277 2 min 0,000 mm 0,8 UV-I 342 W/m 4,6 C 7,6 C 14,5 km/h (3 Bft) 93,62 %
25.09.2018 09:18 8,3 C 16,7 C 7,8 C 77 % 1036,4 hPa 0,0 l/m 7,1 km/h (2 Bft) W-NW 302 2 min 0,000 mm 0,8 UV-I 347 W/m 4,5 C 7,8 C 11,3 km/h (2 Bft) 94,34 %
25.09.2018 09:20 8,4 C 16,7 C 7,8 C 78 % 1036,4 hPa 0,0 l/m 5,9 km/h (2 Bft) W 272 2 min 0,000 mm 0,9 UV-I 353 W/m 4,8 C 8,4 C 11,3 km/h (2 Bft) 94,74 %
25.09.2018 09:22 8,3 C 16,7 C 8,3 C 76 % 1036,4 hPa 0,0 l/m 5,6 km/h (1 Bft) W-NW 288 2 min 0,000 mm 0,9 UV-I 359 W/m 4,3 C 8,3 C 11,3 km/h (2 Bft) 95,12 %
25.09.2018 09:24 8,4 C 16,7 C 8,3 C 77 % 1036,4 hPa 0,0 l/m 5,2 km/h (1 Bft) W 269 2 min 0,000 mm 0,9 UV-I 366 W/m 4,6 C 8,4 C 9,7 km/h (2 Bft) 96,00 %
25.09.2018 09:26 8,5 C 16,7 C 8,3 C 77 % 1036,4 hPa 0,0 l/m 5,6 km/h (1 Bft) W-NW 299 2 min 0,000 mm 0,9 UV-I 378 W/m 4,7 C 8,5 C 11,3 km/h (2 Bft) 96,00 %
25.09.2018 09:28 8,6 C 16,7 C 8,9 C 76 % 1036,4 hPa 0,0 l/m 5,5 km/h (1 Bft) W 266 2 min 0,000 mm 1,0 UV-I 377 W/m 4,6 C 8,6 C 9,7 km/h (2 Bft) 100,00 %
25.09.2018 09:30 8,4 C 16,7 C 8,9 C 75 % 1036,4 hPa 0,0 l/m 6,9 km/h (2 Bft) SW 235 2 min 0,000 mm 1,0 UV-I 387 W/m 4,2 C 8,0 C 12,9 km/h (3 Bft) 97,87 %
25.09.2018 09:32 8,5 C 16,7 C 8,9 C 74 % 1036,5 hPa 0,0 l/m 5,9 km/h (2 Bft) W-NW 290 2 min 0,000 mm 0,9 UV-I 360 W/m 4,1 C 8,5 C 11,3 km/h (2 Bft) 100,00 %
25.09.2018 09:34 8,6 C 16,7 C 8,9 C 75 % 1036,5 hPa 0,0 l/m 2,1 km/h (1 Bft) W-SW 242 2 min 0,000 mm 1,0 UV-I 416 W/m 4,4 C 8,6 C 4,8 km/h (1 Bft) 100,00 %
25.09.2018 09:36 8,7 C 16,7 C 9,4 C 75 % 1036,5 hPa 0,0 l/m 3,2 km/h (1 Bft) W 279 2 min 0,000 mm 1,1 UV-I 422 W/m 4,5 C 8,7 C 6,4 km/h (2 Bft) 100,00 %
25.09.2018 09:38 8,8 C 16,7 C 9,4 C 76 % 1036,5 hPa 0,0 l/m 6,5 km/h (2 Bft) W-SW 250 2 min 0,000 mm 1,1 UV-I 435 W/m 4,8 C 8,7 C 11,3 km/h (2 Bft) 100,00 %
25.09.2018 09:40 9,0 C 16,7 C 9,4 C 75 % 1036,5 hPa 0,0 l/m 5,9 km/h (2 Bft) W 265 2 min 0,000 mm 1,1 UV-I 443 W/m 4,8 C 9,0 C 9,7 km/h (2 Bft) 100,00 %
25.09.2018 09:42 9,1 C 16,7 C 10,0 C 73 % 1036,5 hPa 0,0 l/m 6,5 km/h (2 Bft) W-SW 246 2 min 0,000 mm 1,1 UV-I 453 W/m 4,5 C 9,1 C 12,9 km/h (3 Bft) 100,00 %
25.09.2018 09:44 9,0 C 16,7 C 10,0 C 74 % 1036,6 hPa 0,0 l/m 9,2 km/h (2 Bft) W-SW 248 2 min 0,000 mm 1,2 UV-I 456 W/m 4,6 C 7,0 C 16,1 km/h (3 Bft) 98,00 %
25.09.2018 09:46 9,1 C 16,7 C 10,6 C 75 % 1036,6 hPa 0,0 l/m 6,6 km/h (2 Bft) W-NW 298 2 min 0,000 mm 1,2 UV-I 475 W/m 4,9 C 9,0 C 12,9 km/h (3 Bft) 100,00 %
25.09.2018 09:48 9,1 C 16,7 C 11,1 C 75 % 1036,6 hPa 0,0 l/m 3,7 km/h (1 Bft) N-NW 346 2 min 0,000 mm 1,2 UV-I 495 W/m 4,9 C 9,1 C 6,4 km/h (2 Bft) 100,00 %
25.09.2018 09:50 9,3 C 16,7 C 12,2 C 74 % 1036,7 hPa 0,0 l/m 3,3 km/h (1 Bft) SW 232 2 min 0,000 mm 1,2 UV-I 509 W/m 4,9 C 9,3 C 6,4 km/h (2 Bft) 97,87 %
25.09.2018 09:52 9,4 C 16,7 C 12,8 C 71 % 1036,7 hPa 0,0 l/m 9,5 km/h (2 Bft) W 266 2 min 0,000 mm 1,3 UV-I 498 W/m 4,4 C 7,2 C 14,5 km/h (3 Bft) 100,00 %
25.09.2018 09:54 9,2 C 16,7 C 12,2 C 70 % 1036,7 hPa 0,0 l/m 7,7 km/h (2 Bft) W 278 2 min 0,000 mm 1,0 UV-I 273 W/m 4,0 C 8,2 C 12,9 km/h (3 Bft) 100,00 %
25.09.2018 09:56 8,9 C 16,7 C 11,7 C 70 % 1036,7 hPa 0,0 l/m 4,3 km/h (1 Bft) W-SW 252 0 min 0,000 mm 1,0 UV-I 101 W/m 3,7 C 8,9 C 8,0 km/h (2 Bft) 97,87 %
25.09.2018 09:58 8,8 C 16,7 C 11,1 C 71 % 1036,7 hPa 0,0 l/m 8,8 km/h (2 Bft) W 263 0 min 0,000 mm 1,0 UV-I 108 W/m 3,8 C 7,0 C 16,1 km/h (3 Bft) 100,00 %
25.09.2018 10:00 8,6 C 16,7 C 11,1 C 71 % 1036,7 hPa 0,0 l/m 9,2 km/h (2 Bft) W 268 0 min 0,178 mm 1,1 UV-I 131 W/m 3,6 C 6,6 C 14,5 km/h (3 Bft) 97,87 %
25.09.2018 10:02 8,7 C 16,7 C 13,3 C 72 % 1036,7 hPa 0,0 l/m 9,1 km/h (2 Bft) W-NW 286 2 min 0,000 mm 1,4 UV-I 405 W/m 3,9 C 6,7 C 17,7 km/h (3 Bft) 100,00 %
25.09.2018 10:04 8,9 C 16,7 C 15,6 C 70 % 1036,7 hPa 0,0 l/m 8,1 km/h (2 Bft) NW 316 2 min 0,000 mm 1,4 UV-I 534 W/m 3,7 C 7,6 C 14,5 km/h (3 Bft) 100,00 %
25.09.2018 10:06 9,1 C 16,7 C 16,1 C 68 % 1036,8 hPa 0,0 l/m 7,3 km/h (2 Bft) N-NW 344 2 min 0,000 mm 1,3 UV-I 524 W/m 3,5 C 8,4 C 14,5 km/h (3 Bft) 100,00 %
25.09.2018 10:08 9,0 C 16,7 C 14,4 C 68 % 1036,8 hPa 0,0 l/m 3,5 km/h (1 Bft) NW 305 0 min 0,000 mm 1,1 UV-I 153 W/m 3,4 C 9,0 C 8,0 km/h (2 Bft) 98,00 %
25.09.2018 10:10 9,1 C 16,7 C 13,3 C 69 % 1036,8 hPa 0,0 l/m 4,2 km/h (1 Bft) W-SW 243 0 min 0,000 mm 1,1 UV-I 157 W/m 3,7 C 9,1 C 9,7 km/h (2 Bft) 100,00 %
25.09.2018 10:12 9,0 C 16,7 C 12,8 C 68 % 1036,9 hPa 0,0 l/m 6,2 km/h (2 Bft) W-NW 290 0 min 0,000 mm 1,2 UV-I 171 W/m 3,4 C 9,0 C 9,7 km/h (2 Bft) 100,00 %
25.09.2018 10:14 8,9 C 16,7 C 15,0 C 68 % 1036,9 hPa 0,0 l/m 3,7 km/h (1 Bft) NW 311 2 min 0,000 mm 1,4 UV-I 332 W/m 3,3 C 8,9 C 6,4 km/h (2 Bft) 100,00 %
25.09.2018 10:16 9,2 C 16,7 C 17,2 C 69 % 1036,9 hPa 0,0 l/m 8,0 km/h (2 Bft) W-SW 246 2 min 0,000 mm 1,6 UV-I 586 W/m 3,8 C 8,0 C 17,7 km/h (3 Bft) 100,00 %
25.09.2018 10:19 9,4 C 16,7 C 18,3 C 68 % 1037,0 hPa 0,0 l/m 5,5 km/h (1 Bft) N-NW 336 3 min 0,000 mm 1,5 UV-I 427 W/m 3,8 C 9,4 C 14,5 km/h (3 Bft) 100,00 %
25.09.2018 10:20 9,5 C 16,7 C 18,9 C 69 % 1037,0 hPa 0,0 l/m 4,9 km/h (1 Bft) N-NW 327 1 min 0,000 mm 1,5 UV-I 555 W/m 4,1 C 9,5 C 8,0 km/h (2 Bft) 100,00 %
25.09.2018 10:22 9,5 C 16,7 C 16,1 C 68 % 1036,9 hPa 0,0 l/m 4,5 km/h (1 Bft) N-NW 335 0 min 0,000 mm 1,2 UV-I 188 W/m 3,9 C 9,5 C 8,0 km/h (2 Bft) 98,00 %
25.09.2018 10:24 9,3 C 16,7 C 16,7 C 67 % 1037,0 hPa 0,0 l/m 4,8 km/h (1 Bft) W-NW 283 0 min 0,000 mm 1,4 UV-I 222 W/m 3,5 C 9,3 C 9,7 km/h (2 Bft) 98,00 %
25.09.2018 10:26 9,3 C 16,7 C 18,3 C 68 % 1036,9 hPa 0,0 l/m 5,3 km/h (1 Bft) W 267 2 min 0,000 mm 1,7 UV-I 563 W/m 3,7 C 9,3 C 11,3 km/h (2 Bft) 97,56 %
25.09.2018 10:28 9,4 C 16,7 C 18,9 C 67 % 1036,9 hPa 0,0 l/m 6,7 km/h (2 Bft) W-NW 285 2 min 0,000 mm 1,6 UV-I 563 W/m 3,6 C 9,2 C 12,9 km/h (3 Bft) 98,21 %
25.09.2018 10:30 9,4 C 16,7 C 20,0 C 66 % 1037,0 hPa 0,0 l/m 5,8 km/h (2 Bft) W-SW 248 2 min 0,000 mm 1,8 UV-I 556 W/m 3,4 C 9,4 C 12,9 km/h (3 Bft) 97,37 %
25.09.2018 10:32 9,3 C 16,7 C 20,6 C 66 % 1037,0 hPa 0,0 l/m 8,7 km/h (2 Bft) W-SW 242 2 min 0,000 mm 1,8 UV-I 551 W/m 3,3 C 7,6 C 14,5 km/h (3 Bft) 95,74 %
25.09.2018 10:34 9,5 C 16,7 C 21,7 C 67 % 1037,0 hPa 0,0 l/m 4,0 km/h (1 Bft) NW 323 2 min 0,000 mm 1,8 UV-I 556 W/m 3,7 C 9,5 C 6,4 km/h (2 Bft) 95,74 %
25.09.2018 10:36 9,7 C 16,7 C 21,7 C 67 % 1037,0 hPa 0,0 l/m 7,2 km/h (2 Bft) N-NO 19 2 min 0,000 mm 1,9 UV-I 573 W/m 3,9 C 9,1 C 16,1 km/h (3 Bft) 91,43 %
25.09.2018 10:38 9,8 C 16,7 C 22,2 C 66 % 1037,0 hPa 0,0 l/m 5,9 km/h (2 Bft) NW 312 2 min 0,000 mm 1,9 UV-I 592 W/m 3,8 C 9,8 C 9,7 km/h (2 Bft) 95,38 %
25.09.2018 10:40 9,9 C 16,7 C 23,3 C 65 % 1037,0 hPa 0,0 l/m 5,0 km/h (1 Bft) N 355 2 min 0,000 mm 1,9 UV-I 611 W/m 3,6 C 9,9 C 11,3 km/h (2 Bft) 94,74 %
25.09.2018 10:42 10,2 C 16,7 C 23,9 C 66 % 1037,0 hPa 0,0 l/m 4,6 km/h (1 Bft) NW 304 2 min 0,000 mm 2,0 UV-I 645 W/m 4,1 C 10,2 C 9,7 km/h (2 Bft) 93,62 %
25.09.2018 10:44 10,1 C 16,7 C 20,6 C 64 % 1037,0 hPa 0,0 l/m 5,7 km/h (1 Bft) W-SW 242 2 min 0,000 mm 1,5 UV-I 514 W/m 3,6 C 10,1 C 9,7 km/h (2 Bft) 96,23 %
25.09.2018 10:46 9,9 C 16,7 C 21,1 C 64 % 1037,0 hPa 0,0 l/m 7,5 km/h (2 Bft) W 262 2 min 0,000 mm 2,0 UV-I 482 W/m 3,4 C 9,1 C 14,5 km/h (3 Bft) 98,00 %
25.09.2018 10:48 9,9 C 16,7 C 21,1 C 63 % 1037,1 hPa 0,0 l/m 8,3 km/h (2 Bft) W-NW 290 2 min 0,000 mm 1,9 UV-I 682 W/m 3,2 C 8,5 C 16,1 km/h (3 Bft) 95,74 %
25.09.2018 10:50 9,8 C 16,7 C 22,2 C 62 % 1037,1 hPa 0,0 l/m 4,5 km/h (1 Bft) N-NO 18 2 min 0,000 mm 1,9 UV-I 688 W/m 2,9 C 9,8 C 12,9 km/h (3 Bft) 97,14 %
25.09.2018 10:52 10,1 C 16,7 C 23,3 C 66 % 1037,1 hPa 0,0 l/m 6,1 km/h (2 Bft) SW 234 2 min 0,000 mm 2,1 UV-I 686 W/m 4,0 C 10,1 C 12,9 km/h (3 Bft) 98,00 %
25.09.2018 10:54 10,3 C 16,7 C 22,2 C 67 % 1037,1 hPa 0,0 l/m 6,4 km/h (2 Bft) N 9 2 min 0,000 mm 1,8 UV-I 660 W/m 4,4 C 10,3 C 12,9 km/h (3 Bft) 95,83 %
25.09.2018 10:56 10,4 C 16,7 C 22,8 C 65 % 1037,1 hPa 0,0 l/m 6,5 km/h (2 Bft) NW 324 2 min 0,000 mm 2,1 UV-I 682 W/m 4,1 C 10,4 C 9,7 km/h (2 Bft) 95,92 %
25.09.2018 10:58 10,3 C 16,7 C 20,6 C 61 % 1037,1 hPa 0,0 l/m 9,2 km/h (2 Bft) SW 223 2 min 0,000 mm 1,6 UV-I 642 W/m 3,1 C 8,4 C 17,7 km/h (3 Bft) 97,92 %
25.09.2018 11:00 10,1 C 16,7 C 18,9 C 62 % 1037,2 hPa 0,0 l/m 5,2 km/h (1 Bft) NW 315 0 min 0,000 mm 1,5 UV-I 208 W/m 3,2 C 10,1 C 9,7 km/h (2 Bft) 97,87 %
25.09.2018 11:02 10,0 C 16,7 C 21,1 C 64 % 1037,1 hPa 0,0 l/m 2,9 km/h (1 Bft) SW 217 2 min 0,228 mm 2,2 UV-I 604 W/m 3,5 C 10,0 C 4,8 km/h (1 Bft) 100,00 %
25.09.2018 11:04 10,3 C 16,7 C 22,2 C 63 % 1037,1 hPa 0,0 l/m 12,5 km/h (3 Bft) W 264 2 min 0,000 mm 1,9 UV-I 723 W/m 3,6 C 6,6 C 22,5 km/h (4 Bft) 100,00 %
25.09.2018 11:06 10,5 C 16,7 C 22,8 C 63 % 1037,2 hPa 0,0 l/m 8,0 km/h (2 Bft) NW 315 2 min 0,000 mm 2,0 UV-I 688 W/m 3,8 C 9,4 C 12,9 km/h (3 Bft) 98,11 %
25.09.2018 11:08 10,6 C 16,7 C 21,7 C 62 % 1037,2 hPa 0,0 l/m 4,0 km/h (1 Bft) W-SW 238 2 min 0,000 mm 1,7 UV-I 580 W/m 3,6 C 10,6 C 9,7 km/h (2 Bft) 97,87 %
25.09.2018 11:10 10,3 C 16,7 C 18,9 C 59 % 1037,1 hPa 0,0 l/m 4,1 km/h (1 Bft) W-NW 293 2 min 0,000 mm 1,5 UV-I 329 W/m 2,6 C 10,3 C 8,0 km/h (2 Bft) 100,00 %
25.09.2018 11:12 9,9 C 16,7 C 16,1 C 61 % 1037,1 hPa 0,0 l/m 4,7 km/h (1 Bft) N-NO 14 0 min 0,000 mm 1,6 UV-I 145 W/m 2,7 C 9,9 C 8,0 km/h (2 Bft) 100,00 %
25.09.2018 11:14 9,9 C 16,7 C 19,4 C 66 % 1037,1 hPa 0,0 l/m 3,7 km/h (1 Bft) N-NO 13 2 min 0,000 mm 2,4 UV-I 383 W/m 3,9 C 9,9 C 8,0 km/h (2 Bft) 98,00 %
25.09.2018 11:16 10,1 C 16,7 C 20,0 C 61 % 1037,1 hPa 0,0 l/m 5,2 km/h (1 Bft) O-NO 77 2 min 0,000 mm 2,1 UV-I 721 W/m 2,9 C 10,1 C 11,3 km/h (2 Bft) 100,00 %
25.09.2018 11:18 10,2 C 16,7 C 22,2 C 60 % 1037,1 hPa 0,0 l/m 3,3 km/h (1 Bft) N-NW 344 2 min 0,000 mm 2,4 UV-I 733 W/m 2,8 C 10,2 C 6,4 km/h (2 Bft) 100,00 %
25.09.2018 11:20 10,5 C 16,7 C 21,7 C 61 % 1037,1 hPa 0,0 l/m 5,1 km/h (1 Bft) NW 304 2 min 0,000 mm 2,2 UV-I 693 W/m 3,3 C 10,5 C 11,3 km/h (2 Bft) 100,00 %
25.09.2018 11:22 10,4 C 16,7 C 22,2 C 61 % 1037,1 hPa 0,0 l/m 7,7 km/h (2 Bft) W-NW 282 2 min 0,000 mm 2,2 UV-I 592 W/m 3,2 C 9,5 C 16,1 km/h (3 Bft) 100,00 %
25.09.2018 11:24 10,4 C 16,7 C 21,7 C 61 % 1037,1 hPa 0,0 l/m 9,2 km/h (2 Bft) NW 313 2 min 0,000 mm 2,0 UV-I 592 W/m 3,2 C 8,5 C 17,7 km/h (3 Bft) 100,00 %
25.09.2018 11:26 10,3 C 16,7 C 20,6 C 59 % 1037,1 hPa 0,0 l/m 8,2 km/h (2 Bft) W-NW 285 2 min 0,000 mm 2,2 UV-I 592 W/m 2,6 C 9,0 C 14,5 km/h (3 Bft) 95,74 %
25.09.2018 11:28 10,2 C 16,7 C 17,8 C 58 % 1037,2 hPa 0,0 l/m 7,0 km/h (2 Bft) NW 318 0 min 0,000 mm 1,6 UV-I 109 W/m 2,3 C 9,8 C 14,5 km/h (3 Bft) 97,87 %
25.09.2018 11:30 9,9 C 16,7 C 17,2 C 59 % 1037,3 hPa 0,0 l/m 7,3 km/h (2 Bft) N-NO 13 0 min 0,000 mm 2,1 UV-I 246 W/m 2,3 C 9,2 C 12,9 km/h (3 Bft) 100,00 %
25.09.2018 11:32 10,1 C 16,7 C 20,0 C 67 % 1037,2 hPa 0,0 l/m 4,3 km/h (1 Bft) N 5 2 min 0,000 mm 2,5 UV-I 656 W/m 4,3 C 10,1 C 11,3 km/h (2 Bft) 100,00 %
25.09.2018 11:34 10,5 C 16,7 C 22,2 C 62 % 1037,1 hPa 0,0 l/m 5,8 km/h (2 Bft) N 351 2 min 0,000 mm 2,6 UV-I 677 W/m 3,5 C 10,5 C 17,7 km/h (3 Bft) 100,00 %
25.09.2018 11:36 10,7 C 16,7 C 22,8 C 64 % 1037,2 hPa 0,0 l/m 9,9 km/h (2 Bft) N-NW 327 2 min 0,000 mm 2,6 UV-I 661 W/m 4,2 C 8,4 C 14,5 km/h (3 Bft) 100,00 %
25.09.2018 11:38 10,7 C 16,7 C 23,3 C 60 % 1037,1 hPa 0,0 l/m 4,5 km/h (1 Bft) N-NO 19 2 min 0,000 mm 2,6 UV-I 688 W/m 3,3 C 10,7 C 12,9 km/h (3 Bft) 97,87 %
25.09.2018 11:40 10,7 C 16,7 C 22,2 C 62 % 1037,1 hPa 0,0 l/m 6,0 km/h (2 Bft) N-NW 348 2 min 0,000 mm 2,1 UV-I 566 W/m 3,7 C 10,7 C 14,5 km/h (3 Bft) 97,87 %
25.09.2018 11:42 10,6 C 16,7 C 20,0 C 62 % 1037,1 hPa 0,0 l/m 6,2 km/h (2 Bft) NW 323 0 min 0,000 mm 2,2 UV-I 179 W/m 3,6 C 10,6 C 12,9 km/h (3 Bft) 98,00 %
25.09.2018 11:44 10,4 C 16,7 C 18,9 C 60 % 1037,1 hPa 0,0 l/m 7,2 km/h (2 Bft) NW 323 0 min 0,000 mm 2,0 UV-I 179 W/m 3,0 C 9,8 C 12,9 km/h (3 Bft) 95,74 %
25.09.2018 11:46 10,2 C 16,7 C 15,6 C 59 % 1037,1 hPa 0,0 l/m 5,4 km/h (1 Bft) NW 321 0 min 0,000 mm 1,5 UV-I 110 W/m 2,6 C 10,2 C 12,9 km/h (3 Bft) 98,00 %
25.09.2018 11:48 9,9 C 16,7 C 13,9 C 61 % 1037,2 hPa 0,0 l/m 4,2 km/h (1 Bft) N 355 0 min 0,000 mm 1,6 UV-I 95 W/m 2,7 C 9,9 C 12,9 km/h (3 Bft) 97,87 %
25.09.2018 11:50 9,8 C 16,7 C 15,0 C 61 % 1037,2 hPa 0,0 l/m 3,3 km/h (1 Bft) W-NW 298 0 min 0,000 mm 2,0 UV-I 137 W/m 2,6 C 9,8 C 6,4 km/h (2 Bft) 97,37 %
25.09.2018 11:52 9,9 C 16,7 C 18,3 C 65 % 1037,2 hPa 0,0 l/m 3,3 km/h (1 Bft) W-SW 244 2 min 0,000 mm 2,7 UV-I 657 W/m 3,6 C 9,9 C 8,0 km/h (2 Bft) 98,11 %
25.09.2018 11:54 10,2 C 16,7 C 20,0 C 61 % 1037,3 hPa 0,0 l/m 3,2 km/h (1 Bft) N-NW 346 2 min 0,000 mm 2,8 UV-I 660 W/m 3,0 C 10,2 C 8,0 km/h (2 Bft) 97,87 %
25.09.2018 11:56 10,4 C 16,7 C 22,2 C 62 % 1037,3 hPa 0,0 l/m 4,2 km/h (1 Bft) NW 315 2 min 0,000 mm 2,8 UV-I 667 W/m 3,4 C 10,4 C 6,4 km/h (2 Bft) 96,00 %
25.09.2018 11:58 10,7 C 16,7 C 23,3 C 57 % 1037,3 hPa 0,0 l/m 7,8 km/h (2 Bft) W 263 2 min 0,000 mm 2,8 UV-I 676 W/m 2,5 C 9,7 C 11,3 km/h (2 Bft) 97,87 %
25.09.2018 12:00 10,5 C 16,7 C 23,9 C 56 % 1037,3 hPa 0,0 l/m 5,1 km/h (1 Bft) N 350 2 min 0,000 mm 2,8 UV-I 697 W/m 2,1 C 10,5 C 12,9 km/h (3 Bft) 97,87 %
25.09.2018 12:02 10,6 C 16,7 C 22,2 C 59 % 1037,3 hPa 0,0 l/m 7,0 km/h (2 Bft) N-NW 329 2 min 0,254 mm 2,3 UV-I 719 W/m 2,9 C 10,2 C 17,7 km/h (3 Bft) 100,00 %
25.09.2018 12:04 10,5 C 16,7 C 21,1 C 59 % 1037,2 hPa 0,0 l/m 5,2 km/h (1 Bft) W-NW 286 0 min 0,000 mm 2,0 UV-I 221 W/m 2,8 C 10,5 C 11,3 km/h (2 Bft) 100,00 %
25.09.2018 12:06 10,6 C 16,7 C 21,1 C 61 % 1037,2 hPa 0,0 l/m 5,0 km/h (1 Bft) NW 304 0 min 0,000 mm 2,3 UV-I 227 W/m 3,4 C 10,6 C 12,9 km/h (3 Bft) 100,00 %
25.09.2018 12:08 10,7 C 16,7 C 19,4 C 59 % 1037,3 hPa 0,0 l/m 8,6 km/h (2 Bft) W-SW 250 0 min 0,000 mm 1,9 UV-I 226 W/m 3,0 C 9,2 C 16,1 km/h (3 Bft) 95,74 %
25.09.2018 12:10 10,6 C 16,7 C 17,8 C 60 % 1037,3 hPa 0,0 l/m 6,3 km/h (2 Bft) NW 310 0 min 0,000 mm 1,9 UV-I 208 W/m 3,2 C 10,6 C 12,9 km/h (3 Bft) 97,87 %
25.09.2018 12:12 10,3 C 16,7 C 15,6 C 61 % 1037,3 hPa 0,0 l/m 4,4 km/h (1 Bft) NW 320 0 min 0,000 mm 1,6 UV-I 135 W/m 3,1 C 10,3 C 11,3 km/h (2 Bft) 97,87 %
25.09.2018 12:14 10,2 C 16,7 C 14,4 C 60 % 1037,4 hPa 0,0 l/m 3,1 km/h (1 Bft) NW 311 0 min 0,000 mm 1,7 UV-I 97 W/m 2,8 C 10,2 C 6,4 km/h (2 Bft) 97,87 %
25.09.2018 12:16 10,0 C 16,7 C 15,6 C 59 % 1037,3 hPa 0,0 l/m 3,9 km/h (1 Bft) NW 305 0 min 0,000 mm 2,3 UV-I 116 W/m 2,4 C 10,0 C 8,0 km/h (2 Bft) 97,92 %
25.09.2018 12:18 10,2 C 16,7 C 18,9 C 64 % 1037,3 hPa 0,0 l/m 3,5 km/h (1 Bft) NW 305 0 min 0,000 mm 2,7 UV-I 309 W/m 3,7 C 10,2 C 6,4 km/h (2 Bft) 95,74 %
25.09.2018 12:20 10,5 C 16,7 C 21,1 C 61 % 1037,3 hPa 0,0 l/m 5,5 km/h (1 Bft) N-NW 328 2 min 0,000 mm 2,9 UV-I 677 W/m 3,3 C 10,5 C 9,7 km/h (2 Bft) 95,12 %
25.09.2018 12:22 10,7 C 16,7 C 22,8 C 59 % 1037,3 hPa 0,0 l/m 4,0 km/h (1 Bft) NW 315 2 min 0,000 mm 3,0 UV-I 682 W/m 3,0 C 10,7 C 9,7 km/h (2 Bft) 97,87 %
25.09.2018 12:24 11,0 C 16,7 C 23,9 C 57 % 1037,3 hPa 0,0 l/m 4,5 km/h (1 Bft) N-NO 17 2 min 0,000 mm 3,0 UV-I 693 W/m 2,8 C 11,0 C 8,0 km/h (2 Bft) 97,87 %
25.09.2018 12:26 11,3 C 16,7 C 23,9 C 60 % 1037,3 hPa 0,0 l/m 7,1 km/h (2 Bft) W 277 2 min 0,000 mm 3,0 UV-I 703 W/m 3,8 C 10,8 C 11,3 km/h (2 Bft) 93,62 %
25.09.2018 12:28 11,3 C 16,7 C 22,8 C 56 % 1037,3 hPa 0,0 l/m 5,0 km/h (1 Bft) W-SW 248 2 min 0,000 mm 2,4 UV-I 719 W/m 2,8 C 11,3 C 11,3 km/h (2 Bft) 96,00 %
25.09.2018 12:30 11,2 C 16,7 C 20,6 C 57 % 1037,3 hPa 0,0 l/m 6,4 km/h (2 Bft) W 262 2 min 0,000 mm 2,2 UV-I 719 W/m 3,0 C 11,2 C 12,9 km/h (3 Bft) 97,87 %
25.09.2018 12:32 11,1 C 16,7 C 21,1 C 56 % 1037,2 hPa 0,0 l/m 9,2 km/h (2 Bft) N-NO 15 2 min 0,000 mm 3,0 UV-I 715 W/m 2,7 C 9,3 C 17,7 km/h (3 Bft) 95,74 %
25.09.2018 12:34 11,2 C 16,7 C 22,2 C 57 % 1037,2 hPa 0,0 l/m 9,4 km/h (2 Bft) W 262 2 min 0,000 mm 3,0 UV-I 701 W/m 3,0 C 9,3 C 14,5 km/h (3 Bft) 97,37 %
25.09.2018 12:36 11,3 C 16,7 C 22,2 C 53 % 1037,3 hPa 0,0 l/m 13,7 km/h (3 Bft) NW 306 2 min 0,000 mm 3,0 UV-I 695 W/m 2,1 C 7,2 C 20,9 km/h (4 Bft) 100,00 %
25.09.2018 12:38 11,3 C 16,7 C 22,8 C 55 % 1037,2 hPa 0,0 l/m 12,8 km/h (3 Bft) W-SW 242 2 min 0,000 mm 3,0 UV-I 686 W/m 2,6 C 7,6 C 17,7 km/h (3 Bft) 100,00 %
25.09.2018 12:40 11,3 C 16,7 C 23,3 C 53 % 1037,3 hPa 0,0 l/m 7,0 km/h (2 Bft) W-NW 288 2 min 0,000 mm 3,0 UV-I 686 W/m 2,1 C 10,9 C 12,9 km/h (3 Bft) 97,87 %
25.09.2018 12:42 11,4 C 16,7 C 23,9 C 54 % 1037,2 hPa 0,0 l/m 10,2 km/h (2 Bft) W-NW 290 2 min 0,000 mm 3,0 UV-I 699 W/m 2,4 C 9,0 C 14,5 km/h (3 Bft) 100,00 %
25.09.2018 12:44 11,4 C 17,2 C 23,9 C 52 % 1037,2 hPa 0,0 l/m 6,4 km/h (2 Bft) NW 323 2 min 0,000 mm 3,0 UV-I 719 W/m 1,9 C 11,4 C 14,5 km/h (3 Bft) 100,00 %
25.09.2018 12:46 11,4 C 17,2 C 24,4 C 52 % 1037,2 hPa 0,0 l/m 4,2 km/h (1 Bft) SW 225 2 min 0,000 mm 3,1 UV-I 742 W/m 1,9 C 11,4 C 6,4 km/h (2 Bft) 100,00 %
25.09.2018 12:48 11,6 C 16,7 C 25,6 C 56 % 1037,1 hPa 0,0 l/m 2,6 km/h (1 Bft) W-NW 298 2 min 0,000 mm 3,1 UV-I 736 W/m 3,1 C 11,6 C 8,0 km/h (2 Bft) 97,62 %
25.09.2018 12:50 11,8 C 17,2 C 26,1 C 54 % 1037,1 hPa 0,0 l/m 5,6 km/h (1 Bft) W-SW 253 2 min 0,000 mm 3,1 UV-I 731 W/m 2,8 C 11,8 C 11,3 km/h (2 Bft) 100,00 %
25.09.2018 12:52 11,8 C 17,2 C 26,7 C 52 % 1037,0 hPa 0,0 l/m 4,8 km/h (1 Bft) W-SW 252 2 min 0,000 mm 3,1 UV-I 739 W/m 2,3 C 11,8 C 9,7 km/h (2 Bft) 98,00 %
25.09.2018 12:54 11,9 C 17,2 C 26,1 C 55 % 1037,1 hPa 0,0 l/m 7,2 km/h (2 Bft) W-NW 284 2 min 0,000 mm 3,1 UV-I 742 W/m 3,2 C 11,4 C 12,9 km/h (3 Bft) 100,00 %
25.09.2018 12:56 11,9 C 17,2 C 25,6 C 55 % 1037,1 hPa 0,0 l/m 7,0 km/h (2 Bft) W 264 2 min 0,000 mm 3,0 UV-I 737 W/m 3,2 C 11,5 C 12,9 km/h (3 Bft) 97,87 %
25.09.2018 12:58 11,8 C 17,2 C 23,9 C 55 % 1037,1 hPa 0,0 l/m 4,3 km/h (1 Bft) NW 311 2 min 0,000 mm 2,4 UV-I 687 W/m 3,1 C 11,8 C 6,4 km/h (2 Bft) 98,00 %
25.09.2018 13:00 11,6 C 17,2 C 24,4 C 53 % 1037,0 hPa 0,0 l/m 5,5 km/h (1 Bft) W 269 2 min 0,305 mm 3,0 UV-I 719 W/m 2,4 C 11,6 C 12,9 km/h (3 Bft) 94,74 %
25.09.2018 13:02 11,8 C 17,2 C 25,0 C 54 % 1037,1 hPa 0,0 l/m 3,8 km/h (1 Bft) W-NW 282 2 min 0,000 mm 3,0 UV-I 712 W/m 2,8 C 11,8 C 9,7 km/h (2 Bft) 97,87 %
25.09.2018 13:04 11,9 C 17,2 C 25,0 C 52 % 1037,0 hPa 0,0 l/m 4,6 km/h (1 Bft) N 9 2 min 0,000 mm 3,0 UV-I 699 W/m 2,4 C 11,9 C 9,7 km/h (2 Bft) 95,74 %
25.09.2018 13:06 11,9 C 17,2 C 25,6 C 51 % 1037,1 hPa 0,0 l/m 5,2 km/h (1 Bft) NW 324 2 min 0,000 mm 3,1 UV-I 690 W/m 2,1 C 11,9 C 8,0 km/h (2 Bft) 93,62 %
25.09.2018 13:08 11,7 C 17,2 C 25,0 C 51 % 1037,0 hPa 0,0 l/m 4,0 km/h (1 Bft) W-NW 292 2 min 0,000 mm 3,1 UV-I 677 W/m 1,9 C 11,7 C 8,0 km/h (2 Bft) 97,87 %
25.09.2018 13:10 11,8 C 17,2 C 23,9 C 52 % 1037,0 hPa 0,0 l/m 5,5 km/h (1 Bft) N-NW 336 2 min 0,000 mm 3,1 UV-I 672 W/m 2,3 C 11,8 C 8,0 km/h (2 Bft) 98,00 %
25.09.2018 13:12 11,9 C 17,2 C 23,9 C 53 % 1037,0 hPa 0,0 l/m 6,3 km/h (2 Bft) SW 234 2 min 0,000 mm 3,0 UV-I 674 W/m 2,6 C 11,9 C 12,9 km/h (3 Bft) 97,87 %
25.09.2018 13:14 11,9 C 17,2 C 23,9 C 51 % 1037,0 hPa 0,0 l/m 6,5 km/h (2 Bft) W 267 2 min 0,000 mm 3,0 UV-I 659 W/m 2,1 C 11,9 C 9,7 km/h (2 Bft) 95,74 %
25.09.2018 13:16 11,7 C 17,2 C 23,9 C 51 % 1037,0 hPa 0,0 l/m 5,9 km/h (2 Bft) W-NW 284 2 min 0,000 mm 3,0 UV-I 690 W/m 1,9 C 11,7 C 11,3 km/h (2 Bft) 93,62 %
25.09.2018 13:18 11,8 C 17,2 C 24,4 C 51 % 1037,0 hPa 0,0 l/m 3,8 km/h (1 Bft) W 259 2 min 0,000 mm 3,0 UV-I 690 W/m 2,0 C 11,8 C 12,9 km/h (3 Bft) 97,87 %
25.09.2018 13:20 11,8 C 17,2 C 24,4 C 50 % 1037,0 hPa 0,0 l/m 8,4 km/h (2 Bft) W-SW 239 2 min 0,000 mm 3,1 UV-I 702 W/m 1,7 C 10,5 C 17,7 km/h (3 Bft) 98,00 %
25.09.2018 13:22 11,9 C 17,2 C 25,0 C 56 % 1036,9 hPa 0,0 l/m 7,1 km/h (2 Bft) W-SW 252 2 min 0,000 mm 3,1 UV-I 719 W/m 3,4 C 11,4 C 14,5 km/h (3 Bft) 100,00 %
25.09.2018 13:24 12,0 C 17,2 C 25,0 C 49 % 1037,0 hPa 0,0 l/m 5,9 km/h (2 Bft) S 188 2 min 0,000 mm 3,1 UV-I 714 W/m 1,6 C 12,0 C 11,3 km/h (2 Bft) 100,00 %
25.09.2018 13:26 11,9 C 17,2 C 25,0 C 50 % 1036,9 hPa 0,0 l/m 4,1 km/h (1 Bft) N-NO 18 2 min 0,000 mm 3,0 UV-I 689 W/m 1,8 C 11,9 C 11,3 km/h (2 Bft) 100,00 %
25.09.2018 13:28 12,0 C 17,2 C 25,0 C 50 % 1037,0 hPa 0,0 l/m 4,8 km/h (1 Bft) N-NO 15 2 min 0,000 mm 3,0 UV-I 677 W/m 1,9 C 12,0 C 8,0 km/h (2 Bft) 100,00 %
25.09.2018 13:30 12,1 C 17,2 C 25,0 C 54 % 1036,9 hPa 0,0 l/m 6,5 km/h (2 Bft) N 355 2 min 0,000 mm 3,0 UV-I 672 W/m 3,1 C 12,1 C 11,3 km/h (2 Bft) 100,00 %
25.09.2018 13:32 12,3 C 17,2 C 25,0 C 52 % 1036,9 hPa 0,0 l/m 6,9 km/h (2 Bft) W-NW 282 2 min 0,000 mm 3,0 UV-I 670 W/m 2,7 C 12,0 C 11,3 km/h (2 Bft) 100,00 %
25.09.2018 13:34 12,3 C 17,2 C 25,0 C 49 % 1037,0 hPa 0,0 l/m 6,8 km/h (2 Bft) W-SW 242 2 min 0,000 mm 3,0 UV-I 687 W/m 1,9 C 12,0 C 12,9 km/h (3 Bft) 100,00 %
25.09.2018 13:36 12,3 C 17,2 C 25,0 C 49 % 1036,9 hPa 0,0 l/m 3,8 km/h (1 Bft) W 265 2 min 0,000 mm 2,7 UV-I 708 W/m 1,9 C 12,3 C 9,7 km/h (2 Bft) 100,00 %
25.09.2018 13:38 12,3 C 17,2 C 21,7 C 49 % 1036,9 hPa 0,0 l/m 4,7 km/h (1 Bft) N 5 0 min 0,000 mm 2,0 UV-I 337 W/m 1,9 C 12,3 C 12,9 km/h (3 Bft) 100,00 %
25.09.2018 13:40 11,9 C 17,2 C 18,9 C 49 % 1036,9 hPa 0,0 l/m 5,9 km/h (2 Bft) N 5 0 min 0,000 mm 2,1 UV-I 119 W/m 1,5 C 11,9 C 12,9 km/h (3 Bft) 100,00 %
25.09.2018 13:42 11,9 C 17,2 C 20,6 C 57 % 1036,9 hPa 0,0 l/m 8,5 km/h (2 Bft) N-NO 17 2 min 0,000 mm 2,9 UV-I 353 W/m 3,7 C 10,5 C 12,9 km/h (3 Bft) 100,00 %
25.09.2018 13:44 11,7 C 17,2 C 21,7 C 48 % 1036,9 hPa 0,0 l/m 5,0 km/h (1 Bft) NW 309 2 min 0,000 mm 2,9 UV-I 652 W/m 1,1 C 11,7 C 9,7 km/h (2 Bft) 97,56 %
25.09.2018 13:46 11,6 C 17,2 C 22,2 C 47 % 1036,9 hPa 0,0 l/m 6,4 km/h (2 Bft) N-NW 340 2 min 0,000 mm 2,9 UV-I 645 W/m 0,7 C 11,6 C 11,3 km/h (2 Bft) 97,87 %
25.09.2018 13:48 11,7 C 17,2 C 22,8 C 47 % 1036,8 hPa 0,0 l/m 4,1 km/h (1 Bft) N-NO 25 2 min 0,000 mm 2,8 UV-I 638 W/m 0,8 C 11,7 C 8,0 km/h (2 Bft) 97,87 %
25.09.2018 13:50 11,9 C 17,2 C 23,3 C 54 % 1036,8 hPa 0,0 l/m 8,5 km/h (2 Bft) W-SW 252 2 min 0,000 mm 2,8 UV-I 637 W/m 2,9 C 10,5 C 16,1 km/h (3 Bft) 95,74 %
25.09.2018 13:52 12,0 C 17,2 C 23,3 C 49 % 1036,9 hPa 0,0 l/m 10,1 km/h (2 Bft) W-NW 294 2 min 0,000 mm 2,8 UV-I 636 W/m 1,6 C 9,8 C 16,1 km/h (3 Bft) 95,74 %
25.09.2018 13:54 12,1 C 17,2 C 23,9 C 47 % 1036,9 hPa 0,0 l/m 3,8 km/h (1 Bft) SW 234 2 min 0,000 mm 2,8 UV-I 632 W/m 1,1 C 12,1 C 6,4 km/h (2 Bft) 95,74 %
25.09.2018 13:56 12,3 C 17,2 C 23,3 C 45 % 1036,9 hPa 0,0 l/m 11,2 km/h (2 Bft) SW 217 2 min 0,000 mm 2,8 UV-I 633 W/m 0,7 C 9,5 C 20,9 km/h (4 Bft) 97,87 %
25.09.2018 13:58 12,3 C 17,2 C 23,3 C 47 % 1036,9 hPa 0,0 l/m 9,6 km/h (2 Bft) W-NW 284 2 min 0,000 mm 2,8 UV-I 631 W/m 1,3 C 10,3 C 14,5 km/h (3 Bft) 95,74 %
25.09.2018 14:00 12,4 C 17,2 C 23,3 C 47 % 1036,8 hPa 0,0 l/m 7,7 km/h (2 Bft) SW 235 2 min 0,330 mm 2,7 UV-I 627 W/m 1,4 C 11,6 C 11,3 km/h (2 Bft) 95,74 %
25.09.2018 14:02 12,4 C 17,2 C 23,3 C 47 % 1036,9 hPa 0,0 l/m 14,6 km/h (3 Bft) W-SW 237 2 min 0,000 mm 2,7 UV-I 623 W/m 1,4 C 8,2 C 17,7 km/h (3 Bft) 95,74 %
25.09.2018 14:04 12,3 C 17,2 C 23,3 C 46 % 1036,8 hPa 0,0 l/m 10,2 km/h (2 Bft) W 259 2 min 0,000 mm 2,7 UV-I 618 W/m 1,0 C 10,0 C 17,7 km/h (3 Bft) 97,87 %
25.09.2018 14:06 12,3 C 17,2 C 23,3 C 44 % 1036,7 hPa 0,0 l/m 11,1 km/h (2 Bft) W-SW 246 2 min 0,000 mm 2,7 UV-I 619 W/m 0,4 C 9,6 C 20,9 km/h (4 Bft) 97,87 %
25.09.2018 14:08 12,3 C 17,2 C 23,3 C 47 % 1036,7 hPa 0,0 l/m 9,8 km/h (2 Bft) W-SW 243 2 min 0,000 mm 2,7 UV-I 617 W/m 1,3 C 10,2 C 14,5 km/h (3 Bft) 95,83 %
25.09.2018 14:10 12,4 C 17,2 C 22,8 C 47 % 1036,7 hPa 0,0 l/m 11,7 km/h (2 Bft) W 276 2 min 0,000 mm 2,6 UV-I 611 W/m 1,4 C 9,4 C 17,7 km/h (3 Bft) 93,62 %
25.09.2018 14:12 12,6 C 17,2 C 22,8 C 46 % 1036,7 hPa 0,0 l/m 6,1 km/h (2 Bft) W-SW 256 2 min 0,000 mm 2,6 UV-I 608 W/m 1,3 C 12,6 C 14,5 km/h (3 Bft) 97,37 %
25.09.2018 14:14 12,6 C 17,2 C 22,8 C 45 % 1036,7 hPa 0,0 l/m 16,1 km/h (3 Bft) W 270 2 min 0,000 mm 2,6 UV-I 606 W/m 1,0 C 7,9 C 22,5 km/h (4 Bft) 94,00 %
25.09.2018 14:16 12,5 C 17,2 C 22,2 C 45 % 1036,7 hPa 0,0 l/m 14,3 km/h (3 Bft) W 265 2 min 0,000 mm 2,6 UV-I 604 W/m 0,9 C 8,4 C 20,9 km/h (4 Bft) 93,62 %
25.09.2018 14:18 12,4 C 17,2 C 22,2 C 43 % 1036,6 hPa 0,0 l/m 12,2 km/h (2 Bft) W 261 2 min 0,000 mm 2,5 UV-I 599 W/m 0,2 C 9,2 C 19,3 km/h (3 Bft) 96,00 %
25.09.2018 14:20 12,4 C 17,2 C 21,7 C 45 % 1036,6 hPa 0,0 l/m 10,2 km/h (2 Bft) W-SW 239 2 min 0,000 mm 2,5 UV-I 594 W/m 0,8 C 10,1 C 17,7 km/h (3 Bft) 97,56 %
25.09.2018 14:22 12,5 C 17,2 C 22,2 C 45 % 1036,6 hPa 0,0 l/m 8,8 km/h (2 Bft) W 265 2 min 0,000 mm 2,5 UV-I 594 W/m 0,9 C 11,0 C 16,1 km/h (3 Bft) 98,11 %
25.09.2018 14:24 12,5 C 17,2 C 22,2 C 42 % 1036,6 hPa 0,0 l/m 10,8 km/h (2 Bft) W-SW 257 2 min 0,000 mm 2,5 UV-I 593 W/m -0,1 C 10,0 C 20,9 km/h (4 Bft) 97,87 %
25.09.2018 14:26 12,6 C 17,2 C 22,2 C 42 % 1036,7 hPa 0,0 l/m 13,2 km/h (3 Bft) SW 225 2 min 0,000 mm 2,5 UV-I 591 W/m 0,0 C 9,0 C 17,7 km/h (3 Bft) 98,00 %
25.09.2018 14:28 12,6 C 17,2 C 22,2 C 43 % 1036,6 hPa 0,0 l/m 14,5 km/h (3 Bft) W 267 2 min 0,000 mm 2,4 UV-I 585 W/m 0,4 C 8,5 C 20,9 km/h (4 Bft) 97,56 %
25.09.2018 14:30 12,8 C 17,2 C 22,2 C 44 % 1036,6 hPa 0,0 l/m 6,9 km/h (2 Bft) W-SW 244 2 min 0,000 mm 2,4 UV-I 579 W/m 0,9 C 12,5 C 11,3 km/h (2 Bft) 97,87 %
25.09.2018 14:32 12,7 C 17,2 C 22,2 C 43 % 1036,6 hPa 0,0 l/m 9,1 km/h (2 Bft) W 263 2 min 0,000 mm 2,4 UV-I 577 W/m 0,5 C 11,1 C 12,9 km/h (3 Bft) 97,87 %
25.09.2018 14:34 12,6 C 17,2 C 22,2 C 42 % 1036,5 hPa 0,0 l/m 5,0 km/h (1 Bft) W-NW 284 2 min 0,000 mm 2,3 UV-I 575 W/m 0,0 C 12,6 C 9,7 km/h (2 Bft) 97,87 %
25.09.2018 14:36 12,3 C 17,2 C 22,2 C 42 % 1036,5 hPa 0,0 l/m 4,1 km/h (1 Bft) S-SW 204 2 min 0,000 mm 2,3 UV-I 573 W/m -0,2 C 12,3 C 11,3 km/h (2 Bft) 97,87 %
25.09.2018 14:39 12,4 C 17,2 C 21,7 C 45 % 1036,6 hPa 0,0 l/m 8,8 km/h (2 Bft) W-SW 254 3 min 0,000 mm 2,3 UV-I 574 W/m 0,8 C 10,9 C 17,7 km/h (3 Bft) 97,18 %
25.09.2018 14:40 12,5 C 17,2 C 21,1 C 45 % 1036,6 hPa 0,0 l/m 5,3 km/h (1 Bft) SW 215 1 min 0,000 mm 2,3 UV-I 575 W/m 0,9 C 12,5 C 8,0 km/h (2 Bft) 100,00 %
25.09.2018 14:42 12,8 C 17,2 C 20,6 C 44 % 1036,6 hPa 0,0 l/m 9,8 km/h (2 Bft) W-SW 258 2 min 0,000 mm 2,3 UV-I 570 W/m 0,9 C 10,8 C 16,1 km/h (3 Bft) 100,00 %
25.09.2018 14:44 12,7 C 17,2 C 20,0 C 43 % 1036,6 hPa 0,0 l/m 8,2 km/h (2 Bft) W-NW 286 2 min 0,000 mm 2,2 UV-I 567 W/m 0,5 C 11,6 C 16,1 km/h (3 Bft) 100,00 %
25.09.2018 14:46 12,4 C 17,2 C 19,4 C 43 % 1036,6 hPa 0,0 l/m 4,1 km/h (1 Bft) W-SW 250 2 min 0,000 mm 2,2 UV-I 563 W/m 0,2 C 12,4 C 11,3 km/h (2 Bft) 95,74 %
25.09.2018 14:48 12,4 C 17,2 C 19,4 C 44 % 1036,6 hPa 0,0 l/m 10,2 km/h (2 Bft) W-SW 258 2 min 0,000 mm 2,2 UV-I 561 W/m 0,5 C 10,1 C 12,9 km/h (3 Bft) 100,00 %
25.09.2018 14:50 12,6 C 17,2 C 20,0 C 45 % 1036,6 hPa 0,0 l/m 12,5 km/h (3 Bft) W-SW 237 2 min 0,000 mm 2,2 UV-I 555 W/m 1,0 C 9,3 C 19,3 km/h (3 Bft) 100,00 %
25.09.2018 14:52 12,6 C 17,2 C 20,0 C 45 % 1036,6 hPa 0,0 l/m 8,9 km/h (2 Bft) SW 236 2 min 0,000 mm 2,1 UV-I 552 W/m 1,0 C 11,1 C 14,5 km/h (3 Bft) 100,00 %
25.09.2018 14:54 12,6 C 17,2 C 20,6 C 46 % 1036,6 hPa 0,0 l/m 8,9 km/h (2 Bft) NW 305 2 min 0,000 mm 2,1 UV-I 554 W/m 1,3 C 11,1 C 14,5 km/h (3 Bft) 100,00 %
25.09.2018 14:56 12,6 C 17,2 C 21,1 C 45 % 1036,6 hPa 0,0 l/m 6,4 km/h (2 Bft) N-NW 330 2 min 0,000 mm 2,1 UV-I 550 W/m 1,0 C 12,6 C 11,3 km/h (2 Bft) 100,00 %
25.09.2018 14:58 12,7 C 17,2 C 20,6 C 46 % 1036,6 hPa 0,0 l/m 8,1 km/h (2 Bft) W 281 2 min 0,000 mm 2,1 UV-I 544 W/m 1,4 C 11,6 C 17,7 km/h (3 Bft) 100,00 %
25.09.2018 15:00 12,7 C 17,2 C 20,0 C 45 % 1036,6 hPa 0,0 l/m 12,2 km/h (2 Bft) W-SW 254 2 min 0,000 mm 2,0 UV-I 536 W/m 1,1 C 9,5 C 17,7 km/h (3 Bft) 100,00 %
25.09.2018 15:02 12,7 C 17,2 C 20,0 C 45 % 1036,6 hPa 0,0 l/m 6,0 km/h (2 Bft) SW 228 2 min 0,356 mm 2,0 UV-I 534 W/m 1,1 C 12,7 C 17,7 km/h (3 Bft) 97,87 %
25.09.2018 15:04 12,7 C 17,2 C 19,4 C 44 % 1036,6 hPa 0,0 l/m 9,5 km/h (2 Bft) W 272 2 min 0,000 mm 2,0 UV-I 533 W/m 0,8 C 10,8 C 14,5 km/h (3 Bft) 100,00 %
25.09.2018 15:06 12,9 C 17,2 C 20,6 C 43 % 1036,5 hPa 0,0 l/m 8,2 km/h (2 Bft) W 271 2 min 0,000 mm 2,0 UV-I 531 W/m 0,6 C 11,8 C 12,9 km/h (3 Bft) 97,87 %
25.09.2018 15:08 13,0 C 17,2 C 20,6 C 43 % 1036,5 hPa 0,0 l/m 11,1 km/h (2 Bft) SW 218 2 min 0,000 mm 1,9 UV-I 527 W/m 0,7 C 10,4 C 17,7 km/h (3 Bft) 100,00 %
25.09.2018 15:10 13,1 C 17,2 C 20,0 C 43 % 1036,6 hPa 0,0 l/m 14,4 km/h (3 Bft) W-SW 246 2 min 0,000 mm 1,9 UV-I 521 W/m 0,8 C 9,1 C 22,5 km/h (4 Bft) 100,00 %
25.09.2018 15:12 12,9 C 17,2 C 18,9 C 44 % 1036,5 hPa 0,0 l/m 10,5 km/h (2 Bft) W-SW 238 2 min 0,000 mm 1,9 UV-I 519 W/m 1,0 C 10,5 C 19,3 km/h (3 Bft) 100,00 %
25.09.2018 15:14 12,9 C 17,2 C 18,9 C 45 % 1036,5 hPa 0,0 l/m 15,3 km/h (3 Bft) W 262 2 min 0,000 mm 1,9 UV-I 516 W/m 1,3 C 8,5 C 22,5 km/h (4 Bft) 97,87 %
25.09.2018 15:16 12,9 C 17,2 C 18,9 C 44 % 1036,5 hPa 0,0 l/m 12,7 km/h (3 Bft) SW 217 2 min 0,000 mm 1,8 UV-I 510 W/m 1,0 C 9,6 C 16,1 km/h (3 Bft) 100,00 %
25.09.2018 15:18 12,9 C 17,8 C 18,9 C 45 % 1036,5 hPa 0,0 l/m 11,9 km/h (2 Bft) W-SW 242 2 min 0,000 mm 1,8 UV-I 501 W/m 1,3 C 9,9 C 19,3 km/h (3 Bft) 97,22 %
25.09.2018 15:20 13,0 C 17,2 C 18,3 C 46 % 1036,4 hPa 0,0 l/m 12,8 km/h (3 Bft) S 188 2 min 0,000 mm 1,8 UV-I 496 W/m 1,7 C 9,6 C 16,1 km/h (3 Bft) 97,96 %
25.09.2018 15:22 13,1 C 17,8 C 17,8 C 45 % 1036,5 hPa 0,0 l/m 12,7 km/h (3 Bft) W-SW 244 2 min 0,000 mm 1,7 UV-I 491 W/m 1,4 C 9,8 C 19,3 km/h (3 Bft) 100,00 %
25.09.2018 15:24 13,0 C 17,8 C 16,7 C 44 % 1036,5 hPa 0,0 l/m 14,2 km/h (3 Bft) W-NW 294 2 min 0,000 mm 1,7 UV-I 487 W/m 1,0 C 9,1 C 22,5 km/h (4 Bft) 100,00 %
25.09.2018 15:26 12,9 C 17,8 C 16,1 C 45 % 1036,5 hPa 0,0 l/m 6,5 km/h (2 Bft) W 280 2 min 0,000 mm 1,7 UV-I 482 W/m 1,3 C 12,9 C 14,5 km/h (3 Bft) 95,74 %
25.09.2018 15:28 12,9 C 17,8 C 15,6 C 44 % 1036,4 hPa 0,0 l/m 14,3 km/h (3 Bft) W-SW 252 2 min 0,000 mm 1,7 UV-I 481 W/m 1,0 C 8,9 C 22,5 km/h (4 Bft) 97,87 %
25.09.2018 15:30 12,7 C 17,8 C 15,0 C 42 % 1036,5 hPa 0,0 l/m 14,3 km/h (3 Bft) W 262 2 min 0,000 mm 1,6 UV-I 479 W/m 0,1 C 8,7 C 22,5 km/h (4 Bft) 97,87 %
25.09.2018 15:32 12,7 C 17,8 C 14,4 C 41 % 1036,5 hPa 0,0 l/m 9,9 km/h (2 Bft) SW 235 2 min 0,000 mm 1,6 UV-I 475 W/m -0,2 C 10,6 C 16,1 km/h (3 Bft) 98,00 %
25.09.2018 15:34 12,6 C 17,8 C 13,9 C 42 % 1036,5 hPa 0,0 l/m 9,6 km/h (2 Bft) W-SW 247 2 min 0,000 mm 1,6 UV-I 471 W/m 0,0 C 10,7 C 17,7 km/h (3 Bft) 91,49 %
25.09.2018 15:36 12,7 C 17,8 C 13,9 C 43 % 1036,5 hPa 0,0 l/m 10,0 km/h (2 Bft) W-SW 254 2 min 0,000 mm 1,5 UV-I 463 W/m 0,5 C 10,6 C 14,5 km/h (3 Bft) 100,00 %
25.09.2018 15:38 12,9 C 17,8 C 13,9 C 41 % 1036,5 hPa 0,0 l/m 7,4 km/h (2 Bft) W 266 2 min 0,000 mm 1,5 UV-I 458 W/m -0,0 C 12,3 C 11,3 km/h (2 Bft) 93,62 %
25.09.2018 15:40 13,1 C 17,8 C 13,3 C 41 % 1036,5 hPa 0,0 l/m 8,3 km/h (2 Bft) S-SW 196 2 min 0,000 mm 1,5 UV-I 456 W/m 0,2 C 11,9 C 14,5 km/h (3 Bft) 95,74 %
25.09.2018 15:42 13,1 C 17,8 C 13,3 C 41 % 1036,5 hPa 0,0 l/m 12,4 km/h (3 Bft) SW 227 2 min 0,000 mm 1,5 UV-I 452 W/m 0,2 C 9,9 C 16,1 km/h (3 Bft) 93,62 %
25.09.2018 15:44 13,1 C 17,8 C 13,3 C 42 % 1036,4 hPa 0,0 l/m 8,3 km/h (2 Bft) W 274 2 min 0,000 mm 1,4 UV-I 449 W/m 0,5 C 11,9 C 20,9 km/h (4 Bft) 95,74 %
25.09.2018 15:46 13,1 C 17,8 C 13,3 C 42 % 1036,4 hPa 0,0 l/m 4,2 km/h (1 Bft) S-SW 205 2 min 0,000 mm 1,4 UV-I 445 W/m 0,5 C 13,1 C 8,0 km/h (2 Bft) 93,62 %
25.09.2018 15:48 13,2 C 17,8 C 13,3 C 41 % 1036,5 hPa 0,0 l/m 7,7 km/h (2 Bft) W 273 2 min 0,000 mm 1,4 UV-I 441 W/m 0,2 C 12,4 C 14,5 km/h (3 Bft) 96,00 %
25.09.2018 15:50 13,0 C 17,8 C 12,8 C 38 % 1036,4 hPa 0,0 l/m 12,4 km/h (3 Bft) W 277 2 min 0,000 mm 1,4 UV-I 435 W/m -1,0 C 9,8 C 22,5 km/h (4 Bft) 95,74 %
25.09.2018 15:52 12,9 C 17,8 C 12,8 C 39 % 1036,4 hPa 0,0 l/m 8,5 km/h (2 Bft) W-SW 254 2 min 0,000 mm 1,3 UV-I 431 W/m -0,7 C 11,6 C 16,1 km/h (3 Bft) 94,00 %
25.09.2018 15:54 12,9 C 17,8 C 12,8 C 37 % 1036,4 hPa 0,0 l/m 11,4 km/h (2 Bft) W 279 2 min 0,000 mm 1,3 UV-I 427 W/m -1,4 C 10,1 C 20,9 km/h (4 Bft) 97,22 %
25.09.2018 15:56 12,9 C 17,8 C 12,8 C 37 % 1036,4 hPa 0,0 l/m 8,9 km/h (2 Bft) S-SW 208 2 min 0,000 mm 1,3 UV-I 422 W/m -1,4 C 11,4 C 19,3 km/h (3 Bft) 92,00 %
25.09.2018 15:59 12,9 C 17,8 C 12,2 C 36 % 1036,4 hPa 0,0 l/m 9,1 km/h (2 Bft) SW 231 3 min 0,000 mm 1,3 UV-I 417 W/m -1,8 C 11,3 C 17,7 km/h (3 Bft) 96,05 %
25.09.2018 16:00 12,9 C 17,8 C 12,2 C 36 % 1036,4 hPa 0,0 l/m 6,7 km/h (2 Bft) W-SW 243 1 min 0,000 mm 1,2 UV-I 412 W/m -1,8 C 12,7 C 11,3 km/h (2 Bft) 100,00 %
25.09.2018 16:02 12,7 C 17,8 C 12,2 C 37 % 1036,4 hPa 0,0 l/m 4,7 km/h (1 Bft) W-NW 294 2 min 0,305 mm 1,2 UV-I 409 W/m -1,6 C 12,7 C 6,4 km/h (2 Bft) 97,62 %
25.09.2018 16:04 12,8 C 17,8 C 12,2 C 40 % 1036,4 hPa 0,0 l/m 7,6 km/h (2 Bft) W-SW 256 2 min 0,000 mm 1,2 UV-I 403 W/m -0,5 C 12,0 C 17,7 km/h (3 Bft) 100,00 %
25.09.2018 16:06 12,8 C 17,8 C 12,2 C 40 % 1036,4 hPa 0,0 l/m 12,1 km/h (2 Bft) W-NW 286 2 min 0,000 mm 1,2 UV-I 402 W/m -0,5 C 9,7 C 16,1 km/h (3 Bft) 100,00 %
25.09.2018 16:08 12,8 C 17,8 C 12,2 C 40 % 1036,4 hPa 0,0 l/m 5,6 km/h (1 Bft) W-SW 244 2 min 0,000 mm 1,1 UV-I 396 W/m -0,5 C 12,8 C 11,3 km/h (2 Bft) 98,00 %
25.09.2018 16:10 12,7 C 17,8 C 12,2 C 41 % 1036,4 hPa 0,0 l/m 7,7 km/h (2 Bft) W-SW 251 2 min 0,000 mm 1,1 UV-I 391 W/m -0,2 C 11,9 C 17,7 km/h (3 Bft) 100,00 %
25.09.2018 16:12 12,7 C 17,8 C 12,2 C 40 % 1036,4 hPa 0,0 l/m 6,9 km/h (2 Bft) W 261 2 min 0,000 mm 1,1 UV-I 386 W/m -0,5 C 12,4 C 11,3 km/h (2 Bft) 97,87 %
25.09.2018 16:14 12,8 C 17,8 C 12,2 C 42 % 1036,4 hPa 0,0 l/m 5,1 km/h (1 Bft) W 271 2 min 0,000 mm 1,1 UV-I 376 W/m 0,2 C 12,8 C 11,3 km/h (2 Bft) 94,00 %
25.09.2018 16:16 12,8 C 17,8 C 12,2 C 40 % 1036,4 hPa 0,0 l/m 7,9 km/h (2 Bft) W 261 2 min 0,000 mm 1,0 UV-I 369 W/m -0,5 C 11,9 C 12,9 km/h (3 Bft) 100,00 %
25.09.2018 16:18 12,9 C 17,8 C 12,2 C 41 % 1036,4 hPa 0,0 l/m 7,6 km/h (2 Bft) N 355 2 min 0,000 mm 1,0 UV-I 366 W/m -0,0 C 12,1 C 11,3 km/h (2 Bft) 97,87 %
25.09.2018 16:20 12,9 C 17,8 C 12,2 C 41 % 1036,4 hPa 0,0 l/m 11,2 km/h (2 Bft) W-NW 286 2 min 0,000 mm 1,0 UV-I 361 W/m -0,0 C 10,2 C 16,1 km/h (3 Bft) 97,87 %
25.09.2018 16:22 12,8 C 17,8 C 12,2 C 41 % 1036,3 hPa 0,0 l/m 9,8 km/h (2 Bft) W-SW 246 2 min 0,000 mm 1,0 UV-I 355 W/m -0,1 C 10,8 C 17,7 km/h (3 Bft) 100,00 %
25.09.2018 16:24 12,8 C 17,8 C 12,2 C 44 % 1036,4 hPa 0,0 l/m 5,6 km/h (1 Bft) W-NW 288 2 min 0,000 mm 0,9 UV-I 352 W/m 0,9 C 12,8 C 12,9 km/h (3 Bft) 100,00 %
25.09.2018 16:26 12,8 C 17,8 C 12,2 C 41 % 1036,4 hPa 0,0 l/m 6,9 km/h (2 Bft) W-NW 292 2 min 0,000 mm 0,9 UV-I 346 W/m -0,1 C 12,5 C 16,1 km/h (3 Bft) 100,00 %
25.09.2018 16:28 12,7 C 17,8 C 12,2 C 40 % 1036,4 hPa 0,0 l/m 4,0 km/h (1 Bft) W 276 2 min 0,000 mm 0,9 UV-I 341 W/m -0,5 C 12,7 C 8,0 km/h (2 Bft) 100,00 %
25.09.2018 16:30 12,7 C 17,8 C 11,7 C 41 % 1036,4 hPa 0,0 l/m 7,4 km/h (2 Bft) NW 323 2 min 0,000 mm 0,9 UV-I 338 W/m -0,2 C 12,1 C 14,5 km/h (3 Bft) 97,87 %
25.09.2018 16:32 12,7 C 17,8 C 11,7 C 42 % 1036,4 hPa 0,0 l/m 6,8 km/h (2 Bft) NW 316 2 min 0,000 mm 0,9 UV-I 334 W/m 0,1 C 12,5 C 12,9 km/h (3 Bft) 98,00 %
25.09.2018 16:34 12,7 C 17,8 C 11,7 C 39 % 1036,4 hPa 0,0 l/m 8,5 km/h (2 Bft) W-SW 254 2 min 0,000 mm 0,8 UV-I 330 W/m -0,9 C 11,4 C 12,9 km/h (3 Bft) 95,74 %
25.09.2018 16:36 12,7 C 17,8 C 11,7 C 39 % 1036,5 hPa 0,0 l/m 7,5 km/h (2 Bft) W-SW 245 2 min 0,000 mm 0,8 UV-I 326 W/m -0,9 C 12,0 C 12,9 km/h (3 Bft) 100,00 %
25.09.2018 16:38 12,7 C 17,8 C 11,7 C 41 % 1036,4 hPa 0,0 l/m 4,8 km/h (1 Bft) W 259 2 min 0,000 mm 0,8 UV-I 320 W/m -0,2 C 12,7 C 6,4 km/h (2 Bft) 100,00 %
25.09.2018 16:40 12,7 C 17,8 C 11,7 C 39 % 1036,4 hPa 0,0 l/m 5,4 km/h (1 Bft) W-SW 247 2 min 0,000 mm 0,8 UV-I 314 W/m -0,9 C 12,7 C 9,7 km/h (2 Bft) 100,00 %
25.09.2018 16:42 12,7 C 17,8 C 11,7 C 40 % 1036,4 hPa 0,0 l/m 4,3 km/h (1 Bft) W-SW 253 2 min 0,000 mm 0,7 UV-I 309 W/m -0,5 C 12,7 C 6,4 km/h (2 Bft) 100,00 %
25.09.2018 16:44 12,8 C 17,8 C 11,7 C 43 % 1036,4 hPa 0,0 l/m 4,3 km/h (1 Bft) W-SW 253 2 min 0,000 mm 0,7 UV-I 303 W/m 0,5 C 12,8 C 6,4 km/h (2 Bft) 100,00 %
25.09.2018 16:46 13,0 C 17,8 C 11,7 C 41 % 1036,4 hPa 0,0 l/m 9,7 km/h (2 Bft) W-NW 283 2 min 0,000 mm 0,7 UV-I 297 W/m 0,1 C 11,1 C 14,5 km/h (3 Bft) 97,87 %
25.09.2018 16:48 13,0 C 17,8 C 11,7 C 42 % 1036,4 hPa 0,0 l/m 8,5 km/h (2 Bft) SW 225 2 min 0,000 mm 0,7 UV-I 292 W/m 0,4 C 11,7 C 12,9 km/h (3 Bft) 100,00 %
25.09.2018 16:50 12,9 C 17,8 C 11,7 C 41 % 1036,4 hPa 0,0 l/m 7,4 km/h (2 Bft) SW 229 2 min 0,000 mm 0,7 UV-I 286 W/m -0,0 C 12,3 C 17,7 km/h (3 Bft) 98,00 %
25.09.2018 16:52 12,8 C 17,8 C 11,7 C 44 % 1036,4 hPa 0,0 l/m 5,3 km/h (1 Bft) W-NW 298 2 min 0,000 mm 0,6 UV-I 281 W/m 0,9 C 12,8 C 12,9 km/h (3 Bft) 100,00 %
25.09.2018 16:54 12,7 C 17,8 C 11,7 C 43 % 1036,3 hPa 0,0 l/m 4,6 km/h (1 Bft) W 265 2 min 0,000 mm 0,6 UV-I 275 W/m 0,5 C 12,7 C 9,7 km/h (2 Bft) 100,00 %
25.09.2018 16:56 12,7 C 17,8 C 11,7 C 43 % 1036,4 hPa 0,0 l/m 8,1 km/h (2 Bft) W-SW 252 2 min 0,000 mm 0,6 UV-I 270 W/m 0,5 C 11,6 C 14,5 km/h (3 Bft) 100,00 %
25.09.2018 16:58 12,6 C 17,8 C 11,7 C 41 % 1036,3 hPa 0,0 l/m 13,9 km/h (3 Bft) W-NW 286 2 min 0,000 mm 0,6 UV-I 264 W/m -0,3 C 8,7 C 22,5 km/h (4 Bft) 100,00 %
25.09.2018 17:00 12,6 C 17,8 C 11,1 C 41 % 1036,3 hPa 0,0 l/m 7,5 km/h (2 Bft) W-SW 248 2 min 0,228 mm 0,6 UV-I 258 W/m -0,3 C 11,9 C 17,7 km/h (3 Bft) 97,87 %
25.09.2018 17:02 12,6 C 17,8 C 11,1 C 40 % 1036,3 hPa 0,0 l/m 10,5 km/h (2 Bft) W-NW 288 2 min 0,000 mm 0,5 UV-I 254 W/m -0,6 C 10,2 C 17,7 km/h (3 Bft) 98,00 %
25.09.2018 17:04 12,6 C 17,8 C 11,1 C 40 % 1036,3 hPa 0,0 l/m 8,1 km/h (2 Bft) W-NW 286 2 min 0,000 mm 0,5 UV-I 248 W/m -0,6 C 11,5 C 11,3 km/h (2 Bft) 97,87 %
25.09.2018 17:06 12,6 C 17,8 C 11,1 C 41 % 1036,3 hPa 0,0 l/m 7,9 km/h (2 Bft) W 260 2 min 0,000 mm 0,5 UV-I 243 W/m -0,3 C 11,6 C 12,9 km/h (3 Bft) 95,74 %
25.09.2018 17:08 12,5 C 17,8 C 11,1 C 41 % 1036,2 hPa 0,0 l/m 2,6 km/h (1 Bft) W 259 2 min 0,000 mm 0,5 UV-I 238 W/m -0,4 C 12,5 C 6,4 km/h (2 Bft) 97,87 %
25.09.2018 17:10 12,6 C 17,8 C 11,1 C 42 % 1036,2 hPa 0,0 l/m 2,3 km/h (1 Bft) W-SW 250 2 min 0,000 mm 0,5 UV-I 232 W/m 0,0 C 12,6 C 6,4 km/h (2 Bft) 95,74 %
25.09.2018 17:12 12,7 C 17,8 C 11,1 C 45 % 1036,1 hPa 0,0 l/m 2,9 km/h (1 Bft) W-NW 293 2 min 0,000 mm 0,3 UV-I 227 W/m 1,1 C 12,7 C 4,8 km/h (1 Bft) 98,00 %
25.09.2018 17:14 12,5 C 17,8 C 11,1 C 41 % 1036,2 hPa 0,0 l/m 3,1 km/h (1 Bft) W-SW 246 2 min 0,000 mm 0,0 UV-I 222 W/m -0,4 C 12,5 C 4,8 km/h (1 Bft) 97,22 %
25.09.2018 17:16 12,4 C 17,8 C 11,1 C 44 % 1036,2 hPa 0,0 l/m 3,6 km/h (1 Bft) W 271 2 min 0,000 mm 0,0 UV-I 218 W/m 0,5 C 12,4 C 4,8 km/h (1 Bft) 93,62 %
25.09.2018 17:18 12,4 C 17,8 C 11,1 C 42 % 1036,3 hPa 0,0 l/m 6,9 km/h (2 Bft) W-NW 290 2 min 0,000 mm 0,0 UV-I 214 W/m -0,1 C 12,1 C 12,9 km/h (3 Bft) 96,23 %
25.09.2018 17:20 12,4 C 17,8 C 11,1 C 41 % 1036,2 hPa 0,0 l/m 7,4 km/h (2 Bft) W 275 2 min 0,000 mm 0,0 UV-I 210 W/m -0,5 C 11,7 C 12,9 km/h (3 Bft) 93,62 %
25.09.2018 17:22 12,5 C 17,8 C 10,6 C 42 % 1036,3 hPa 0,0 l/m 2,9 km/h (1 Bft) W-NW 300 2 min 0,000 mm 0,0 UV-I 203 W/m -0,1 C 12,5 C 6,4 km/h (2 Bft) 93,62 %
25.09.2018 17:24 12,5 C 17,8 C 10,6 C 42 % 1036,3 hPa 0,0 l/m 4,2 km/h (1 Bft) W-NW 298 2 min 0,000 mm 0,0 UV-I 199 W/m -0,1 C 12,5 C 6,4 km/h (2 Bft) 97,87 %
25.09.2018 17:26 12,4 C 17,8 C 10,6 C 42 % 1036,3 hPa 0,0 l/m 4,1 km/h (1 Bft) W-SW 258 2 min 0,000 mm 0,0 UV-I 195 W/m -0,1 C 12,4 C 6,4 km/h (2 Bft) 97,87 %
25.09.2018 17:28 12,4 C 17,8 C 10,6 C 44 % 1036,3 hPa 0,0 l/m 11,2 km/h (2 Bft) W 277 2 min 0,000 mm 0,0 UV-I 190 W/m 0,5 C 9,6 C 16,1 km/h (3 Bft) 95,74 %
25.09.2018 17:30 12,4 C 17,8 C 10,6 C 45 % 1036,3 hPa 0,0 l/m 8,4 km/h (2 Bft) W-SW 238 2 min 0,000 mm 0,0 UV-I 184 W/m 0,8 C 11,1 C 12,9 km/h (3 Bft) 97,87 %
25.09.2018 17:32 12,3 C 17,8 C 10,6 C 44 % 1036,2 hPa 0,0 l/m 8,0 km/h (2 Bft) W-SW 254 2 min 0,000 mm 0,0 UV-I 182 W/m 0,4 C 11,3 C 14,5 km/h (3 Bft) 95,74 %
25.09.2018 17:34 12,3 C 17,8 C 10,6 C 44 % 1036,2 hPa 0,0 l/m 5,4 km/h (1 Bft) SW 227 2 min 0,000 mm 0,0 UV-I 179 W/m 0,4 C 12,3 C 9,7 km/h (2 Bft) 93,62 %
25.09.2018 17:36 12,3 C 17,8 C 10,6 C 44 % 1036,2 hPa 0,0 l/m 6,7 km/h (2 Bft) W-NW 302 2 min 0,000 mm 0,0 UV-I 174 W/m 0,4 C 12,1 C 14,5 km/h (3 Bft) 93,62 %
25.09.2018 17:38 12,2 C 17,8 C 11,1 C 45 % 1036,2 hPa 0,0 l/m 7,8 km/h (2 Bft) W 263 2 min 0,000 mm 0,0 UV-I 168 W/m 0,6 C 11,3 C 11,3 km/h (2 Bft) 97,87 %
25.09.2018 17:40 12,2 C 17,8 C 11,1 C 45 % 1036,2 hPa 0,0 l/m 9,4 km/h (2 Bft) W-SW 248 2 min 0,000 mm 0,0 UV-I 165 W/m 0,6 C 10,3 C 14,5 km/h (3 Bft) 97,87 %
25.09.2018 17:42 12,1 C 17,8 C 10,6 C 46 % 1036,2 hPa 0,0 l/m 5,9 km/h (2 Bft) W 269 2 min 0,000 mm 0,0 UV-I 163 W/m 0,8 C 12,1 C 12,9 km/h (3 Bft) 93,62 %
25.09.2018 17:44 12,1 C 17,8 C 10,6 C 46 % 1036,2 hPa 0,0 l/m 3,8 km/h (1 Bft) W 269 2 min 0,000 mm 0,0 UV-I 161 W/m 0,8 C 12,1 C 6,4 km/h (2 Bft) 95,74 %
25.09.2018 17:46 12,1 C 17,8 C 11,1 C 46 % 1036,3 hPa 0,0 l/m 5,3 km/h (1 Bft) W-NW 288 2 min 0,000 mm 0,0 UV-I 159 W/m 0,8 C 12,1 C 12,9 km/h (3 Bft) 100,00 %
25.09.2018 17:48 12,1 C 17,8 C 11,1 C 46 % 1036,3 hPa 0,0 l/m 5,0 km/h (1 Bft) W-NW 286 2 min 0,000 mm 0,0 UV-I 154 W/m 0,8 C 12,1 C 8,0 km/h (2 Bft) 100,00 %
25.09.2018 17:50 12,1 C 17,8 C 11,1 C 45 % 1036,4 hPa 0,0 l/m 3,5 km/h (1 Bft) W 260 2 min 0,000 mm 0,0 UV-I 149 W/m 0,5 C 12,1 C 6,4 km/h (2 Bft) 98,15 %
25.09.2018 17:52 12,1 C 17,8 C 10,6 C 45 % 1036,3 hPa 0,0 l/m 4,8 km/h (1 Bft) W-NW 303 2 min 0,000 mm 0,0 UV-I 144 W/m 0,5 C 12,1 C 11,3 km/h (2 Bft) 97,87 %
25.09.2018 17:54 12,1 C 17,8 C 10,6 C 46 % 1036,4 hPa 0,0 l/m 4,5 km/h (1 Bft) W 278 2 min 0,000 mm 0,0 UV-I 135 W/m 0,8 C 12,1 C 11,3 km/h (2 Bft) 95,83 %
25.09.2018 17:56 12,0 C 17,8 C 10,6 C 46 % 1036,4 hPa 0,0 l/m 7,3 km/h (2 Bft) W 275 2 min 0,000 mm 0,0 UV-I 126 W/m 0,7 C 11,4 C 12,9 km/h (3 Bft) 97,87 %
25.09.2018 17:58 11,9 C 17,8 C 10,6 C 46 % 1036,4 hPa 0,0 l/m 6,1 km/h (2 Bft) W 263 2 min 0,000 mm 0,0 UV-I 121 W/m 0,7 C 11,9 C 11,3 km/h (2 Bft) 95,74 %
25.09.2018 18:00 11,9 C 17,8 C 10,6 C 46 % 1036,4 hPa 0,0 l/m 4,9 km/h (1 Bft) W 279 2 min 0,000 mm 0,0 UV-I 115 W/m 0,7 C 11,9 C 11,3 km/h (2 Bft) 95,74 %
25.09.2018 18:02 11,9 C 17,8 C 10,6 C 45 % 1036,4 hPa 0,0 l/m 6,8 km/h (2 Bft) W 273 2 min 0,127 mm 0,0 UV-I 111 W/m 0,4 C 11,6 C 11,3 km/h (2 Bft) 97,37 %
25.09.2018 18:04 11,8 C 17,8 C 10,0 C 46 % 1036,4 hPa 0,0 l/m 6,1 km/h (2 Bft) W-SW 254 2 min 0,000 mm 0,0 UV-I 106 W/m 0,6 C 11,8 C 9,7 km/h (2 Bft) 96,00 %
25.09.2018 18:06 11,8 C 17,2 C 10,0 C 46 % 1036,5 hPa 0,0 l/m 5,0 km/h (1 Bft) W 265 2 min 0,000 mm 0,0 UV-I 101 W/m 0,6 C 11,8 C 9,7 km/h (2 Bft) 97,87 %
25.09.2018 18:08 11,8 C 17,2 C 10,0 C 46 % 1036,5 hPa 0,0 l/m 4,0 km/h (1 Bft) W 276 2 min 0,000 mm 0,0 UV-I 97 W/m 0,6 C 11,8 C 4,8 km/h (1 Bft) 95,74 %
25.09.2018 18:10 11,9 C 17,2 C 10,0 C 47 % 1036,5 hPa 0,0 l/m 5,0 km/h (1 Bft) NW 316 2 min 0,000 mm 0,0 UV-I 93 W/m 1,0 C 11,9 C 9,7 km/h (2 Bft) 93,62 %
25.09.2018 18:12 11,8 C 17,2 C 9,4 C 47 % 1036,5 hPa 0,0 l/m 3,7 km/h (1 Bft) W 267 2 min 0,000 mm 0,0 UV-I 88 W/m 0,9 C 11,8 C 6,4 km/h (2 Bft) 100,00 %
25.09.2018 18:14 11,8 C 17,2 C 10,0 C 46 % 1036,4 hPa 0,0 l/m 2,7 km/h (1 Bft) W 266 2 min 0,000 mm 0,0 UV-I 83 W/m 0,6 C 11,8 C 4,8 km/h (1 Bft) 97,87 %
25.09.2018 18:16 11,7 C 17,2 C 9,4 C 48 % 1036,4 hPa 0,0 l/m 3,1 km/h (1 Bft) W 268 2 min 0,000 mm 0,0 UV-I 79 W/m 1,1 C 11,7 C 4,8 km/h (1 Bft) 97,87 %
25.09.2018 18:18 11,7 C 17,2 C 9,4 C 49 % 1036,5 hPa 0,0 l/m 2,7 km/h (1 Bft) W 262 2 min 0,000 mm 0,0 UV-I 75 W/m 1,3 C 11,7 C 6,4 km/h (2 Bft) 97,87 %
25.09.2018 18:20 11,6 C 17,2 C 8,9 C 48 % 1036,4 hPa 0,0 l/m 3,8 km/h (1 Bft) W 263 2 min 0,000 mm 0,0 UV-I 71 W/m 1,0 C 11,6 C 4,8 km/h (1 Bft) 94,00 %
25.09.2018 18:22 11,4 C 17,2 C 8,9 C 49 % 1036,5 hPa 0,0 l/m 2,2 km/h (1 Bft) W 263 2 min 0,000 mm 0,0 UV-I 68 W/m 1,1 C 11,4 C 3,2 km/h (1 Bft) 91,49 %
25.09.2018 18:24 11,3 C 17,2 C 8,9 C 49 % 1036,4 hPa 0,0 l/m 1,8 km/h (1 Bft) W 263 2 min 0,000 mm 0,0 UV-I 65 W/m 1,0 C 11,3 C 4,8 km/h (1 Bft) 90,00 %
25.09.2018 18:26 11,3 C 17,2 C 8,3 C 51 % 1036,5 hPa 0,0 l/m 5,5 km/h (1 Bft) W 260 2 min 0,000 mm 0,0 UV-I 62 W/m 1,5 C 11,3 C 9,7 km/h (2 Bft) 100,00 %
25.09.2018 18:28 11,3 C 17,2 C 8,3 C 50 % 1036,5 hPa 0,0 l/m 3,1 km/h (1 Bft) W-SW 250 2 min 0,000 mm 0,0 UV-I 58 W/m 1,3 C 11,3 C 6,4 km/h (2 Bft) 95,16 %
25.09.2018 18:30 11,2 C 17,2 C 8,3 C 50 % 1036,5 hPa 0,0 l/m 3,4 km/h (1 Bft) W 259 2 min 0,000 mm 0,0 UV-I 55 W/m 1,2 C 11,2 C 6,4 km/h (2 Bft) 95,74 %
25.09.2018 18:32 11,2 C 17,2 C 8,3 C 49 % 1036,5 hPa 0,0 l/m 3,0 km/h (1 Bft) W 259 2 min 0,000 mm 0,0 UV-I 51 W/m 0,9 C 11,2 C 6,4 km/h (2 Bft) 95,74 %
25.09.2018 18:34 11,2 C 17,2 C 8,3 C 49 % 1036,6 hPa 0,0 l/m 2,1 km/h (1 Bft) W 264 2 min 0,000 mm 0,0 UV-I 48 W/m 0,9 C 11,2 C 3,2 km/h (1 Bft) 95,74 %
25.09.2018 18:36 11,1 C 17,2 C 8,3 C 48 % 1036,5 hPa 0,0 l/m 1,7 km/h (1 Bft) W 264 2 min 0,000 mm 0,0 UV-I 44 W/m 0,5 C 11,1 C 3,2 km/h (1 Bft) 95,74 %
25.09.2018 18:38 11,0 C 17,2 C 7,8 C 50 % 1036,5 hPa 0,0 l/m 1,5 km/h (1 Bft) W 265 2 min 0,000 mm 0,0 UV-I 39 W/m 1,0 C 11,0 C 3,2 km/h (1 Bft) 96,00 %
25.09.2018 18:40 10,9 C 17,2 C 7,8 C 50 % 1036,5 hPa 0,0 l/m 2,4 km/h (1 Bft) W-NW 285 2 min 0,000 mm 0,0 UV-I 35 W/m 0,9 C 10,9 C 4,8 km/h (1 Bft) 95,74 %
25.09.2018 18:42 10,8 C 17,2 C 7,8 C 50 % 1036,5 hPa 0,0 l/m 2,4 km/h (1 Bft) W-NW 283 2 min 0,000 mm 0,0 UV-I 33 W/m 0,8 C 10,8 C 4,8 km/h (1 Bft) 95,74 %
25.09.2018 18:44 10,8 C 17,2 C 7,2 C 51 % 1036,6 hPa 0,0 l/m 3,3 km/h (1 Bft) W 278 2 min 0,000 mm 0,0 UV-I 20 W/m 1,1 C 10,8 C 6,4 km/h (2 Bft) 95,74 %
25.09.2018 18:46 10,8 C 17,2 C 7,2 C 50 % 1036,6 hPa 0,0 l/m 1,3 km/h (1 Bft) W 278 0 min 0,000 mm 0,0 UV-I 14 W/m 0,8 C 10,8 C 3,2 km/h (1 Bft) 95,74 %
25.09.2018 18:48 10,6 C 17,2 C 6,7 C 51 % 1036,6 hPa 0,0 l/m 1,4 km/h (1 Bft) W 278 0 min 0,000 mm 0,0 UV-I 16 W/m 0,9 C 10,6 C 3,2 km/h (1 Bft) 98,00 %
25.09.2018 18:50 10,5 C 17,2 C 6,1 C 53 % 1036,6 hPa 0,0 l/m 1,7 km/h (1 Bft) W 278 0 min 0,000 mm 0,0 UV-I 12 W/m 1,3 C 10,5 C 3,2 km/h (1 Bft) 97,87 %
25.09.2018 18:52 10,4 C 17,2 C 6,1 C 53 % 1036,7 hPa 0,0 l/m 1,0 km/h (0 Bft) W 278 0 min 0,000 mm 0,0 UV-I 11 W/m 1,2 C 10,4 C 1,6 km/h (1 Bft) 95,74 %
25.09.2018 18:54 10,2 C 17,2 C 5,6 C 56 % 1036,7 hPa 0,0 l/m 1,8 km/h (1 Bft) W 277 0 min 0,000 mm 0,0 UV-I 9 W/m 1,8 C 10,2 C 3,2 km/h (1 Bft) 95,74 %
25.09.2018 18:56 9,6 C 17,2 C 5,6 C 62 % 1036,7 hPa 0,0 l/m 0,7 km/h (0 Bft) W 277 0 min 0,000 mm 0,0 UV-I 8 W/m 2,7 C 9,6 C 1,6 km/h (1 Bft) 100,00 %
25.09.2018 18:58 9,1 C 17,2 C 5,6 C 64 % 1036,7 hPa 0,0 l/m 1,1 km/h (1 Bft) W 277 0 min 0,000 mm 0,0 UV-I 7 W/m 2,7 C 9,1 C 3,2 km/h (1 Bft) 100,00 %
25.09.2018 19:00 8,9 C 17,2 C 5,0 C 63 % 1036,7 hPa 0,0 l/m 0,7 km/h (0 Bft) W 277 0 min 0,051 mm 0,0 UV-I 7 W/m 2,2 C 8,9 C 3,2 km/h (1 Bft) 100,00 %
25.09.2018 19:02 8,8 C 17,2 C 5,0 C 64 % 1036,8 hPa 0,0 l/m 0,7 km/h (0 Bft) W 277 0 min 0,000 mm 0,0 UV-I 6 W/m 2,4 C 8,8 C 1,6 km/h (1 Bft) 98,11 %
25.09.2018 19:04 8,7 C 17,2 C 5,0 C 66 % 1036,8 hPa 0,0 l/m 1,2 km/h (1 Bft) W 277 0 min 0,000 mm 0,0 UV-I 5 W/m 2,7 C 8,7 C 3,2 km/h (1 Bft) 95,74 %
25.09.2018 19:06 8,5 C 17,2 C 5,0 C 67 % 1036,8 hPa 0,0 l/m 2,1 km/h (1 Bft) W 277 0 min 0,000 mm 0,0 UV-I 5 W/m 2,7 C 8,5 C 3,2 km/h (1 Bft) 100,00 %
25.09.2018 19:08 8,2 C 17,2 C 5,0 C 70 % 1036,8 hPa 0,0 l/m 2,0 km/h (1 Bft) W 276 0 min 0,000 mm 0,0 UV-I 5 W/m 3,1 C 8,2 C 3,2 km/h (1 Bft) 100,00 %
25.09.2018 19:10 7,9 C 17,2 C 4,4 C 71 % 1036,8 hPa 0,0 l/m 2,2 km/h (1 Bft) W 271 0 min 0,000 mm 0,0 UV-I 5 W/m 3,0 C 7,9 C 3,2 km/h (1 Bft) 100,00 %
25.09.2018 19:12 7,7 C 17,2 C 4,4 C 71 % 1036,8 hPa 0,0 l/m 2,4 km/h (1 Bft) W 259 0 min 0,000 mm 0,0 UV-I 0 W/m 2,8 C 7,7 C 3,2 km/h (1 Bft) 100,00 %
25.09.2018 19:14 7,6 C 17,2 C 3,9 C 71 % 1036,7 hPa 0,0 l/m 2,9 km/h (1 Bft) W-SW 241 0 min 0,000 mm 0,0 UV-I 0 W/m 2,7 C 7,6 C 3,2 km/h (1 Bft) 97,92 %
25.09.2018 19:16 7,4 C 17,2 C 3,9 C 73 % 1036,7 hPa 0,0 l/m 2,5 km/h (1 Bft) W-SW 241 0 min 0,000 mm 0,0 UV-I 0 W/m 2,9 C 7,4 C 3,2 km/h (1 Bft) 100,00 %
25.09.2018 19:18 7,2 C 17,2 C 3,9 C 74 % 1036,7 hPa 0,0 l/m 2,0 km/h (1 Bft) W-SW 241 0 min 0,000 mm 0,0 UV-I 0 W/m 2,9 C 7,2 C 3,2 km/h (1 Bft) 100,00 %
25.09.2018 19:20 7,1 C 17,2 C 3,9 C 74 % 1036,7 hPa 0,0 l/m 2,4 km/h (1 Bft) W-SW 241 0 min 0,000 mm 0,0 UV-I 0 W/m 2,8 C 7,1 C 3,2 km/h (1 Bft) 100,00 %
25.09.2018 19:22 7,1 C 17,2 C 3,9 C 73 % 1036,8 hPa 0,0 l/m 2,6 km/h (1 Bft) W-SW 241 0 min 0,000 mm 0,0 UV-I 0 W/m 2,6 C 7,1 C 3,2 km/h (1 Bft) 100,00 %
25.09.2018 19:24 7,2 C 17,2 C 4,4 C 73 % 1036,8 hPa 0,0 l/m 2,4 km/h (1 Bft) W-SW 241 0 min 0,000 mm 0,0 UV-I 0 W/m 2,7 C 7,2 C 3,2 km/h (1 Bft) 100,00 %
25.09.2018 19:26 7,2 C 17,2 C 4,4 C 73 % 1036,8 hPa 0,0 l/m 2,9 km/h (1 Bft) W-SW 241 0 min 0,000 mm 0,0 UV-I 0 W/m 2,7 C 7,2 C 3,2 km/h (1 Bft) 100,00 %
25.09.2018 19:28 7,1 C 17,2 C 4,4 C 73 % 1036,8 hPa 0,0 l/m 3,0 km/h (1 Bft) W-SW 240 0 min 0,000 mm 0,0 UV-I 0 W/m 2,6 C 7,1 C 3,2 km/h (1 Bft) 97,87 %
25.09.2018 19:30 7,0 C 17,2 C 3,9 C 73 % 1036,9 hPa 0,0 l/m 2,9 km/h (1 Bft) W-SW 240 0 min 0,000 mm 0,0 UV-I 0 W/m 2,5 C 7,0 C 3,2 km/h (1 Bft) 100,00 %
25.09.2018 19:32 6,9 C 17,2 C 3,9 C 72 % 1036,9 hPa 0,0 l/m 2,9 km/h (1 Bft) W-SW 240 0 min 0,000 mm 0,0 UV-I 0 W/m 2,2 C 6,9 C 4,8 km/h (1 Bft) 95,74 %
25.09.2018 19:34 6,9 C 17,2 C 4,4 C 72 % 1036,9 hPa 0,0 l/m 2,9 km/h (1 Bft) W-SW 240 0 min 0,000 mm 0,0 UV-I 0 W/m 2,2 C 6,9 C 4,8 km/h (1 Bft) 97,87 %
25.09.2018 19:36 6,9 C 17,2 C 4,4 C 73 % 1036,9 hPa 0,0 l/m 3,0 km/h (1 Bft) W-SW 240 0 min 0,000 mm 0,0 UV-I 0 W/m 2,4 C 6,9 C 4,8 km/h (1 Bft) 97,87 %
25.09.2018 19:38 6,8 C 17,2 C 3,9 C 74 % 1037,0 hPa 0,0 l/m 2,9 km/h (1 Bft) W-SW 240 0 min 0,000 mm 0,0 UV-I 0 W/m 2,5 C 6,8 C 3,2 km/h (1 Bft) 91,49 %
25.09.2018 19:40 6,8 C 17,2 C 4,4 C 74 % 1036,9 hPa 0,0 l/m 2,7 km/h (1 Bft) W-SW 240 0 min 0,000 mm 0,0 UV-I 0 W/m 2,5 C 6,8 C 3,2 km/h (1 Bft) 97,37 %
25.09.2018 19:42 6,7 C 17,2 C 4,4 C 74 % 1036,9 hPa 0,0 l/m 2,2 km/h (1 Bft) W-SW 240 0 min 0,000 mm 0,0 UV-I 0 W/m 2,4 C 6,7 C 3,2 km/h (1 Bft) 94,00 %
25.09.2018 19:44 6,9 C 17,2 C 3,9 C 72 % 1037,0 hPa 0,0 l/m 2,3 km/h (1 Bft) W-SW 240 0 min 0,000 mm 0,0 UV-I 0 W/m 2,2 C 6,9 C 3,2 km/h (1 Bft) 94,00 %
25.09.2018 19:46 7,2 C 17,2 C 3,9 C 71 % 1037,0 hPa 0,0 l/m 2,2 km/h (1 Bft) W-SW 240 0 min 0,000 mm 0,0 UV-I 0 W/m 2,3 C 7,2 C 3,2 km/h (1 Bft) 91,49 %
25.09.2018 19:48 7,3 C 17,2 C 3,9 C 70 % 1037,1 hPa 0,0 l/m 2,1 km/h (1 Bft) W-SW 241 0 min 0,000 mm 0,0 UV-I 0 W/m 2,2 C 7,3 C 3,2 km/h (1 Bft) 93,62 %
25.09.2018 19:50 7,4 C 17,2 C 3,3 C 69 % 1037,1 hPa 0,0 l/m 1,8 km/h (1 Bft) W-SW 240 0 min 0,000 mm 0,0 UV-I 0 W/m 2,1 C 7,4 C 3,2 km/h (1 Bft) 95,74 %
25.09.2018 19:52 7,3 C 17,2 C 3,3 C 70 % 1037,1 hPa 0,0 l/m 2,0 km/h (1 Bft) W-SW 240 0 min 0,000 mm 0,0 UV-I 0 W/m 2,2 C 7,3 C 3,2 km/h (1 Bft) 95,83 %
25.09.2018 19:54 7,0 C 17,2 C 3,9 C 70 % 1037,1 hPa 0,0 l/m 2,0 km/h (1 Bft) W-SW 241 0 min 0,000 mm 0,0 UV-I 0 W/m 1,9 C 7,0 C 3,2 km/h (1 Bft) 91,49 %
25.09.2018 19:56 6,8 C 17,2 C 3,9 C 71 % 1037,2 hPa 0,0 l/m 2,1 km/h (1 Bft) W-SW 240 0 min 0,000 mm 0,0 UV-I 0 W/m 1,9 C 6,8 C 3,2 km/h (1 Bft) 97,37 %
25.09.2018 19:58 6,7 C 17,2 C 3,9 C 72 % 1037,2 hPa 0,0 l/m 2,0 km/h (1 Bft) W-SW 240 0 min 0,000 mm 0,0 UV-I 0 W/m 2,0 C 6,7 C 3,2 km/h (1 Bft) 94,00 %
25.09.2018 20:00 6,6 C 17,2 C 3,9 C 73 % 1037,2 hPa 0,0 l/m 1,1 km/h (1 Bft) W-SW 240 0 min 0,000 mm 0,0 UV-I 0 W/m 2,1 C 6,6 C 1,6 km/h (1 Bft) 92,00 %
25.09.2018 20:02 6,6 C 17,2 C 3,9 C 73 % 1037,3 hPa 0,0 l/m 0,1 km/h (0 Bft) W-SW 240 0 min 0,000 mm 0,0 UV-I 0 W/m 2,1 C 6,6 C 1,6 km/h (1 Bft) 97,87 %
25.09.2018 20:04 6,5 C 17,2 C 3,9 C 73 % 1037,3 hPa 0,0 l/m 0,0 km/h (0 Bft) W-SW 241 0 min 0,000 mm 0,0 UV-I 0 W/m 2,0 C 6,5 C 0,0 km/h (0 Bft) 98,00 %
25.09.2018 20:06 6,6 C 17,2 C 3,9 C 73 % 1037,3 hPa 0,0 l/m 0,0 km/h (0 Bft) W-SW 241 0 min 0,000 mm 0,0 UV-I 0 W/m 2,1 C 6,6 C 0,0 km/h (0 Bft) 95,74 %
25.09.2018 20:08 6,6 C 17,2 C 3,3 C 73 % 1037,4 hPa 0,0 l/m 0,0 km/h (0 Bft) W-SW 241 0 min 0,000 mm 0,0 UV-I 0 W/m 2,1 C 6,6 C 0,0 km/h (0 Bft) 97,87 %
25.09.2018 20:10 6,6 C 17,2 C 3,3 C 71 % 1037,4 hPa 0,0 l/m 0,4 km/h (0 Bft) W-SW 241 0 min 0,000 mm 0,0 UV-I 0 W/m 1,7 C 6,6 C 3,2 km/h (1 Bft) 97,87 %
25.09.2018 20:12 6,7 C 17,2 C 3,3 C 71 % 1037,5 hPa 0,0 l/m 4,0 km/h (1 Bft) NO 37 0 min 0,000 mm 0,0 UV-I 0 W/m 1,8 C 6,7 C 9,7 km/h (2 Bft) 94,74 %
25.09.2018 20:14 6,7 C 17,2 C 3,3 C 75 % 1037,6 hPa 0,0 l/m 8,4 km/h (2 Bft) NO 41 0 min 0,000 mm 0,0 UV-I 0 W/m 2,6 C 5,1 C 14,5 km/h (3 Bft) 97,87 %
25.09.2018 20:16 6,6 C 17,2 C 3,9 C 75 % 1037,6 hPa 0,0 l/m 6,2 km/h (2 Bft) N-NO 32 0 min 0,000 mm 0,0 UV-I 0 W/m 2,5 C 6,6 C 8,0 km/h (2 Bft) 95,74 %
25.09.2018 20:18 6,6 C 17,2 C 4,4 C 74 % 1037,6 hPa 0,0 l/m 6,0 km/h (2 Bft) N-NO 28 0 min 0,000 mm 0,0 UV-I 0 W/m 2,3 C 6,6 C 8,0 km/h (2 Bft) 96,23 %
25.09.2018 20:20 6,8 C 17,2 C 3,9 C 72 % 1037,7 hPa 0,0 l/m 5,4 km/h (1 Bft) N-NO 26 0 min 0,000 mm 0,0 UV-I 0 W/m 2,1 C 6,8 C 6,4 km/h (2 Bft) 100,00 %
25.09.2018 20:22 6,9 C 17,2 C 3,9 C 72 % 1037,6 hPa 0,0 l/m 5,5 km/h (1 Bft) N-NO 26 0 min 0,000 mm 0,0 UV-I 0 W/m 2,2 C 6,9 C 6,4 km/h (2 Bft) 100,00 %
25.09.2018 20:24 7,1 C 17,2 C 3,9 C 69 % 1037,7 hPa 0,0 l/m 4,4 km/h (1 Bft) N-NO 32 0 min 0,000 mm 0,0 UV-I 0 W/m 1,8 C 7,1 C 6,4 km/h (2 Bft) 100,00 %
25.09.2018 20:26 7,3 C 17,2 C 3,9 C 68 % 1037,7 hPa 0,0 l/m 4,6 km/h (1 Bft) NO 34 0 min 0,000 mm 0,0 UV-I 0 W/m 1,8 C 7,3 C 6,4 km/h (2 Bft) 100,00 %
25.09.2018 20:28 7,3 C 17,2 C 3,9 C 69 % 1037,8 hPa 0,0 l/m 4,0 km/h (1 Bft) NO 35 0 min 0,000 mm 0,0 UV-I 0 W/m 2,0 C 7,3 C 4,8 km/h (1 Bft) 100,00 %
25.09.2018 20:30 7,4 C 17,2 C 3,3 C 67 % 1037,8 hPa 0,0 l/m 4,2 km/h (1 Bft) NO 40 0 min 0,000 mm 0,0 UV-I 0 W/m 1,7 C 7,4 C 6,4 km/h (2 Bft) 96,00 %
25.09.2018 20:32 7,6 C 17,2 C 3,3 C 67 % 1037,8 hPa 0,0 l/m 4,4 km/h (1 Bft) NO 43 0 min 0,000 mm 0,0 UV-I 0 W/m 1,9 C 7,6 C 6,4 km/h (2 Bft) 100,00 %
25.09.2018 20:34 7,6 C 17,2 C 3,3 C 67 % 1037,9 hPa 0,0 l/m 3,7 km/h (1 Bft) NO 50 0 min 0,000 mm 0,0 UV-I 0 W/m 1,9 C 7,6 C 4,8 km/h (1 Bft) 100,00 %
25.09.2018 20:36 7,2 C 17,2 C 3,3 C 69 % 1037,9 hPa 0,0 l/m 3,5 km/h (1 Bft) NO 54 0 min 0,000 mm 0,0 UV-I 0 W/m 1,9 C 7,2 C 4,8 km/h (1 Bft) 100,00 %
25.09.2018 20:38 6,8 C 17,2 C 3,3 C 70 % 1037,9 hPa 0,0 l/m 3,7 km/h (1 Bft) O-SO 103 0 min 0,000 mm 0,0 UV-I 0 W/m 1,7 C 6,8 C 4,8 km/h (1 Bft) 97,87 %
25.09.2018 20:40 6,9 C 17,2 C 3,3 C 70 % 1038,0 hPa 0,0 l/m 4,2 km/h (1 Bft) NO 42 0 min 0,000 mm 0,0 UV-I 0 W/m 1,8 C 6,9 C 4,8 km/h (1 Bft) 97,87 %
25.09.2018 20:42 7,0 C 17,2 C 3,3 C 69 % 1038,0 hPa 0,0 l/m 3,4 km/h (1 Bft) NO 45 0 min 0,000 mm 0,0 UV-I 0 W/m 1,7 C 7,0 C 4,8 km/h (1 Bft) 97,87 %
25.09.2018 20:44 7,2 C 17,2 C 3,3 C 68 % 1038,0 hPa 0,0 l/m 3,0 km/h (1 Bft) NO 45 0 min 0,000 mm 0,0 UV-I 0 W/m 1,7 C 7,2 C 4,8 km/h (1 Bft) 100,00 %
25.09.2018 20:46 7,4 C 17,2 C 2,8 C 67 % 1038,0 hPa 0,0 l/m 1,9 km/h (1 Bft) NO 45 0 min 0,000 mm 0,0 UV-I 0 W/m 1,7 C 7,4 C 3,2 km/h (1 Bft) 100,00 %
25.09.2018 20:48 7,5 C 17,2 C 2,8 C 66 % 1038,0 hPa 0,0 l/m 1,4 km/h (1 Bft) NO 45 0 min 0,000 mm 0,0 UV-I 0 W/m 1,6 C 7,5 C 3,2 km/h (1 Bft) 97,87 %
25.09.2018 20:50 7,4 C 17,2 C 2,8 C 66 % 1038,0 hPa 0,0 l/m 2,1 km/h (1 Bft) NO 51 0 min 0,000 mm 0,0 UV-I 0 W/m 1,5 C 7,4 C 3,2 km/h (1 Bft) 100,00 %
25.09.2018 20:52 7,2 C 17,2 C 2,8 C 66 % 1038,1 hPa 0,0 l/m 2,4 km/h (1 Bft) NO 51 0 min 0,000 mm 0,0 UV-I 0 W/m 1,3 C 7,2 C 3,2 km/h (1 Bft) 97,87 %
25.09.2018 20:54 7,0 C 17,2 C 2,2 C 67 % 1038,1 hPa 0,0 l/m 2,4 km/h (1 Bft) NO 51 0 min 0,000 mm 0,0 UV-I 0 W/m 1,3 C 7,0 C 3,2 km/h (1 Bft) 95,74 %
25.09.2018 20:56 6,9 C 17,2 C 2,2 C 67 % 1038,1 hPa 0,0 l/m 2,7 km/h (1 Bft) NO 51 0 min 0,000 mm 0,0 UV-I 0 W/m 1,2 C 6,9 C 4,8 km/h (1 Bft) 97,87 %
25.09.2018 20:58 6,7 C 17,2 C 2,2 C 67 % 1038,1 hPa 0,0 l/m 3,3 km/h (1 Bft) NO 51 0 min 0,000 mm 0,0 UV-I 0 W/m 1,0 C 6,7 C 4,8 km/h (1 Bft) 97,87 %
25.09.2018 21:00 6,4 C 17,2 C 2,2 C 70 % 1038,1 hPa 0,0 l/m 3,7 km/h (1 Bft) O 89 0 min 0,000 mm 0,0 UV-I 0 W/m 1,3 C 6,4 C 4,8 km/h (1 Bft) 97,87 %
25.09.2018 21:02 6,2 C 17,2 C 2,2 C 71 % 1038,2 hPa 0,0 l/m 3,4 km/h (1 Bft) O 89 0 min 0,026 mm 0,0 UV-I 0 W/m 1,3 C 6,2 C 4,8 km/h (1 Bft) 95,74 %
25.09.2018 21:04 6,2 C 17,2 C 2,2 C 71 % 1038,1 hPa 0,0 l/m 2,8 km/h (1 Bft) O 89 0 min 0,000 mm 0,0 UV-I 0 W/m 1,3 C 6,2 C 3,2 km/h (1 Bft) 95,74 %
25.09.2018 21:06 6,5 C 17,2 C 2,2 C 69 % 1038,1 hPa 0,0 l/m 3,1 km/h (1 Bft) O 88 0 min 0,000 mm 0,0 UV-I 0 W/m 1,2 C 6,5 C 3,2 km/h (1 Bft) 94,44 %
25.09.2018 21:08 6,9 C 17,2 C 2,2 C 67 % 1038,1 hPa 0,0 l/m 2,1 km/h (1 Bft) O 88 0 min 0,000 mm 0,0 UV-I 0 W/m 1,2 C 6,9 C 3,2 km/h (1 Bft) 94,34 %
25.09.2018 21:10 7,0 C 17,2 C 2,2 C 66 % 1038,1 hPa 0,0 l/m 2,4 km/h (1 Bft) O 88 0 min 0,000 mm 0,0 UV-I 0 W/m 1,1 C 7,0 C 4,8 km/h (1 Bft) 91,49 %
25.09.2018 21:12 6,9 C 17,2 C 2,2 C 66 % 1038,1 hPa 0,0 l/m 2,4 km/h (1 Bft) O 88 0 min 0,000 mm 0,0 UV-I 0 W/m 1,0 C 6,9 C 3,2 km/h (1 Bft) 93,62 %
25.09.2018 21:14 6,6 C 17,2 C 2,2 C 67 % 1038,1 hPa 0,0 l/m 4,0 km/h (1 Bft) O 93 0 min 0,000 mm 0,0 UV-I 0 W/m 0,9 C 6,6 C 4,8 km/h (1 Bft) 97,87 %
25.09.2018 21:16 6,2 C 17,2 C 2,2 C 69 % 1038,1 hPa 0,0 l/m 3,9 km/h (1 Bft) O 96 0 min 0,000 mm 0,0 UV-I 0 W/m 0,9 C 6,2 C 4,8 km/h (1 Bft) 97,87 %
25.09.2018 21:18 6,1 C 17,2 C 2,2 C 69 % 1038,1 hPa 0,0 l/m 2,9 km/h (1 Bft) O 100 0 min 0,000 mm 0,0 UV-I 0 W/m 0,8 C 6,1 C 4,8 km/h (1 Bft) 97,87 %
25.09.2018 21:20 6,1 C 17,2 C 2,2 C 69 % 1038,2 hPa 0,0 l/m 2,8 km/h (1 Bft) O 98 0 min 0,000 mm 0,0 UV-I 0 W/m 0,8 C 6,1 C 4,8 km/h (1 Bft) 95,74 %
25.09.2018 21:22 6,2 C 17,2 C 1,7 C 70 % 1038,1 hPa 0,0 l/m 0,0 km/h (0 Bft) O 98 0 min 0,000 mm 0,0 UV-I 0 W/m 1,1 C 6,2 C 0,0 km/h (0 Bft) 93,62 %
25.09.2018 21:24 6,3 C 17,2 C 1,7 C 69 % 1038,2 hPa 0,0 l/m 0,0 km/h (0 Bft) O 98 0 min 0,000 mm 0,0 UV-I 0 W/m 1,0 C 6,3 C 0,0 km/h (0 Bft) 95,74 %
25.09.2018 21:26 6,3 C 17,2 C 1,7 C 70 % 1038,2 hPa 0,0 l/m 0,0 km/h (0 Bft) O 98 0 min 0,000 mm 0,0 UV-I 0 W/m 1,2 C 6,3 C 0,0 km/h (0 Bft) 97,87 %
25.09.2018 21:28 6,2 C 17,2 C 1,7 C 71 % 1038,2 hPa 0,0 l/m 1,0 km/h (0 Bft) O 98 0 min 0,000 mm 0,0 UV-I 0 W/m 1,3 C 6,2 C 3,2 km/h (1 Bft) 97,87 %
25.09.2018 21:30 6,1 C 17,2 C 2,2 C 71 % 1038,2 hPa 0,0 l/m 2,2 km/h (1 Bft) O 99 0 min 0,000 mm 0,0 UV-I 0 W/m 1,2 C 6,1 C 4,8 km/h (1 Bft) 97,87 %
25.09.2018 21:32 5,9 C 17,2 C 2,2 C 72 % 1038,2 hPa 0,0 l/m 1,6 km/h (1 Bft) O 99 0 min 0,000 mm 0,0 UV-I 0 W/m 1,2 C 5,9 C 3,2 km/h (1 Bft) 95,74 %
25.09.2018 21:34 5,7 C 17,2 C 1,7 C 75 % 1038,1 hPa 0,0 l/m 0,5 km/h (0 Bft) O 98 0 min 0,000 mm 0,0 UV-I 0 W/m 1,6 C 5,7 C 1,6 km/h (1 Bft) 95,74 %
25.09.2018 21:36 5,6 C 17,2 C 2,2 C 77 % 1038,2 hPa 0,0 l/m 1,8 km/h (1 Bft) O 99 0 min 0,000 mm 0,0 UV-I 0 W/m 1,9 C 5,6 C 3,2 km/h (1 Bft) 97,87 %
25.09.2018 21:38 5,4 C 17,2 C 2,2 C 77 % 1038,2 hPa 0,0 l/m 2,5 km/h (1 Bft) O 99 0 min 0,000 mm 0,0 UV-I 0 W/m 1,7 C 5,4 C 3,2 km/h (1 Bft) 97,87 %
25.09.2018 21:40 5,4 C 17,2 C 2,2 C 77 % 1038,3 hPa 0,0 l/m 2,2 km/h (1 Bft) O 99 0 min 0,000 mm 0,0 UV-I 0 W/m 1,7 C 5,4 C 3,2 km/h (1 Bft) 97,44 %
25.09.2018 21:42 5,3 C 17,2 C 2,2 C 78 % 1038,2 hPa 0,0 l/m 1,8 km/h (1 Bft) O 100 0 min 0,000 mm 0,0 UV-I 0 W/m 1,8 C 5,3 C 3,2 km/h (1 Bft) 95,74 %
25.09.2018 21:44 5,2 C 17,2 C 2,2 C 78 % 1038,2 hPa 0,0 l/m 1,7 km/h (1 Bft) O 100 0 min 0,000 mm 0,0 UV-I 0 W/m 1,7 C 5,2 C 3,2 km/h (1 Bft) 97,87 %
25.09.2018 21:46 5,1 C 17,2 C 2,2 C 79 % 1038,3 hPa 0,0 l/m 2,0 km/h (1 Bft) O 101 0 min 0,000 mm 0,0 UV-I 0 W/m 1,8 C 5,1 C 3,2 km/h (1 Bft) 97,87 %
25.09.2018 21:48 4,7 C 17,2 C 2,2 C 79 % 1038,3 hPa 0,0 l/m 2,9 km/h (1 Bft) SO 128 0 min 0,000 mm 0,0 UV-I 0 W/m 1,4 C 4,7 C 4,8 km/h (1 Bft) 95,74 %
25.09.2018 21:50 4,7 C 17,2 C 2,2 C 81 % 1038,3 hPa 0,0 l/m 2,6 km/h (1 Bft) SO 128 0 min 0,000 mm 0,0 UV-I 0 W/m 1,7 C 4,7 C 3,2 km/h (1 Bft) 97,87 %
25.09.2018 21:52 4,6 C 17,2 C 2,2 C 81 % 1038,3 hPa 0,0 l/m 3,4 km/h (1 Bft) S 174 0 min 0,000 mm 0,0 UV-I 0 W/m 1,6 C 4,6 C 4,8 km/h (1 Bft) 97,87 %
25.09.2018 21:54 4,7 C 17,2 C 2,2 C 82 % 1038,3 hPa 0,0 l/m 3,9 km/h (1 Bft) S 174 0 min 0,000 mm 0,0 UV-I 0 W/m 1,9 C 4,7 C 4,8 km/h (1 Bft) 98,00 %
25.09.2018 21:56 4,7 C 17,2 C 2,2 C 82 % 1038,3 hPa 0,0 l/m 3,2 km/h (1 Bft) S 174 0 min 0,000 mm 0,0 UV-I 0 W/m 1,9 C 4,7 C 4,8 km/h (1 Bft) 97,87 %
25.09.2018 21:58 4,8 C 17,2 C 2,2 C 81 % 1038,4 hPa 0,0 l/m 2,1 km/h (1 Bft) S 174 0 min 0,000 mm 0,0 UV-I 0 W/m 1,8 C 4,8 C 3,2 km/h (1 Bft) 100,00 %
25.09.2018 22:00 4,9 C 17,2 C 2,2 C 80 % 1038,4 hPa 0,0 l/m 2,1 km/h (1 Bft) S 174 0 min 0,000 mm 0,0 UV-I 0 W/m 1,7 C 4,9 C 3,2 km/h (1 Bft) 100,00 %
25.09.2018 22:02 4,9 C 17,2 C 2,2 C 80 % 1038,3 hPa 0,0 l/m 3,4 km/h (1 Bft) S 174 0 min 0,000 mm 0,0 UV-I 0 W/m 1,7 C 4,9 C 4,8 km/h (1 Bft) 95,74 %
25.09.2018 22:04 5,0 C 17,2 C 2,8 C 79 % 1038,3 hPa 0,0 l/m 3,1 km/h (1 Bft) S 174 0 min 0,000 mm 0,0 UV-I 0 W/m 1,7 C 5,0 C 4,8 km/h (1 Bft) 97,87 %
25.09.2018 22:06 5,1 C 17,2 C 2,8 C 79 % 1038,4 hPa 0,0 l/m 2,0 km/h (1 Bft) S 174 0 min 0,000 mm 0,0 UV-I 0 W/m 1,8 C 5,1 C 3,2 km/h (1 Bft) 100,00 %
25.09.2018 22:09 5,1 C 17,2 C 2,8 C 79 % 1038,4 hPa 0,0 l/m 1,7 km/h (1 Bft) S 174 0 min 0,000 mm 0,0 UV-I 0 W/m 1,8 C 5,1 C 3,2 km/h (1 Bft) 95,77 %
25.09.2018 22:10 5,0 C 17,2 C 2,8 C 79 % 1038,4 hPa 0,0 l/m 2,2 km/h (1 Bft) S 174 0 min 0,000 mm 0,0 UV-I 0 W/m 1,7 C 5,0 C 3,2 km/h (1 Bft) 91,30 %
25.09.2018 22:12 5,1 C 17,2 C 2,8 C 78 % 1038,4 hPa 0,0 l/m 1,5 km/h (1 Bft) S 174 0 min 0,000 mm 0,0 UV-I 0 W/m 1,6 C 5,1 C 3,2 km/h (1 Bft) 95,74 %
25.09.2018 22:14 5,1 C 17,2 C 2,2 C 79 % 1038,5 hPa 0,0 l/m 1,4 km/h (1 Bft) S 174 0 min 0,000 mm 0,0 UV-I 0 W/m 1,8 C 5,1 C 3,2 km/h (1 Bft) 93,62 %
25.09.2018 22:16 4,9 C 17,2 C 2,2 C 79 % 1038,5 hPa 0,0 l/m 1,8 km/h (1 Bft) S 174 0 min 0,000 mm 0,0 UV-I 0 W/m 1,6 C 4,9 C 3,2 km/h (1 Bft) 93,62 %
25.09.2018 22:18 4,9 C 17,2 C 1,7 C 80 % 1038,5 hPa 0,0 l/m 1,9 km/h (1 Bft) S 174 0 min 0,000 mm 0,0 UV-I 0 W/m 1,7 C 4,9 C 3,2 km/h (1 Bft) 94,00 %
25.09.2018 22:20 4,8 C 17,2 C 1,7 C 80 % 1038,5 hPa 0,0 l/m 0,1 km/h (0 Bft) S 174 0 min 0,000 mm 0,0 UV-I 0 W/m 1,6 C 4,8 C 1,6 km/h (1 Bft) 93,62 %
25.09.2018 22:22 4,7 C 17,2 C 1,1 C 81 % 1038,5 hPa 0,0 l/m 0,1 km/h (0 Bft) S 174 0 min 0,000 mm 0,0 UV-I 0 W/m 1,7 C 4,7 C 1,6 km/h (1 Bft) 95,74 %
25.09.2018 22:24 4,7 C 17,2 C 1,1 C 81 % 1038,6 hPa 0,0 l/m 1,1 km/h (1 Bft) S 174 0 min 0,000 mm 0,0 UV-I 0 W/m 1,7 C 4,7 C 3,2 km/h (1 Bft) 93,75 %
25.09.2018 22:26 4,7 C 17,2 C 1,1 C 81 % 1038,5 hPa 0,0 l/m 0,0 km/h (0 Bft) S 174 0 min 0,000 mm 0,0 UV-I 0 W/m 1,7 C 4,7 C 0,0 km/h (0 Bft) 97,37 %
25.09.2018 22:28 4,7 C 17,2 C 1,1 C 81 % 1038,6 hPa 0,0 l/m 0,6 km/h (0 Bft) S 174 0 min 0,000 mm 0,0 UV-I 0 W/m 1,7 C 4,7 C 1,6 km/h (1 Bft) 95,74 %
25.09.2018 22:30 4,7 C 17,2 C 1,1 C 81 % 1038,6 hPa 0,0 l/m 1,7 km/h (1 Bft) S 174 0 min 0,000 mm 0,0 UV-I 0 W/m 1,7 C 4,7 C 3,2 km/h (1 Bft) 97,87 %
25.09.2018 22:32 4,4 C 17,2 C 1,1 C 81 % 1038,6 hPa 0,0 l/m 1,9 km/h (1 Bft) S 174 0 min 0,000 mm 0,0 UV-I 0 W/m 1,4 C 4,4 C 3,2 km/h (1 Bft) 95,74 %
25.09.2018 22:34 4,1 C 17,2 C 1,1 C 82 % 1038,7 hPa 0,0 l/m 2,5 km/h (1 Bft) S 174 0 min 0,000 mm 0,0 UV-I 0 W/m 1,3 C 4,1 C 3,2 km/h (1 Bft) 96,00 %
25.09.2018 22:36 3,8 C 17,2 C 1,1 C 83 % 1038,7 hPa 0,0 l/m 2,5 km/h (1 Bft) S 174 0 min 0,000 mm 0,0 UV-I 0 W/m 1,2 C 3,8 C 3,2 km/h (1 Bft) 98,00 %
25.09.2018 22:38 3,8 C 17,2 C 1,1 C 84 % 1038,7 hPa 0,0 l/m 2,2 km/h (1 Bft) S 174 0 min 0,000 mm 0,0 UV-I 0 W/m 1,4 C 3,8 C 3,2 km/h (1 Bft) 97,87 %
25.09.2018 22:40 3,8 C 17,2 C 1,1 C 84 % 1038,7 hPa 0,0 l/m 1,5 km/h (1 Bft) S 174 0 min 0,000 mm 0,0 UV-I 0 W/m 1,4 C 3,8 C 3,2 km/h (1 Bft) 97,37 %
25.09.2018 22:42 3,8 C 17,2 C 1,1 C 84 % 1038,7 hPa 0,0 l/m 0,4 km/h (0 Bft) S 174 0 min 0,000 mm 0,0 UV-I 0 W/m 1,4 C 3,8 C 1,6 km/h (1 Bft) 93,62 %
25.09.2018 22:44 4,0 C 17,2 C 1,1 C 83 % 1038,7 hPa 0,0 l/m 0,8 km/h (0 Bft) S 174 0 min 0,000 mm 0,0 UV-I 0 W/m 1,4 C 4,0 C 1,6 km/h (1 Bft) 98,00 %
25.09.2018 22:46 4,2 C 16,7 C 1,1 C 83 % 1038,7 hPa 0,0 l/m 2,2 km/h (1 Bft) O-SO 122 0 min 0,000 mm 0,0 UV-I 0 W/m 1,6 C 4,2 C 4,8 km/h (1 Bft) 96,00 %
25.09.2018 22:48 4,2 C 16,7 C 1,1 C 82 % 1038,7 hPa 0,0 l/m 2,1 km/h (1 Bft) O-SO 122 0 min 0,000 mm 0,0 UV-I 0 W/m 1,4 C 4,2 C 3,2 km/h (1 Bft) 97,87 %
25.09.2018 22:50 4,1 C 16,7 C 1,1 C 82 % 1038,7 hPa 0,0 l/m 3,9 km/h (1 Bft) O-SO 121 0 min 0,000 mm 0,0 UV-I 0 W/m 1,3 C 4,1 C 8,0 km/h (2 Bft) 97,87 %
25.09.2018 22:52 3,8 C 16,7 C 1,1 C 83 % 1038,7 hPa 0,0 l/m 2,7 km/h (1 Bft) O-SO 121 0 min 0,000 mm 0,0 UV-I 0 W/m 1,2 C 3,8 C 4,8 km/h (1 Bft) 100,00 %
25.09.2018 22:54 3,7 C 16,7 C 1,1 C 83 % 1038,7 hPa 0,0 l/m 1,3 km/h (1 Bft) O-SO 121 0 min 0,000 mm 0,0 UV-I 0 W/m 1,1 C 3,7 C 3,2 km/h (1 Bft) 100,00 %
25.09.2018 22:56 3,7 C 16,7 C 1,1 C 84 % 1038,7 hPa 0,0 l/m 0,8 km/h (0 Bft) O-SO 120 0 min 0,000 mm 0,0 UV-I 0 W/m 1,3 C 3,7 C 1,6 km/h (1 Bft) 100,00 %
25.09.2018 22:58 3,7 C 16,7 C 1,1 C 84 % 1038,7 hPa 0,0 l/m 0,3 km/h (0 Bft) O-SO 120 0 min 0,000 mm 0,0 UV-I 0 W/m 1,3 C 3,7 C 3,2 km/h (1 Bft) 100,00 %
25.09.2018 23:00 3,7 C 16,7 C 1,1 C 84 % 1038,7 hPa 0,0 l/m 0,8 km/h (0 Bft) O-SO 120 0 min 0,000 mm 0,0 UV-I 0 W/m 1,3 C 3,7 C 1,6 km/h (1 Bft) 100,00 %
25.09.2018 23:02 3,8 C 16,7 C 0,6 C 84 % 1038,8 hPa 0,0 l/m 0,9 km/h (0 Bft) O-SO 120 0 min 0,000 mm 0,0 UV-I 0 W/m 1,4 C 3,8 C 1,6 km/h (1 Bft) 97,87 %
25.09.2018 23:04 3,8 C 16,7 C 0,6 C 84 % 1038,8 hPa 0,0 l/m 1,5 km/h (1 Bft) O-SO 121 0 min 0,000 mm 0,0 UV-I 0 W/m 1,4 C 3,8 C 3,2 km/h (1 Bft) 100,00 %
25.09.2018 23:06 3,9 C 16,7 C 0,6 C 84 % 1038,8 hPa 0,0 l/m 2,8 km/h (1 Bft) O-SO 121 0 min 0,000 mm 0,0 UV-I 0 W/m 1,4 C 3,9 C 4,8 km/h (1 Bft) 100,00 %
25.09.2018 23:08 3,9 C 16,7 C 0,6 C 84 % 1038,8 hPa 0,0 l/m 3,0 km/h (1 Bft) O-SO 122 0 min 0,000 mm 0,0 UV-I 0 W/m 1,4 C 3,9 C 4,8 km/h (1 Bft) 100,00 %
25.09.2018 23:10 4,1 C 16,7 C 1,1 C 84 % 1038,8 hPa 0,0 l/m 3,5 km/h (1 Bft) S-SW 194 0 min 0,000 mm 0,0 UV-I 0 W/m 1,6 C 4,1 C 4,8 km/h (1 Bft) 100,00 %
25.09.2018 23:12 4,1 C 16,7 C 1,1 C 84 % 1038,8 hPa 0,0 l/m 2,4 km/h (1 Bft) S-SW 194 0 min 0,000 mm 0,0 UV-I 0 W/m 1,6 C 4,1 C 3,2 km/h (1 Bft) 100,00 %
25.09.2018 23:14 4,1 C 16,7 C 1,1 C 84 % 1038,9 hPa 0,0 l/m 2,6 km/h (1 Bft) S-SW 194 0 min 0,000 mm 0,0 UV-I 0 W/m 1,6 C 4,1 C 3,2 km/h (1 Bft) 100,00 %
25.09.2018 23:16 4,1 C 16,7 C 1,1 C 84 % 1038,9 hPa 0,0 l/m 2,9 km/h (1 Bft) S-SW 195 0 min 0,000 mm 0,0 UV-I 0 W/m 1,6 C 4,1 C 4,8 km/h (1 Bft) 100,00 %
25.09.2018 23:18 4,0 C 16,7 C 1,1 C 84 % 1038,9 hPa 0,0 l/m 3,3 km/h (1 Bft) S-SW 195 0 min 0,000 mm 0,0 UV-I 0 W/m 1,5 C 4,0 C 4,8 km/h (1 Bft) 100,00 %
25.09.2018 23:20 3,9 C 16,7 C 1,1 C 84 % 1038,9 hPa 0,0 l/m 2,6 km/h (1 Bft) S-SW 195 0 min 0,000 mm 0,0 UV-I 0 W/m 1,4 C 3,9 C 3,2 km/h (1 Bft) 97,87 %
25.09.2018 23:22 3,8 C 16,7 C 1,1 C 84 % 1038,9 hPa 0,0 l/m 2,8 km/h (1 Bft) S-SW 195 0 min 0,000 mm 0,0 UV-I 0 W/m 1,4 C 3,8 C 4,8 km/h (1 Bft) 97,87 %
25.09.2018 23:24 3,6 C 16,7 C 1,1 C 84 % 1039,0 hPa 0,0 l/m 2,7 km/h (1 Bft) S-SW 195 0 min 0,000 mm 0,0 UV-I 0 W/m 1,2 C 3,6 C 3,2 km/h (1 Bft) 97,87 %
25.09.2018 23:26 3,3 C 16,7 C 0,6 C 85 % 1039,0 hPa 0,0 l/m 3,7 km/h (1 Bft) S-SW 195 0 min 0,000 mm 0,0 UV-I 0 W/m 1,0 C 3,3 C 4,8 km/h (1 Bft) 97,87 %
25.09.2018 23:29 2,9 C 16,7 C 0,6 C 86 % 1039,0 hPa 0,0 l/m 3,6 km/h (1 Bft) S-SW 195 0 min 0,000 mm 0,0 UV-I 0 W/m 0,8 C 2,9 C 4,8 km/h (1 Bft) 95,95 %
25.09.2018 23:30 2,9 C 16,7 C 0,6 C 86 % 1039,0 hPa 0,0 l/m 3,1 km/h (1 Bft) S-SW 195 0 min 0,000 mm 0,0 UV-I 0 W/m 0,8 C 2,9 C 3,2 km/h (1 Bft) 90,91 %
25.09.2018 23:32 2,9 C 16,7 C 0,6 C 87 % 1038,9 hPa 0,0 l/m 2,6 km/h (1 Bft) S-SW 195 0 min 0,000 mm 0,0 UV-I 0 W/m 1,0 C 2,9 C 3,2 km/h (1 Bft) 97,87 %
25.09.2018 23:34 2,9 C 16,7 C 0,6 C 87 % 1038,9 hPa 0,0 l/m 2,1 km/h (1 Bft) S-SW 195 0 min 0,000 mm 0,0 UV-I 0 W/m 1,0 C 2,9 C 3,2 km/h (1 Bft) 97,92 %
25.09.2018 23:36 3,2 C 16,7 C 0,0 C 87 % 1038,9 hPa 0,0 l/m 1,7 km/h (1 Bft) S-SW 195 0 min 0,000 mm 0,0 UV-I 0 W/m 1,2 C 3,2 C 3,2 km/h (1 Bft) 97,87 %
25.09.2018 23:38 3,5 C 16,7 C 0,0 C 87 % 1039,0 hPa 0,0 l/m 0,8 km/h (0 Bft) S-SW 195 0 min 0,000 mm 0,0 UV-I 0 W/m 1,5 C 3,5 C 1,6 km/h (1 Bft) 93,62 %
25.09.2018 23:40 3,7 C 16,7 C 0,0 C 86 % 1039,0 hPa 0,0 l/m 0,7 km/h (0 Bft) S-SW 195 0 min 0,000 mm 0,0 UV-I 0 W/m 1,6 C 3,7 C 1,6 km/h (1 Bft) 96,00 %
25.09.2018 23:42 3,8 C 16,7 C 0,0 C 85 % 1039,0 hPa 0,0 l/m 0,4 km/h (0 Bft) S-SW 195 0 min 0,000 mm 0,0 UV-I 0 W/m 1,5 C 3,8 C 1,6 km/h (1 Bft) 93,62 %
25.09.2018 23:44 3,8 C 16,7 C 0,0 C 85 % 1039,1 hPa 0,0 l/m 0,6 km/h (0 Bft) S-SW 195 0 min 0,000 mm 0,0 UV-I 0 W/m 1,5 C 3,8 C 1,6 km/h (1 Bft) 97,87 %
25.09.2018 23:46 3,7 C 16,7 C 0,0 C 85 % 1039,1 hPa 0,0 l/m 0,4 km/h (0 Bft) S-SW 195 0 min 0,000 mm 0,0 UV-I 0 W/m 1,4 C 3,7 C 1,6 km/h (1 Bft) 93,62 %
25.09.2018 23:48 3,6 C 16,7 C 0,0 C 85 % 1039,0 hPa 0,0 l/m 0,0 km/h (0 Bft) S-SW 195 0 min 0,000 mm 0,0 UV-I 0 W/m 1,3 C 3,6 C 0,0 km/h (0 Bft) 97,87 %
25.09.2018 23:50 3,7 C 16,7 C 0,0 C 85 % 1039,0 hPa 0,0 l/m 0,0 km/h (0 Bft) S-SW 195 0 min 0,000 mm 0,0 UV-I 0 W/m 1,4 C 3,7 C 0,0 km/h (0 Bft) 97,87 %
25.09.2018 23:52 3,5 C 16,7 C 0,0 C 85 % 1039,0 hPa 0,0 l/m 0,0 km/h (0 Bft) S-SW 195 0 min 0,000 mm 0,0 UV-I 0 W/m 1,2 C 3,5 C 0,0 km/h (0 Bft) 97,87 %
25.09.2018 23:54 3,3 C 16,7 C 0,0 C 85 % 1039,0 hPa 0,0 l/m 0,0 km/h (0 Bft) S-SW 195 0 min 0,000 mm 0,0 UV-I 0 W/m 1,0 C 3,3 C 0,0 km/h (0 Bft) 97,87 %
25.09.2018 23:56 3,2 C 16,7 C 0,0 C 86 % 1038,9 hPa 0,0 l/m 0,5 km/h (0 Bft) S-SW 195 0 min 0,000 mm 0,0 UV-I 0 W/m 1,1 C 3,2 C 1,6 km/h (1 Bft) 97,56 %
25.09.2018 23:58 3,1 C 16,7 C 0,0 C 86 % 1038,9 hPa 0,0 l/m 2,1 km/h (1 Bft) S-SW 195 0 min 0,000 mm 0,0 UV-I 0 W/m 1,0 C 3,1 C 3,2 km/h (1 Bft) 98,00 %
_ Min-Zeit 23:29 04:30 23:36 15:59 00:22 - 20:04 - - - - - - 15:59 01:02 20:04 05:30
Minimum _ 2,9 C 16,7 C 0,0 C 36 % 1031,8 hPa - 0,0 km/h (0 Bft) - - - - - - -1,8 C 2,3 C 0,0 km/h (0 Bft) 89,36 %
_ Max-Zeit 15:42 15:18 12:52 07:42 23:44 00:00 00:28 - - 07:05 15:02 12:46 12:46 08:54 15:46 00:12 00:18
Maximum _ 13,2 C 17,8 C 26,7 C 87 % 1039,1 hPa 0,0 l/m 16,9 km/h
W (3 Bft)
- - 3 min 0,356 mm 3,1 UV-I 742 W/m 5,0 C 13,1 C 27,4 km/h
SW (4 Bft)
100,00 %
Durchschnitt _ 8,6 C 17,1 C 9,8 C 68 % 1035,8 hPa #0,0 l/m 6,2 km/h (2 Bft) W - #9:12 h #2,642 mm 1,8 UV-I 351 W/m 2,7 C 7,8 C 10,6 km/h (2 Bft) 97,46 %